GFSGL_con_3kmhel_000.txt.gz
Helicity
278 261 225 175 157 162 171 147 123 119 100 102 93 92 90 90 93 102 95 93 101 110 113 115 106 101 131 123 113 113 136 147 117 72 85 79 51 -6 -57 39 249 79 125
213 201 163 181 169 154 155 128 100 87 83 77 82 86 82 82 81 84 84 90 95 96 98 104 111 137 115 117 113 93 96 103 118 61 67 53 16 16 41 -40 50 116 150
200 177 221 170 160 148 117 90 75 74 82 86 88 88 85 89 90 93 94 93 96 102 102 100 103 103 130 154 125 104 92 84 97 79 49 41 23 11 30 35 -18 7 137
223 192 168 154 145 123 92 71 79 89 92 89 89 87 88 90 99 94 91 97 115 140 133 126 111 114 138 135 134 121 105 88 93 99 69 29 42 -6 32 24 48 59 167
178 162 146 158 128 97 65 76 92 89 94 85 81 82 88 106 113 105 119 121 -45 -77 -7 41 46 25 -27 64 165 132 131 132 104 105 91 79 55 55 55 78 86 160 160
152 138 181 150 118 90 71 95 93 87 79 78 79 86 96 116 104 118 -21 -119 -47 -65 -79 58 83 51 40 14 -16 -2 139 202 136 121 102 95 44 63 19 89 141 189 171
124 171 170 136 113 89 83 103 90 76 70 73 82 99 95 41 -54 -94 -67 89 68 50 78 83 70 88 68 71 54 8 1 92 135 171 159 99 84 60 60 69 119 141 198
166 167 143 114 107 87 103 94 82 75 84 84 91 82 -100 -109 -74 -42 -28 57 57 87 100 91 82 77 78 76 79 69 -5 86 112 131 128 160 107 73 71 53 95 189 235
159 141 113 113 105 98 92 85 70 90 89 86 72 -105 -102 -72 -33 -18 -31 69 92 99 106 110 102 95 75 63 65 22 -9 -20 111 72 57 105 205 168 282 109 165 228 267
147 116 102 92 93 87 82 71 81 95 90 72 -90 -98 -75 -53 26 9 34 98 113 114 87 89 77 97 67 67 60 36 21 -27 80 111 141 83 120 120 201 222 167 176 254
126 103 100 96 85 91 72 79 89 88 60 -85 -83 -60 -6 28 86 82 74 113 102 87 94 92 111 128 165 142 82 80 25 -32 -16 88 95 124 123 103 92 118 193 171 254
94 101 93 83 93 79 74 87 82 66 -83 -84 -78 -24 15 48 67 40 31 16 38 68 56 62 -3 6 2 75 137 83 28 -18 -48 38 121 131 151 138 125 128 99 121 154
100 92 82 82 74 76 90 80 69 -67 -95 -93 -64 -17 -6 16 28 32 6 30 15 25 -16 -23 15 21 41 44 71 79 70 19 35 -7 101 99 115 121 124 157 164 208 242
95 88 80 78 84 79 82 76 -36 -95 -96 -79 -29 -10 -5 22 45 -4 11 18 24 11 -4 3 12 10 -6 11 23 92 25 -11 8 47 68 86 98 162 185 197 242 307 369
91 82 78 81 83 71 66 72 -95 -98 -104 -54 -25 -2 7 -2 -12 9 -5 10 6 3 23 16 0 -9 17 46 19 27 3 -16 1 42 139 157 139 179 178 282 319 296 300
82 86 86 82 77 65 64 53 -87 -97 -66 -7 0 -11 -9 17 31 22 33 -1 19 12 7 -5 13 21 24 36 62 43 -22 -17 -21 -32 131 115 125 150 211 238 263 281 313
85 78 81 74 68 65 38 -64 -46 -63 -57 -7 10 23 28 47 37 27 26 30 -2 -42 32 36 13 2 30 70 84 102 48 57 61 15 7 133 163 152 169 198 232 300 361
78 74 73 66 65 61 25 -72 -72 -72 -25 34 43 47 64 68 30 2 -8 -45 -27 -4 26 56 73 57 48 28 79 117 118 -28 -24 30 10 65 14 142 202 225 234 304 365
77 81 72 60 57 53 -2 -67 -77 -75 -35 20 57 69 84 94 43 15 6 -10 5 4 -8 12 32 41 40 52 47 39 52 71 10 -29 -17 -9 42 80 125 159 172 239 249
73 88 52 46 45 46 -43 -58 -68 -62 -33 22 54 77 94 58 51 53 12 23 43 50 39 19 34 49 54 40 -2 52 57 77 51 -33 64 -10 73 87 140 224 253 249 247
72 69 54 27 37 45 -44 -53 -60 -54 -33 24 59 73 96 41 47 51 50 64 70 66 64 51 44 37 50 56 53 45 8 40 35 31 34 55 76 101 120 112 128 129 136
68 59 44 16 30 42 -36 -47 -47 -45 -30 19 67 80 104 61 68 76 83 80 65 65 63 36 14 7 15 30 49 27 16 15 30 -19 -7 35 63 68 38 28 48 58 61
63 52 24 12 31 34 -34 -33 -29 -25 -21 -4 52 74 85 88 86 90 97 95 84 79 77 65 41 24 12 9 12 21 3 -10 -17 -10 10 16 26 37 32 39 45 55 64
62 52 6 11 29 23 -30 -31 -23 -12 -6 -7 19 62 74 82 94 100 103 103 88 87 92 89 82 71 43 38 31 29 28 25 18 21 27 35 47 52 56 63 71 80 83
60 46 16 10 25 15 -35 -35 -24 -11 -3 3 5 26 64 70 77 85 88 87 89 88 96 90 79 81 85 85 77 66 57 55 41 32 31 44 50 53 54 59 65 77 80
60 45 29 17 28 5 -29 -36 -27 -17 -10 -3 4 14 24 58 69 70 69 70 63 63 65 67 76 93 92 91 94 91 91 87 75 65 43 44 50 54 64 72 81 80 85

GFSGL_con_3kmhel_003.txt.gz
Helicity
321 536 355 309 268 229 237 221 182 181 145 117 104 103 112 110 103 113 108 100 101 101 103 103 98 90 102 96 102 116 139 180 156 119 156 140 191 106 20 78 135 49 156
475 421 329 277 280 249 222 211 176 119 104 78 71 82 96 97 97 94 98 99 102 109 113 115 117 122 96 89 79 100 135 151 186 126 98 127 144 123 104 -18 17 90 54
356 409 377 342 327 209 197 133 115 101 76 65 80 100 102 101 98 101 99 107 116 121 124 128 128 118 97 88 71 91 114 135 153 165 109 110 101 95 96 27 -17 32 28
346 383 382 316 201 204 148 125 103 84 76 73 93 102 103 96 96 97 100 107 115 130 157 185 185 167 131 112 125 99 87 108 135 143 129 107 87 73 97 73 32 51 73
341 338 262 173 203 121 112 119 101 93 92 82 94 92 88 102 111 112 127 139 139 168 187 171 127 84 12 24 114 132 183 145 109 113 112 114 80 54 62 80 74 22 104
251 231 175 222 131 110 138 114 97 105 92 98 93 86 95 115 126 136 142 146 153 -32 -45 -17 32 57 56 53 34 41 61 139 141 197 83 101 85 73 64 58 33 71 83
344 185 172 121 113 131 104 96 101 101 102 86 86 102 108 99 101 118 57 -94 -92 -80 -71 72 97 86 71 80 64 71 70 46 -9 15 -62 178 120 91 66 33 62 104 84
148 155 103 117 122 92 107 99 101 101 86 89 107 107 95 101 38 -85 -71 -94 -41 39 82 95 96 99 99 92 94 94 89 90 88 86 -50 -81 167 145 139 130 80 119 189
131 102 132 128 103 100 98 99 90 93 85 109 113 95 90 -64 -92 -60 -56 48 49 81 97 104 102 103 83 55 96 111 94 108 93 72 70 -24 -69 86 114 148 102 122 156
124 142 124 102 101 109 105 89 88 83 113 133 94 86 -103 -109 -22 33 17 126 117 143 144 128 99 113 75 62 89 92 101 117 104 103 97 72 -20 52 28 115 169 112 166
133 114 91 98 106 111 80 78 82 105 110 98 89 -79 -86 -36 6 2 12 57 80 79 78 99 108 101 108 111 99 95 110 96 86 93 101 115 76 58 44 91 96 131 157
119 108 101 108 106 86 77 84 95 81 88 75 -88 -63 21 15 18 2 22 44 52 74 66 71 57 43 42 13 16 36 66 123 100 97 99 90 83 68 124 114 95 130 157
107 105 107 98 82 84 83 90 80 75 83 -91 -95 -62 4 52 55 8 15 19 57 71 69 62 47 44 47 38 59 89 103 112 132 88 86 79 52 60 96 111 137 137 134
110 109 93 82 84 63 91 86 82 60 -47 -76 -72 -8 27 59 34 37 -12 -10 -11 3 14 -8 25 49 19 49 34 24 99 68 100 104 63 38 52 67 121 132 186 204 222
108 92 78 81 68 73 74 81 67 -30 -71 -77 -40 14 59 79 35 45 -2 9 7 20 37 40 2 1 -4 14 20 32 60 76 60 34 47 75 79 100 150 196 184 185 182
95 95 92 68 68 71 70 62 39 -60 -62 -50 -4 7 16 32 62 25 52 52 37 -1 -2 1 -2 14 35 58 74 17 26 31 11 -22 57 91 130 174 133 161 131 170 173
95 79 70 61 68 71 64 49 -36 -59 -75 -45 -5 4 17 45 37 24 65 56 -27 -19 -20 -7 -1 7 23 44 95 139 27 -30 -32 -53 -50 146 131 109 67 77 105 180 228
72 57 60 67 67 65 57 -8 -44 -57 -49 -10 18 14 43 68 38 43 54 -36 -36 -26 -42 -14 35 52 35 39 65 142 118 49 36 30 37 -22 33 69 65 61 122 136 202
77 84 86 60 59 48 -2 -27 -43 -47 -46 -6 30 43 70 80 41 39 41 -1 8 7 -26 -16 76 81 79 74 24 60 119 5 -22 22 -4 2 -7 -1 109 103 118 132 189
79 120 71 55 52 31 -45 -39 -39 -38 -41 -6 26 38 74 58 33 24 37 47 45 55 23 36 63 75 81 77 69 43 36 54 -10 -9 -11 18 -9 -14 -24 -19 78 130 155
85 83 78 51 50 -14 -37 -38 -35 -32 -31 -9 28 26 76 45 44 42 53 67 66 67 75 42 45 57 62 69 69 59 58 61 72 63 -13 -44 -38 25 113 19 24 65 247
73 70 60 53 9 -28 -13 -39 -29 -22 -21 -13 26 37 60 55 54 57 71 71 71 52 52 56 31 28 59 64 48 56 59 50 51 68 79 70 75 43 57 59 167 109 133
64 63 52 42 -23 -35 -0 -23 -26 -16 -9 -11 16 41 48 60 68 72 76 79 74 70 58 41 35 33 34 31 53 54 15 18 31 39 30 1 9 25 32 33 29 16 33
69 58 48 10 -30 -29 10 -28 -29 -13 -6 -0 4 34 48 51 65 79 77 82 76 65 65 62 41 46 41 41 59 75 69 37 21 8 13 12 13 14 17 22 28 32 36
58 55 42 -18 -30 -10 7 -23 -26 -16 -14 -0 6 15 40 46 50 59 70 67 64 57 54 52 52 53 59 68 70 72 87 89 50 29 24 42 49 48 39 44 52 59 75
63 64 26 -19 -26 7 4 -24 -22 -17 -17 -15 -1 8 17 44 49 45 48 53 50 45 44 34 42 55 59 61 68 74 88 98 91 79 44 44 50 58 64 76 80 78 81

GFSGL_con_3kmhel_006.txt.gz
Helicity
264 237 468 574 601 616 497 472 443 370 271 168 124 128 99 102 112 131 147 151 150 141 133 122 114 106 120 111 105 101 105 117 135 76 109 128 92 30 89 88 82 97 51
299 433 529 539 484 416 420 383 350 192 125 133 99 89 95 109 122 136 145 139 138 132 122 118 108 108 101 97 100 90 83 62 73 45 33 58 83 89 58 41 81 105 67
459 498 493 389 325 333 369 342 190 136 142 104 106 113 119 132 136 138 129 125 124 123 124 121 121 119 116 111 96 91 85 75 66 62 -0 12 54 96 92 53 51 67 10
435 431 384 283 258 276 249 287 180 108 106 122 128 131 137 134 125 121 118 126 134 145 159 161 168 177 182 168 131 100 77 72 67 89 50 15 38 42 89 64 43 27 67
390 354 318 396 323 202 295 170 130 134 136 127 134 135 144 143 136 134 167 179 175 166 175 187 175 150 113 109 110 52 37 8 1 -3 44 54 73 90 100 92 71 35 73
449 445 298 241 258 260 168 134 134 125 144 149 152 146 133 137 157 155 152 151 151 153 132 112 87 -49 -55 -40 -37 -39 -22 -10 -51 29 10 21 62 132 109 111 85 74 20
420 316 270 143 120 179 147 128 123 146 155 159 148 137 142 159 160 157 137 118 82 -81 -90 -60 -31 107 83 76 48 7 18 23 48 88 6 -113 7 130 189 143 96 66 24
288 151 70 123 154 159 136 140 146 162 162 144 139 152 172 167 106 75 65 -59 -92 -9 82 96 101 117 122 107 95 98 103 103 101 125 107 101 24 5 51 110 69 138 71
92 178 182 185 153 140 136 150 155 149 130 133 178 167 121 110 84 -47 -43 -38 41 119 161 174 165 153 132 77 91 119 147 148 103 67 78 91 73 76 -0 63 -27 107 78
186 179 193 149 134 132 163 148 136 124 140 173 120 129 100 -41 -78 -22 16 84 21 131 70 112 82 100 94 100 102 111 113 112 122 120 123 102 85 98 92 88 38 -57 122
218 179 138 120 131 149 142 122 124 133 139 128 142 104 67 -96 -63 -12 5 24 49 62 96 101 108 60 37 19 27 108 112 102 98 111 115 118 116 110 122 105 58 25 8
164 143 121 129 143 124 113 116 112 111 116 131 88 60 -26 18 56 42 20 15 63 63 64 58 74 59 56 19 11 11 43 61 88 130 145 147 125 118 90 93 115 12 62
117 116 136 127 103 113 103 105 102 107 117 90 73 -79 -52 77 81 42 28 58 67 70 51 49 42 39 44 55 78 75 42 56 78 103 137 143 111 84 61 79 133 150 36
108 122 110 95 102 100 100 92 105 102 93 59 -69 -87 -10 60 63 79 133 118 119 71 58 75 86 91 83 69 87 82 87 145 201 158 157 125 77 63 64 104 157 180 188
108 105 97 118 102 92 80 90 96 102 73 -42 -80 -49 11 26 49 86 32 17 -2 39 65 36 35 39 33 36 86 21 25 49 109 95 108 66 -6 -19 47 117 201 211 153
105 109 104 91 83 82 84 82 93 62 4 -53 -48 -18 1 1 42 28 29 52 31 29 54 44 13 9 59 68 119 14 7 4 21 42 24 -16 11 71 146 177 143 130 131
108 86 86 72 88 82 74 66 55 29 -5 -38 -9 8 20 33 39 14 51 64 60 -29 -14 -40 2 43 21 63 98 131 61 -11 9 9 -25 -58 126 167 207 128 117 139 164
70 46 71 95 84 72 69 57 35 -24 -44 -35 -13 18 46 78 32 26 60 44 20 -2 53 -35 -68 52 70 44 77 97 70 63 75 43 18 88 43 67 68 82 101 124 171
69 56 111 81 73 61 64 45 -35 -38 -48 -42 -24 13 47 77 41 45 55 14 12 15 -1 23 52 53 70 88 71 84 68 27 8 -0 8 29 -8 -41 -28 54 111 132 165
79 140 91 85 70 69 52 -13 -43 -48 -41 -40 -31 7 44 42 36 49 44 45 27 25 38 22 32 67 77 80 80 76 85 98 45 23 25 38 34 43 52 98 122 157 163
100 107 92 71 71 59 14 -52 -33 -51 -37 -43 -35 5 38 37 40 46 48 55 43 28 36 46 61 59 83 82 85 64 61 92 85 30 13 36 52 75 71 79 91 190 221
81 88 70 59 72 34 -32 -55 -17 -47 -35 -33 -34 2 29 24 38 43 56 42 46 42 28 27 33 61 85 111 101 89 87 61 68 76 64 52 52 63 61 52 47 72 68
72 81 59 54 55 11 -46 -37 -8 -37 -43 -27 -21 -10 17 19 33 38 50 42 36 46 46 34 46 51 76 95 119 136 90 63 67 62 56 58 62 60 62 57 46 32 41
75 77 62 56 22 -23 -33 -32 -1 -30 -45 -30 -12 -13 9 18 22 40 39 38 38 43 45 47 40 55 74 86 100 117 129 61 21 19 37 53 57 59 62 61 57 45 35
82 66 65 56 8 -25 -32 -9 -1 -25 -34 -35 -25 -5 -3 15 14 20 34 32 27 28 37 41 38 43 59 88 103 109 125 124 94 18 12 25 31 35 35 40 43 43 41
72 76 73 57 32 -0 -6 5 -11 -17 -27 -24 -27 -18 3 7 20 17 24 35 33 34 37 24 32 49 61 65 76 90 101 107 94 91 74 70 62 48 44 44 53 66 83

GFSGL_con_3kmhel_009.txt.gz
Helicity
193 282 351 402 425 458 523 512 489 417 258 150 89 67 90 111 90 113 127 126 136 134 146 134 127 120 126 112 105 110 111 98 53 -4 -7 -3 10 10 28 26 31 31 18
251 372 470 458 425 399 361 340 342 252 184 125 104 109 100 108 121 126 123 125 123 121 117 130 110 99 96 94 97 90 89 82 84 21 20 8 7 18 17 51 72 48 34
321 433 457 404 342 309 299 244 219 185 157 82 65 87 105 115 121 124 122 124 125 124 118 123 109 108 97 83 66 68 75 72 75 54 23 30 37 39 36 51 50 60 95
336 371 347 304 298 310 315 308 230 138 114 107 100 109 119 119 118 120 114 119 134 145 153 150 136 124 113 99 82 69 61 68 65 49 15 8 -9 12 48 47 70 80 72
312 448 544 539 420 355 304 261 176 129 114 116 120 123 128 128 118 112 135 135 138 127 113 106 104 94 60 77 107 85 87 86 77 63 27 9 10 -2 17 50 61 86 86
369 398 443 437 410 369 235 119 107 107 120 122 121 134 127 121 127 196 184 129 111 115 107 96 99 82 94 3 -46 -47 -49 88 79 78 47 26 2 7 44 38 58 36 50
302 301 275 228 205 43 -10 46 108 120 129 130 121 112 118 153 150 102 64 98 133 158 148 -73 -78 73 3 44 -6 -26 -36 -13 -7 -58 -74 -30 6 16 15 13 58 96 58
157 116 107 86 -13 61 124 127 130 143 132 109 113 125 134 107 71 66 85 141 42 -34 44 50 18 62 87 87 87 81 67 69 91 119 9 7 44 89 78 46 52 60 51
55 41 48 121 152 132 136 147 136 120 104 117 120 110 97 100 61 65 -49 -80 17 61 74 80 -11 92 29 31 83 115 125 144 107 72 77 65 61 69 104 125 91 99 52
128 199 194 167 144 156 150 131 115 122 115 109 109 122 90 96 70 -63 -23 51 35 87 73 78 57 69 58 70 86 101 102 97 153 121 130 106 83 89 88 133 128 106 113
159 145 133 135 150 149 126 115 111 105 106 118 105 80 93 102 -84 -44 -7 60 91 101 109 128 109 42 35 61 53 79 67 52 55 124 123 118 115 115 112 104 136 149 134
119 117 133 133 115 117 125 97 101 99 96 80 64 72 104 67 -59 1 12 28 49 55 54 77 95 99 41 22 17 35 56 41 37 94 131 122 128 136 121 115 113 121 132
118 117 107 98 106 111 101 87 96 83 83 59 68 83 87 -54 48 41 50 81 71 59 51 61 1 27 17 18 12 39 43 29 93 102 119 142 148 131 114 110 127 102 94
102 93 93 120 99 87 93 93 86 76 55 60 73 78 -55 -15 29 15 53 41 60 63 38 56 36 35 35 39 -2 -4 39 61 137 171 169 146 150 132 102 90 67 88 131
97 94 110 95 95 90 85 79 68 65 90 81 41 -0 -77 2 17 55 2 -3 -13 -36 68 65 61 86 41 85 84 39 7 11 20 95 111 75 82 71 50 33 65 137 146
95 98 101 91 81 80 78 70 59 48 51 50 8 -7 -42 1 49 13 18 31 60 -1 63 -70 13 30 56 83 100 88 16 15 16 35 44 51 16 -3 9 28 104 109 123
76 74 77 62 73 70 67 72 59 40 19 14 4 12 22 48 28 30 36 43 53 17 -31 -9 -62 51 72 83 86 101 75 63 10 34 21 -11 29 58 114 85 100 116 122
63 67 81 71 72 66 70 58 58 37 -15 -23 -39 -10 36 60 47 53 69 40 27 30 -1 -6 5 23 50 63 75 70 76 76 58 54 20 4 -22 -9 71 70 86 96 116
84 106 109 80 58 61 57 59 41 5 -57 -46 -52 -32 14 50 49 66 81 38 5 -2 4 20 34 38 35 50 63 78 70 45 33 49 91 66 1 -21 -16 15 67 84 131
87 110 90 76 68 63 62 40 10 -45 -58 -52 -57 -40 4 25 27 47 55 53 22 2 -2 3 35 41 57 73 52 74 58 38 43 43 26 27 39 35 11 17 42 97 118
76 86 81 71 64 68 49 27 -12 -56 -48 -49 -52 -34 6 6 31 44 41 48 35 15 -2 -4 22 43 50 64 89 76 80 81 69 66 56 40 35 43 38 54 67 91 101
74 78 72 58 65 60 39 21 -35 -31 -36 -57 -46 -38 -5 -11 15 30 36 37 36 26 18 4 3 22 48 52 76 97 84 60 68 70 72 74 70 37 24 38 34 31 49
69 83 66 64 58 54 46 -8 -33 -7 -23 -61 -27 -35 -19 -8 8 22 29 27 29 27 27 31 48 50 59 71 71 54 57 62 73 61 55 67 74 73 60 24 14 22 26
78 81 71 64 63 56 30 -10 -10 18 -8 -56 -31 -32 -27 -4 4 25 25 27 14 27 30 37 39 51 58 66 67 62 54 40 16 6 24 35 39 51 70 64 48 27 15
98 83 82 71 63 67 41 24 21 18 -8 -39 -46 -26 -25 -14 3 17 32 22 25 26 38 39 42 49 59 76 82 81 85 74 52 33 25 25 33 33 34 43 49 43 20
80 82 78 72 83 79 58 44 43 4 -0 -29 -41 -42 -16 1 13 19 27 29 33 34 38 40 40 48 58 62 65 65 74 79 71 79 49 42 29 24 39 55 67 72 53

GFSGL_con_3kmhel_012.txt.gz
Helicity
132 136 222 282 328 396 400 415 400 392 393 312 107 -44 -3 30 62 111 126 118 121 124 130 122 118 119 123 132 133 117 107 100 54 18 25 16 -2 -2 3 26 63 22 -2
121 145 224 292 346 356 334 307 286 255 243 67 -6 17 77 101 92 99 112 116 123 122 117 124 117 116 109 108 122 108 108 97 83 28 16 10 3 -4 -7 1 15 36 45
115 160 226 257 272 303 317 294 245 186 134 90 85 96 102 100 103 105 116 122 130 121 118 112 102 102 103 113 115 121 115 95 95 80 46 51 43 29 21 26 22 16 43
103 159 238 298 319 331 314 256 219 206 175 120 101 107 109 110 114 110 110 120 130 127 121 118 113 111 102 87 84 85 78 69 51 44 33 24 20 21 24 9 6 22 31
199 285 365 429 448 459 422 394 309 175 103 102 106 122 123 118 106 126 140 128 122 109 97 89 84 81 56 78 109 81 74 80 73 51 29 12 26 33 43 35 29 12 21
212 277 348 386 370 358 242 153 24 30 80 115 133 118 109 106 119 132 134 128 110 105 113 105 103 68 86 73 78 75 92 104 80 72 53 47 42 52 47 60 57 49 41
220 162 134 100 64 -64 -68 -43 -4 61 109 113 104 96 89 96 85 77 84 102 115 131 134 138 50 73 41 69 38 -27 -43 -39 -43 -86 -22 51 61 82 80 74 72 68 61
109 50 54 54 46 21 10 63 107 115 110 102 82 83 99 88 68 68 67 101 133 136 9 70 82 61 58 45 63 91 68 62 78 124 93 126 98 97 124 117 96 81 86
117 98 121 145 131 121 135 128 122 116 99 90 94 89 82 83 53 64 75 106 -7 18 74 82 98 95 58 15 56 74 62 107 99 70 73 89 89 73 89 131 133 111 88
166 144 126 121 132 126 122 118 106 100 99 105 109 97 67 79 65 56 85 -43 -23 58 73 89 68 102 63 71 73 76 88 78 82 100 135 101 88 96 61 110 160 140 113
117 123 119 116 116 114 109 103 98 100 111 117 92 72 78 95 89 59 -27 -15 8 4 86 38 99 1 -5 40 46 67 67 68 57 80 74 102 122 142 129 106 111 142 124
131 120 107 103 103 112 113 95 104 117 115 88 68 68 103 109 80 -27 5 -2 -4 -4 -9 25 23 7 -6 6 23 45 27 39 58 39 106 76 77 103 112 118 112 121 111
126 102 89 101 103 98 102 108 100 94 87 79 71 67 75 81 76 8 26 31 35 -7 3 29 10 21 10 16 5 24 -4 -23 77 108 130 108 117 110 108 111 111 120 123
98 79 85 85 95 110 112 99 93 90 93 76 61 62 54 45 -14 22 24 2 14 21 -24 88 56 79 81 50 57 50 20 58 63 87 116 107 104 114 144 150 99 76 85
79 77 80 100 113 108 92 87 94 88 90 75 64 60 22 -30 10 24 7 -5 -15 -9 -31 -54 -56 11 75 88 82 58 26 -2 3 -12 57 97 88 76 75 145 70 88 98
76 69 85 104 109 103 87 87 77 71 64 66 75 51 -30 -28 22 24 26 17 26 17 -30 -60 -32 27 75 68 63 72 62 55 27 33 32 27 20 15 34 55 46 36 66
60 74 97 96 95 89 81 74 62 50 51 61 54 14 -1 5 24 32 39 35 30 3 -28 -33 -29 35 67 59 50 47 61 66 32 12 42 24 27 36 57 47 20 67 108
79 82 99 103 95 81 73 62 66 70 35 18 -24 -11 2 19 31 44 61 39 19 10 -18 -25 -24 5 44 66 60 44 49 46 38 14 -5 3 -3 11 10 43 39 57 65
79 89 95 93 90 82 81 81 75 67 25 -41 -52 -44 -19 15 31 50 62 31 12 -4 -12 -9 -2 -2 11 34 79 67 38 46 40 26 21 -0 -17 -37 -33 11 36 49 50
96 92 86 74 71 86 86 78 72 60 -25 -55 -43 -56 -26 -12 5 20 30 42 31 8 -8 -3 8 21 19 27 51 78 80 58 66 62 36 6 -23 -26 -37 -44 -10 29 45
97 85 80 84 75 88 77 77 70 37 -66 -30 -66 -48 -15 -9 10 24 25 39 40 28 13 6 13 24 33 36 31 39 43 28 47 69 69 40 -5 -23 -18 -3 -3 -15 27
99 73 81 79 77 78 79 81 67 -22 -28 -26 -64 -37 -8 -8 5 13 20 32 37 32 23 19 21 20 23 28 34 32 21 5 11 55 73 78 47 6 -5 -8 -1 4 -12
90 78 72 77 82 77 83 74 59 -13 31 -20 -55 -33 -25 -9 4 10 17 9 28 35 30 22 29 35 45 45 26 6 5 13 -2 14 38 60 65 61 25 5 4 -5 -14
91 89 81 72 76 82 89 69 54 34 55 -3 -46 -36 -22 -15 11 16 10 18 21 29 35 34 26 32 42 47 47 29 14 5 -6 -3 -3 3 19 30 43 39 15 -4 -4
86 84 79 80 82 93 93 77 60 56 57 5 -43 -34 -29 -16 4 13 15 17 21 29 38 37 38 41 46 60 60 51 52 41 18 1 -4 3 7 11 8 11 7 6 4
86 87 89 87 95 109 108 88 71 62 42 -0 -45 -35 -23 -17 -12 15 23 23 25 27 31 25 29 39 52 50 47 52 54 54 41 37 8 4 9 15 16 22 25 18 13

GFSGL_con_3kmhel_015.txt.gz
Helicity
123 127 99 122 160 236 267 308 342 313 273 260 232 196 69 -141 -28 40 77 88 109 118 121 120 120 117 132 137 142 147 155 156 134 78 88 60 43 29 17 28 27 38 90
89 77 55 89 173 256 259 237 236 229 216 157 147 106 80 67 93 106 105 110 122 125 112 115 115 112 122 133 148 151 154 140 148 89 72 67 51 38 15 11 21 14 20
53 58 90 112 182 222 275 286 283 289 233 160 128 130 121 126 121 119 129 129 116 117 122 126 121 120 117 118 118 123 131 129 136 123 86 87 73 65 38 26 23 28 26
91 104 139 170 225 262 338 378 415 358 237 184 125 112 117 114 116 114 109 115 125 124 122 117 115 113 107 104 107 109 112 121 113 114 87 60 49 34 48 40 22 27 29
118 126 175 251 339 456 543 472 336 189 113 106 101 107 110 101 96 123 129 129 126 122 111 100 92 78 49 75 113 105 102 113 110 92 72 54 44 33 43 43 48 38 32
142 140 160 209 193 138 140 41 -34 -127 -42 70 119 114 104 102 93 89 97 119 115 109 104 89 97 70 77 54 64 70 86 129 129 133 118 89 55 65 54 46 47 54 36
155 132 115 112 100 72 53 27 16 53 107 127 117 108 100 96 82 87 88 114 124 115 108 107 95 98 58 85 54 27 43 44 49 91 119 128 98 111 85 82 67 62 54
167 159 125 106 106 102 98 118 125 124 120 109 102 100 100 90 82 76 69 105 118 111 109 105 36 38 72 58 66 81 95 109 111 147 168 140 130 128 122 108 91 94 89
237 212 159 142 152 148 140 113 112 118 109 101 90 96 95 82 60 58 71 101 101 97 65 54 63 61 52 18 63 86 88 94 85 52 76 99 93 87 107 138 115 116 90
125 139 145 157 140 122 103 100 104 103 93 99 104 97 76 81 60 57 77 97 92 12 13 28 29 52 57 63 79 104 81 90 109 87 100 81 64 86 59 117 133 147 122
118 131 143 136 112 106 100 103 102 103 106 98 87 71 73 74 73 59 50 83 16 -12 4 43 77 33 15 -8 31 46 42 18 74 84 92 135 126 120 119 115 103 106 142
141 143 139 113 95 104 103 99 111 113 96 76 69 65 75 79 54 52 45 25 -6 -20 4 30 -1 -21 -13 -10 -15 1 3 -2 35 80 105 126 149 143 126 112 89 96 88
155 152 106 82 88 91 102 106 102 95 75 65 61 57 53 47 74 28 26 9 10 1 -1 -24 -26 -25 12 28 42 56 37 12 59 83 98 111 142 142 126 104 113 99 77
125 99 83 80 81 108 105 101 103 90 72 62 58 54 40 21 19 10 -17 -6 10 -11 -22 -44 -42 -12 47 69 72 52 32 26 18 22 23 60 82 99 102 121 122 119 112
106 92 83 87 106 121 107 95 95 80 83 77 71 62 15 -6 -12 5 14 7 -8 -17 -20 -47 -56 -17 19 36 67 51 42 25 2 29 39 50 58 46 42 79 90 131 102
84 78 89 102 114 111 101 93 71 69 76 74 60 56 -28 -28 4 22 31 29 22 10 -31 -46 -45 -8 8 25 33 64 48 35 23 19 37 35 32 18 -23 -5 16 33 21
87 86 101 102 107 103 100 88 78 64 59 69 57 15 -18 -2 5 22 31 33 26 6 -29 -26 -33 -9 25 25 35 28 42 58 49 18 25 20 33 57 62 71 69 20 35
96 91 97 93 98 94 93 93 95 94 73 46 36 -31 -15 2 11 22 32 26 10 8 -12 -6 -6 1 13 24 43 44 39 56 54 46 29 11 -5 1 3 6 4 -7 14
117 117 106 96 84 86 97 98 99 99 78 38 -60 -57 -46 -3 2 15 32 -1 -3 -1 0 13 17 16 14 15 20 42 37 46 70 40 11 -5 -16 -28 -32 -18 10 36 27
119 113 94 92 87 92 93 97 98 92 72 -59 -65 -74 -46 -34 -21 -3 -1 13 11 8 7 13 25 27 24 34 37 33 7 -9 -10 9 42 -21 -34 -43 -23 -38 -33 -21 29
119 99 78 97 93 92 93 96 99 98 -20 -62 19 -72 -35 -26 -10 -2 5 18 21 20 22 21 27 28 23 23 25 31 20 -2 -13 -31 66 48 11 3 -14 -2 -3 -5 3
107 94 89 94 91 92 92 100 104 101 18 66 11 -65 -28 -27 -8 -5 -1 6 16 17 15 16 19 16 18 19 28 26 19 13 -3 -12 -29 38 37 16 11 6 8 11 7
99 105 101 91 93 93 104 108 108 96 69 70 2 -59 -42 -26 -8 -5 1 6 12 18 16 13 15 27 30 30 23 8 7 21 19 -14 -24 -13 -11 13 15 12 18 12 2
105 103 94 86 98 96 111 104 98 88 84 77 -1 -57 -45 -20 -11 7 -4 7 20 25 24 25 15 14 23 31 31 20 4 4 -10 -18 -22 -17 -7 -6 1 2 15 20 16
89 98 88 92 97 100 106 110 100 89 79 71 19 -44 -37 -21 -12 4 7 12 20 30 36 32 20 21 31 44 40 36 35 27 10 -3 -12 -6 4 9 -4 2 4 6 11
86 90 98 95 98 110 114 116 103 96 87 70 51 -29 -34 -30 -29 -9 4 10 18 26 32 19 10 20 30 36 34 37 36 33 23 17 -4 -2 5 9 -2 4 4 12 14

GFSGL_con_3kmhel_018.txt.gz
Helicity
63 56 59 65 68 98 109 141 223 248 211 176 154 158 119 81 63 49 54 56 53 80 83 77 80 79 103 116 133 143 158 181 179 143 137 106 86 58 52 70 47 52 68
62 65 67 65 58 99 126 172 200 233 267 232 277 209 138 122 122 103 88 92 87 75 61 70 77 88 104 111 127 132 148 150 162 130 119 127 107 84 66 64 69 63 64
75 71 47 48 61 122 210 275 327 366 353 333 231 138 109 109 106 114 101 87 81 82 85 94 104 113 115 118 119 126 132 129 141 144 122 116 120 126 99 94 88 66 84
115 106 89 91 149 259 337 378 423 405 276 148 90 105 106 97 97 84 80 74 76 80 84 94 98 96 91 91 99 103 101 109 114 127 123 107 105 98 104 79 63 74 70
141 147 146 142 156 176 190 179 154 71 45 27 -2 23 93 85 74 76 75 86 99 101 101 98 91 73 46 63 101 102 108 127 126 122 124 106 102 104 100 83 75 60 57
128 162 143 137 123 83 83 72 74 61 58 78 102 105 97 91 100 95 89 90 98 108 108 91 88 58 67 56 67 74 98 120 118 138 149 142 118 136 122 97 96 76 50
171 172 149 155 123 123 121 119 128 118 114 113 106 105 91 80 73 63 67 101 112 104 92 86 81 89 73 87 61 37 53 53 84 109 116 127 119 131 143 133 122 100 81
222 192 122 107 96 120 143 140 121 122 115 99 92 91 91 77 59 59 62 97 99 82 81 82 92 87 54 34 41 77 89 100 113 140 147 146 137 128 156 142 129 117 93
110 84 116 126 125 114 135 124 103 101 94 93 93 86 81 63 45 51 71 82 69 69 68 80 73 47 5 7 61 91 93 102 93 58 70 87 85 78 99 141 141 139 97
149 145 167 147 131 133 123 91 89 93 86 93 90 87 59 60 35 50 70 62 60 59 51 46 17 -13 -9 17 61 88 62 63 63 57 68 96 74 83 72 104 134 136 117
163 177 174 170 136 117 82 93 92 90 94 90 85 70 56 50 50 56 59 53 51 51 47 26 15 2 17 7 50 58 60 52 36 42 44 103 124 118 107 107 109 110 101
182 167 135 116 91 95 98 85 87 89 81 76 75 61 54 49 35 47 42 38 21 18 4 -8 8 13 16 -4 -6 24 29 25 48 51 54 81 108 131 136 129 126 118 109
136 120 99 96 92 95 92 79 76 76 85 78 57 42 32 32 45 24 23 20 27 4 -18 -10 7 0 -10 -9 29 39 24 20 30 43 62 73 91 102 116 150 153 121 76
118 108 97 92 83 89 100 86 87 92 87 68 60 54 47 18 20 29 -11 -8 20 -10 -15 -14 -30 -37 -15 4 21 44 43 41 34 33 36 41 55 85 87 108 109 96 69
118 110 97 89 90 93 97 90 93 89 92 85 84 72 47 13 9 -5 -11 -9 -8 -12 -18 -25 -46 -38 -3 17 27 36 46 38 25 31 40 50 37 22 26 38 59 79 57
119 110 95 89 96 98 96 93 76 81 71 78 68 77 48 -21 -10 0 12 20 17 12 -33 -31 -35 -19 6 24 32 26 31 57 55 46 34 29 39 38 37 20 9 -19 -1
127 109 101 94 98 95 87 91 97 79 65 69 65 58 -4 -29 -9 2 12 13 21 9 -23 -16 -11 -1 18 31 35 27 34 63 62 45 39 39 34 33 19 32 39 52 48
131 112 114 101 95 92 88 94 105 108 90 67 50 -11 -33 -16 -5 1 10 2 4 15 -11 -11 12 17 17 22 27 28 37 51 43 59 34 21 17 27 21 15 21 11 0
131 113 113 103 95 88 96 92 104 109 100 88 -23 -77 -40 -24 -11 -7 5 -26 -6 4 8 2 15 25 33 32 29 29 17 14 25 28 63 15 1 -6 21 12 15 9 15
113 105 102 102 99 93 95 98 104 105 96 -22 -56 30 -63 -58 -43 -27 -25 -11 -1 5 12 9 18 24 33 31 33 18 10 13 8 -3 -6 64 23 19 0 15 -3 -4 5
104 106 91 110 102 95 99 106 115 118 106 97 88 63 -70 -57 -33 -18 -19 -14 1 12 17 13 13 14 14 15 12 19 19 17 11 6 -15 -26 31 26 12 2 9 14 18
82 79 107 113 103 95 92 108 117 118 106 91 81 28 -60 -61 -38 -18 -12 -10 2 10 14 13 14 13 2 5 14 17 18 21 27 30 6 -19 -23 5 17 24 29 19 18
68 83 102 107 105 100 99 103 114 112 104 87 86 17 -71 -66 -38 -18 -15 0 13 22 26 27 33 36 25 20 10 2 6 20 24 1 -11 -14 -15 -12 -6 11 28 34 32
76 91 98 97 101 98 102 96 103 101 91 85 73 35 -55 -67 -44 -17 2 7 20 30 33 38 36 26 26 30 27 16 7 10 1 -8 -18 -18 -10 -7 -5 -1 7 9 15
79 87 105 106 98 95 97 99 102 101 92 92 74 46 -23 -47 -50 -25 3 12 17 33 46 46 33 28 32 46 43 34 26 21 6 -2 -5 -5 0 7 -6 2 4 6 10
69 78 94 108 104 96 108 109 95 102 91 87 82 67 35 -35 -43 -36 -21 -7 5 18 36 33 23 22 28 29 33 33 28 23 15 14 -8 -7 -1 6 2 14 20 19 23

GFSGL_con_3kmhel_021.txt.gz
Helicity
56 66 72 89 60 22 18 82 138 169 178 204 206 249 235 222 141 109 102 66 42 37 20 13 10 8 22 36 57 76 86 101 107 81 96 102 102 93 88 88 80 67 63
70 91 97 74 44 46 96 128 182 264 278 284 263 178 133 56 35 80 75 69 63 56 53 54 51 67 70 84 93 90 105 111 123 100 106 121 101 85 90 83 84 78 75
116 121 127 109 97 102 158 218 231 261 233 179 107 56 42 49 71 77 89 84 71 62 58 60 64 76 79 84 82 92 98 105 115 128 116 111 107 98 82 78 75 63 70
118 135 155 137 79 117 144 123 100 103 74 83 75 57 48 56 73 79 70 53 45 48 55 58 65 68 66 69 77 82 89 99 102 114 112 100 105 104 110 93 84 73 59
104 121 131 94 120 132 85 74 62 84 88 86 89 82 87 79 82 64 53 53 55 56 64 70 76 75 63 64 87 80 79 90 101 116 112 97 95 96 87 70 74 77 83
94 106 143 168 145 125 118 77 78 72 97 106 105 98 84 80 93 86 80 69 60 59 54 49 50 44 42 49 56 62 80 100 103 109 99 92 65 73 78 87 86 79 65
114 139 142 103 98 107 116 107 101 115 117 103 94 88 79 82 76 64 60 60 61 56 46 41 46 54 49 58 65 66 54 44 69 77 78 75 49 56 59 71 78 89 71
122 148 141 126 123 126 117 112 113 117 95 85 78 80 79 76 69 64 59 52 57 41 31 33 36 36 52 52 47 49 40 52 61 100 100 77 64 44 53 57 56 65 75
163 164 143 141 152 136 127 119 100 78 74 71 74 79 76 68 66 57 54 54 43 26 26 30 37 47 24 20 19 -37 37 53 71 74 69 48 40 43 46 70 87 76 83
178 140 151 146 123 110 106 87 83 74 76 88 86 79 67 67 51 52 55 50 32 27 21 22 30 25 13 -36 -4 56 48 53 47 42 38 44 52 53 8 82 82 70 69
117 125 113 110 97 94 90 86 81 79 88 86 82 78 67 57 48 52 62 60 47 25 14 17 19 13 -5 4 -5 -52 -6 20 47 45 27 5 27 43 44 52 67 77 58
130 121 108 100 90 87 84 81 82 82 78 76 68 60 58 47 42 50 50 50 36 10 -3 -2 5 12 -1 -23 -32 -10 6 8 23 28 25 13 22 46 56 65 57 62 64
136 120 107 94 85 79 74 86 84 80 77 74 72 64 55 47 42 39 33 20 20 -9 -17 -5 2 -1 -14 -22 4 15 7 0 6 18 12 13 22 25 23 38 57 51 67
129 120 105 90 79 74 88 93 88 80 85 82 74 69 58 41 39 34 5 -8 7 -12 2 -12 -16 -23 -31 -1 5 0 1 -2 13 10 9 21 27 26 30 14 19 36 19
126 114 107 96 82 83 93 86 86 94 93 92 92 84 62 43 24 -15 -21 -20 -11 -3 -6 -23 -22 -19 -9 17 13 10 11 9 4 -4 7 17 22 25 32 40 36 27 5
112 117 111 91 87 88 88 74 80 87 89 99 84 92 69 38 -28 -10 1 5 11 12 -26 -18 -10 -14 -2 17 31 30 22 26 26 24 3 0 8 12 23 41 42 28 -14
108 107 98 93 88 89 82 78 73 75 66 81 79 73 41 -17 -4 -2 6 0 11 7 -14 -7 -5 -3 8 22 27 16 12 7 13 15 0 -8 -4 -1 2 3 16 37 31
101 94 91 90 93 88 87 81 86 87 80 69 67 61 46 18 -3 2 8 -12 -9 4 -10 -1 6 8 14 20 17 15 8 -9 -22 -19 5 -16 -16 -8 -2 -1 8 13 9
87 81 81 85 91 89 87 87 97 97 97 84 70 61 43 -27 -21 -8 -4 -19 -2 1 6 9 12 14 19 20 17 11 4 -2 -12 -20 -8 0 -21 -7 -12 1 6 5 14
65 57 75 76 77 78 84 86 88 94 92 85 65 61 15 -58 -36 -24 -24 -12 0 5 8 14 17 12 16 21 13 0 -4 -4 -2 -11 -16 0 -7 -10 -10 -2 5 7 10
50 57 63 75 89 83 82 81 82 89 89 88 74 76 -28 -61 -33 -26 -10 -6 3 14 19 20 18 14 19 18 7 6 6 5 1 3 -4 -16 -10 -16 -9 -5 -1 7 12
46 53 62 79 85 77 76 76 79 82 87 82 71 71 -5 -57 -49 -30 -7 1 13 21 23 26 23 18 18 17 19 16 11 12 11 10 9 -4 -12 -20 -15 -5 -1 2 3
52 60 70 75 81 79 73 77 77 73 76 77 75 62 23 -57 -59 -34 -4 5 14 25 32 34 37 39 26 20 17 15 17 16 14 13 4 -5 -5 -12 -13 -10 -7 1 10
52 60 64 71 81 81 73 70 77 78 73 74 69 65 41 -29 -54 -47 -18 -2 10 24 39 45 43 48 38 29 25 13 6 4 -1 -2 -5 -3 0 -5 -8 -8 -5 -1 5
50 54 57 60 75 80 80 74 74 80 74 73 65 60 51 28 -37 -45 -31 -14 2 17 34 42 38 32 26 31 34 29 20 20 14 2 -4 -1 5 7 5 5 5 8 14
48 43 47 55 70 79 80 74 72 79 79 70 69 57 54 35 5 -28 -30 -22 -9 6 21 25 27 24 20 17 26 26 24 24 15 15 -3 2 7 10 5 14 24 20 29

GFSGL_con_3kmhel_024.txt.gz
Helicity
122 105 85 107 107 102 86 85 116 172 243 273 268 237 157 97 108 95 95 91 89 74 57 45 47 43 33 25 4 4 7 25 23 49 62 67 71 67 75 81 74 62 65
90 100 116 134 127 125 137 150 154 159 157 160 142 100 43 24 10 10 32 45 41 53 56 59 54 59 58 51 49 42 50 53 59 42 55 74 71 72 73 68 68 78 86
75 102 133 137 113 119 133 131 130 95 66 60 52 72 86 73 69 70 73 81 80 72 61 57 51 55 53 58 61 70 80 81 81 82 65 71 74 74 77 78 81 78 77
71 71 87 107 128 128 120 76 70 65 79 95 81 85 92 95 95 102 89 75 64 59 59 57 60 62 60 61 65 70 69 75 83 98 97 81 81 73 80 82 76 72 74
71 81 123 160 120 172 172 107 85 78 101 92 87 100 91 83 104 112 73 64 60 57 58 64 67 79 90 84 94 87 87 90 97 115 113 86 88 100 93 77 81 75 86
106 136 161 172 122 116 112 113 114 87 83 93 93 93 76 83 173 101 76 70 63 63 68 66 61 42 38 51 60 66 77 96 110 125 111 98 73 79 87 95 89 78 67
123 139 154 155 151 154 137 129 115 104 99 88 80 83 79 78 166 99 83 72 70 62 59 49 42 47 62 60 59 73 71 63 78 66 67 66 60 69 73 78 82 82 66
104 122 140 160 152 136 118 115 101 91 82 81 83 88 90 96 133 93 78 62 69 50 41 31 37 35 40 56 49 48 47 48 59 88 83 65 62 77 71 72 68 69 70
97 106 122 119 102 96 92 86 84 83 83 89 98 96 89 88 111 80 65 61 53 45 37 30 16 12 16 34 35 34 32 33 36 58 57 48 39 32 33 65 84 83 74
96 94 112 104 88 84 85 78 83 75 85 109 95 82 89 76 93 82 80 72 57 53 40 19 12 8 25 22 25 26 10 -26 13 15 9 28 49 39 38 54 58 60 51
97 103 101 93 90 85 76 74 73 81 91 103 76 64 51 75 63 62 70 74 68 41 15 7 3 33 54 14 3 -29 -36 -12 6 13 23 30 36 29 26 51 55 71 55
114 111 105 101 97 83 76 73 82 79 85 91 77 71 76 82 65 56 54 42 42 9 -14 -21 -8 5 1 -4 -22 -22 2 9 4 10 16 28 32 33 32 41 50 53 51
118 113 102 95 90 78 74 78 80 77 90 101 90 88 89 69 66 73 28 30 0 -26 -29 -15 -10 -13 -12 -29 -33 11 11 -7 3 10 15 6 6 15 17 25 33 29 22
110 110 93 86 98 74 83 93 86 90 109 100 98 101 83 71 71 63 39 -13 -7 -19 -16 -16 -22 -21 -23 -23 -2 3 2 0 3 7 8 18 28 30 26 24 29 36 40
109 97 77 89 81 76 81 83 81 89 127 107 109 96 87 80 71 34 -34 -27 -20 -8 13 -15 -15 -12 -12 1 13 9 3 7 11 18 17 17 10 9 22 35 35 38 51
104 76 82 77 78 82 72 68 122 119 111 115 107 100 91 77 47 35 -9 1 0 11 -13 -13 -1 5 10 19 22 21 4 4 15 28 23 21 -7 -7 -10 12 32 31 20
106 71 69 72 65 72 66 67 68 97 131 128 121 88 88 61 55 -13 1 0 -8 10 -9 -4 6 15 23 30 32 32 16 -1 5 11 23 19 -17 -34 -24 -21 -13 13 33
70 70 57 56 65 66 62 67 73 81 85 89 145 107 83 58 32 -21 8 -11 -17 -9 -8 -1 11 20 26 35 39 36 30 15 -2 -9 13 19 -1 -32 -40 -35 -25 -20 -14
52 51 56 59 62 67 61 66 70 77 80 84 89 104 81 52 31 -35 -4 -8 -5 -7 -3 1 6 14 19 30 39 36 28 17 10 0 -1 14 13 4 -22 -31 -12 -9 -6
42 47 41 47 61 70 70 70 65 73 70 81 86 81 63 32 -41 -36 -22 -11 -3 -1 2 6 7 8 12 25 30 24 18 14 16 11 2 1 13 3 3 -10 -17 -8 1
41 42 56 49 66 73 74 69 68 68 69 73 85 105 68 23 -46 -40 -26 -11 0 8 12 13 10 10 14 24 20 20 19 14 8 9 11 3 -2 12 7 -2 -4 -6 -3
38 42 48 65 76 75 77 67 63 65 68 69 76 94 79 36 -37 -50 -32 -14 -1 10 17 23 23 21 22 24 22 18 16 16 17 18 17 16 14 6 -2 -3 2 1 1
38 45 54 70 76 76 72 71 67 63 67 70 73 68 59 49 -18 -38 -37 -21 -8 8 20 29 40 44 39 30 24 21 22 25 23 23 26 23 14 9 2 0 1 -1 -4
34 43 48 60 68 66 68 71 66 73 69 64 67 69 62 51 23 -26 -29 -20 -14 1 15 25 32 43 41 35 27 23 22 23 18 17 12 14 14 11 9 8 2 5 1
40 41 47 48 52 66 71 73 68 68 65 66 66 68 65 53 35 10 -16 -23 -19 -11 0 9 24 30 27 28 29 33 30 32 24 18 4 12 13 14 19 16 14 17 19
39 44 40 40 49 60 68 73 71 71 71 66 68 66 64 61 42 28 8 -8 -12 -9 -4 1 9 18 19 18 23 24 24 26 23 26 10 14 17 20 18 24 31 28 34

GFSGL_con_3kmhel_027.txt.gz
Helicity
120 110 111 123 119 146 141 177 171 236 207 176 129 120 103 80 67 54 42 39 46 63 73 57 54 67 93 96 76 70 47 11 17 60 63 62 66 80 91 116 118 92 77
122 115 112 102 123 153 238 218 175 153 107 110 79 57 76 90 76 79 83 94 96 80 85 98 77 63 68 63 67 70 81 74 87 54 54 76 78 86 104 115 112 94 98
87 83 89 105 172 158 149 124 133 91 72 55 87 106 110 127 111 137 122 119 124 104 88 74 63 57 58 64 75 80 80 83 96 80 59 72 77 88 88 96 100 100 97
81 78 99 196 135 186 186 179 138 117 108 59 48 86 102 123 112 99 126 119 83 69 65 61 58 60 65 72 73 82 82 86 78 78 74 73 77 63 79 87 85 91 92
79 92 158 156 106 98 101 97 92 95 116 97 97 100 106 102 112 188 143 99 68 64 65 64 67 92 112 80 91 86 87 92 92 85 79 76 97 112 94 92 102 115 125
107 162 224 157 144 139 125 106 131 126 121 104 89 92 94 88 221 185 135 106 81 73 75 71 72 75 51 43 21 25 57 78 84 100 88 74 73 86 77 72 81 84 77
133 148 146 123 152 156 151 135 110 100 90 84 83 91 102 93 215 159 120 93 86 74 71 71 65 58 67 69 113 82 57 51 72 69 60 58 57 54 60 66 68 74 70
153 194 192 161 115 96 119 108 116 88 86 87 90 114 107 98 171 140 112 77 84 72 76 70 65 55 54 54 44 40 38 39 43 72 69 54 54 60 70 68 69 66 64
141 210 131 59 126 119 120 119 87 87 87 89 109 115 95 82 128 127 88 95 94 78 65 68 54 34 24 35 43 30 30 25 26 39 42 -25 -20 -2 25 53 66 80 72
127 171 132 133 143 121 124 93 90 86 88 122 126 83 71 71 77 88 74 92 85 77 63 46 33 18 16 27 39 29 3 7 34 14 4 -2 -4 31 62 66 58 49 48
113 204 171 145 140 149 109 87 80 77 92 168 106 87 73 84 96 69 84 88 77 60 47 38 30 38 26 -9 -9 -17 -5 5 -11 -4 -1 5 15 23 34 47 72 64 42
201 199 156 155 168 121 88 74 66 77 105 122 105 100 102 107 71 98 114 69 61 65 12 -11 -15 7 -14 -6 -12 -11 -8 -9 8 12 5 7 11 -4 -3 9 32 58 72
172 150 142 163 131 82 82 69 80 85 100 104 106 106 113 99 86 105 87 46 40 -16 -34 -26 8 -15 -4 -7 -18 -6 20 20 3 9 8 5 2 5 16 18 12 21 31
144 144 155 139 142 83 72 69 92 94 103 100 100 118 117 92 92 102 70 59 -11 -20 -21 -2 -7 -20 -2 3 3 5 8 10 9 9 7 18 24 14 20 19 4 6 32
171 192 128 137 91 89 55 77 75 84 128 107 109 123 117 95 88 57 62 -9 -26 -10 15 -4 -21 -14 2 4 10 13 20 16 13 17 32 36 29 15 -4 2 25 16 7
185 134 132 127 85 68 60 61 100 105 125 115 128 134 109 96 59 52 -18 -3 1 10 1 -19 -10 -4 9 19 24 31 14 -2 2 21 29 32 27 25 -17 -3 -4 25 21
147 128 102 66 59 64 71 72 76 96 112 96 142 129 131 79 60 27 -25 7 -7 -9 -16 -13 -7 -0 13 28 24 23 23 19 11 7 21 23 26 35 -7 -17 -25 -16 -6
89 64 41 48 62 68 73 78 81 81 81 73 147 141 147 82 65 58 -34 3 -16 -15 -14 -11 -7 1 8 21 32 32 36 21 9 -0 1 25 35 43 29 15 -5 -17 -19
79 41 53 47 57 66 68 73 82 82 85 75 80 129 146 73 70 74 -36 -28 -10 -6 -7 -8 -6 -0 6 18 30 34 34 15 17 12 -2 17 39 47 35 32 17 -6 -11
38 65 51 47 54 66 77 82 87 85 80 80 78 93 108 68 54 -9 -42 -30 -15 -7 -1 2 3 6 15 24 24 21 26 14 9 18 21 18 32 26 37 40 38 23 12
48 48 51 50 55 74 87 82 93 86 82 77 79 139 108 84 50 -21 -50 -34 -18 -12 -0 7 8 12 19 25 27 24 26 24 22 22 19 40 30 20 34 26 23 25 25
48 46 46 49 61 75 84 82 92 88 79 78 79 104 102 70 62 5 -38 -34 -24 -18 -6 5 12 19 24 26 27 27 25 24 25 29 31 41 35 19 30 20 16 15 15
41 39 41 47 55 67 71 83 91 88 84 78 80 84 79 86 78 30 -23 -22 -21 -21 -6 -0 11 24 28 26 22 23 27 31 28 26 26 32 31 31 25 19 19 18 20
37 37 41 47 49 52 64 74 90 90 89 82 79 82 81 83 74 62 36 2 -27 -19 -12 -8 1 21 29 27 22 20 19 20 17 21 22 21 23 27 23 22 24 24 24
46 38 39 42 34 38 46 67 84 89 89 91 90 92 85 84 74 73 47 28 2 -25 -11 -11 -4 7 23 26 28 26 23 23 17 18 15 15 22 27 22 22 28 27 33
47 42 44 44 39 48 57 64 72 84 82 91 96 103 94 77 73 74 66 40 24 6 -1 -2 -3 -0 5 13 28 27 23 21 18 20 16 16 20 22 23 26 36 30 37

GFSGL_con_3kmhel_030.txt.gz
Helicity
237 172 149 137 136 157 218 247 234 175 163 138 140 128 77 68 62 74 94 107 81 104 120 109 108 97 111 105 96 96 102 106 111 78 61 56 47 56 71 87 133 139 119
155 133 133 137 150 203 187 200 150 150 137 155 142 111 96 89 85 103 140 140 127 164 146 124 116 112 108 81 74 73 74 69 70 47 52 60 39 49 48 55 64 80 103
117 151 117 124 230 213 189 212 160 157 145 138 106 100 82 49 73 141 124 144 230 174 122 92 85 79 77 75 72 77 79 81 82 65 43 54 50 39 43 51 66 82 90
111 103 92 194 232 159 175 144 126 110 118 134 134 125 119 115 113 143 180 159 140 104 61 79 78 81 82 88 109 85 73 78 79 80 69 69 65 54 74 77 97 92 101
100 107 137 265 262 160 154 122 136 156 173 146 118 119 112 104 165 158 156 126 91 73 58 66 79 76 71 87 95 95 85 94 91 74 62 71 91 85 87 73 78 71 78
100 152 128 246 281 177 172 145 133 140 146 144 136 118 121 141 186 170 137 85 72 68 55 66 83 74 78 109 70 97 125 106 94 77 43 29 19 23 29 37 32 45 45
139 126 178 286 353 178 124 107 137 160 163 149 125 121 156 163 165 142 113 61 64 66 95 98 83 84 83 83 74 64 23 18 36 56 47 47 53 59 56 58 63 72 72
209 211 208 336 288 158 136 157 184 189 156 137 115 169 145 111 129 128 76 75 78 94 108 83 80 61 53 58 59 57 61 60 52 57 75 76 76 71 56 63 64 59 58
211 110 209 140 283 190 199 217 226 165 135 126 150 147 111 87 78 95 115 108 96 90 85 84 71 61 50 63 43 23 21 26 23 20 33 30 17 20 41 67 63 82 67
112 222 223 189 104 181 236 258 183 131 123 155 130 108 78 97 99 94 95 125 125 96 70 59 40 47 63 73 39 7 -12 -8 -11 -12 -7 0 3 8 11 59 81 26 53
107 78 56 200 146 182 272 253 132 119 144 145 104 58 82 108 112 73 138 124 115 93 76 58 51 22 29 -25 -52 -59 -45 -30 -19 -10 -5 15 24 26 32 18 32 73 70
86 106 173 144 144 211 217 162 132 134 145 131 87 75 106 114 113 118 128 130 88 89 59 37 -39 2 10 -9 -12 -11 -8 -23 -16 14 36 34 15 2 -11 -32 9 40 74
68 80 110 178 200 213 222 142 121 121 135 106 89 96 112 122 120 143 97 62 63 49 -20 -14 23 48 -11 -15 11 18 12 34 77 27 8 8 -5 6 10 8 14 7 35
93 194 190 185 138 143 168 104 103 114 102 109 114 119 124 116 111 109 86 88 18 -26 -11 29 66 -40 -26 13 8 7 28 5 6 6 -3 21 31 7 2 37 1 13 6
131 126 85 99 138 173 100 73 82 102 114 127 124 136 131 130 113 77 94 68 -33 -8 14 29 -42 -40 -20 6 10 19 22 4 0 13 22 21 13 14 10 12 23 23 30
109 93 89 85 140 63 55 66 96 84 96 97 95 126 120 101 82 53 57 -25 -1 -2 -4 -34 -35 -30 -14 16 2 11 32 34 22 28 26 8 9 13 29 31 0 -4 23
108 77 88 95 53 56 59 70 74 73 85 75 82 120 112 99 73 62 23 -26 4 -10 -26 -26 -30 -21 -13 -3 1 20 36 35 12 20 24 23 19 37 48 5 27 35 30
102 75 72 48 50 58 68 74 85 91 89 93 100 127 133 106 81 78 33 -22 -30 -6 -18 -20 -23 -17 -15 -6 15 43 64 17 1 16 23 32 52 77 26 18 29 35 42
92 67 62 40 50 62 71 76 87 93 97 96 87 139 156 119 72 93 40 -16 -40 -19 -16 -14 -19 -17 -14 2 24 28 35 10 -9 7 20 46 80 40 39 26 31 44 28
59 74 64 47 52 59 70 83 88 99 103 96 92 107 132 79 87 78 46 -6 -39 -30 -23 -7 -6 -8 -1 16 22 14 11 3 4 8 26 56 93 31 49 25 29 42 34
47 79 53 40 50 61 72 78 90 101 108 105 96 136 121 95 80 87 53 8 -29 -34 -25 -14 -1 0 5 23 25 24 10 5 12 20 36 67 83 33 48 26 9 23 19
58 55 52 51 57 63 64 77 88 104 114 113 106 125 117 101 101 106 87 46 -4 -16 -14 -15 -7 0 7 19 23 20 17 16 22 30 35 60 58 31 55 30 20 7 16
57 52 46 53 58 58 62 69 85 96 102 119 115 111 113 112 113 109 112 83 37 -5 -5 -15 -14 -7 1 10 12 14 16 22 31 31 27 59 46 22 39 27 23 36 14
58 57 50 48 56 60 54 59 77 96 108 115 117 121 123 120 123 109 109 101 79 33 16 -6 -17 -8 -7 4 12 11 12 13 17 22 24 52 22 19 31 19 35 57 15
66 67 56 47 50 53 51 57 66 78 100 108 120 119 142 125 117 110 115 108 95 63 50 7 -4 -7 -9 -5 19 15 14 18 14 13 23 25 18 14 27 22 25 37 24
67 73 62 57 57 52 52 60 76 88 96 100 104 130 142 137 120 118 114 107 94 86 50 44 10 5 -11 5 16 15 17 15 17 19 24 4 9 9 13 26 28 23 38

GFSGL_con_3kmhel_033.txt.gz
Helicity
394 231 159 123 147 175 160 148 138 125 162 164 158 130 111 106 99 124 121 123 116 114 154 145 108 97 80 71 90 83 78 84 100 55 64 32 36 42 48 50 56 -26 182
273 150 119 141 202 185 184 163 115 108 139 138 121 121 128 131 124 120 111 138 181 180 168 140 106 73 33 60 85 74 66 50 55 34 -5 6 3 -4 -9 1 41 40 4
164 151 141 159 224 209 206 168 49 82 108 91 101 94 98 86 79 103 141 154 151 119 98 80 53 33 47 71 85 91 96 73 64 34 -2 -25 -32 -7 -7 -28 -22 -4 37
146 133 100 171 222 243 221 146 76 72 87 85 92 100 104 102 146 141 134 119 102 84 54 42 40 43 73 94 99 101 97 101 74 50 27 -21 -39 -30 -1 -12 -2 30 77
180 146 115 227 320 320 270 200 104 134 157 141 143 123 128 181 153 121 99 67 30 21 20 21 31 56 85 111 129 117 92 80 68 70 54 27 4 4 8 -9 -17 -3 3
190 157 180 259 345 264 264 199 119 123 191 189 160 171 202 137 113 97 63 34 30 30 24 36 57 72 95 130 115 79 85 75 56 40 20 11 30 22 41 45 19 -17 -50
203 152 141 172 329 319 274 211 131 164 229 206 189 223 144 97 88 59 52 77 85 90 84 85 80 79 87 86 72 74 62 36 28 19 -17 -4 25 51 63 61 60 45 38
189 195 210 168 246 247 158 163 158 226 204 173 223 159 120 83 60 48 86 128 114 95 88 89 86 83 81 75 67 61 61 53 50 52 34 28 31 44 67 49 61 47 45
131 136 115 87 106 125 183 233 96 192 189 197 176 127 88 45 30 79 106 113 99 91 83 80 63 65 50 63 79 51 43 34 35 24 21 30 12 -7 9 47 61 47 35
158 169 103 41 72 101 99 37 129 143 214 215 128 100 42 28 72 91 145 115 112 101 87 63 37 31 24 45 27 -15 -36 -23 -36 -21 -15 -13 -15 -7 2 25 51 58 52
162 129 88 56 113 104 43 132 173 195 192 141 85 31 22 78 94 130 162 134 117 116 82 63 48 -1 7 20 -4 -45 -21 -13 -10 -15 -6 4 17 35 45 38 98 104 31
125 40 51 72 94 89 174 201 153 171 137 75 59 33 61 77 83 123 106 89 106 116 72 36 40 46 31 -8 -14 14 6 -19 -1 32 41 64 82 53 20 18 5 -20 4
74 64 92 101 76 89 122 136 129 101 74 56 59 67 76 70 83 96 65 59 67 63 42 27 37 10 -23 -18 37 39 34 26 7 23 20 8 25 50 50 16 45 2 10
90 66 95 86 66 106 126 113 69 68 66 68 80 84 86 86 84 84 85 85 66 57 57 51 39 21 -29 1 9 18 22 12 -7 0 14 25 21 19 15 17 18 22 -9
96 72 86 80 115 114 76 41 61 51 62 71 87 108 105 91 87 65 67 61 20 -22 39 45 27 -38 -18 -8 -17 18 36 39 22 38 34 17 25 30 27 40 19 -1 0
84 67 91 90 90 62 34 49 69 62 59 67 73 120 102 90 63 27 68 26 -2 12 10 7 -22 -28 -21 -17 -7 27 43 51 15 35 45 28 28 43 53 53 4 5 3
79 88 89 97 52 31 33 49 39 56 57 54 51 58 90 84 44 51 82 49 5 13 -7 -11 -22 -19 -23 -19 -8 11 38 46 6 19 28 53 82 109 67 33 32 39 55
94 74 85 61 39 38 44 58 66 66 64 75 63 77 112 77 39 101 83 71 -2 -22 -20 -16 -14 -16 -19 -10 6 29 47 15 3 18 28 67 105 112 62 37 39 45 43
70 62 69 49 36 38 47 58 65 62 76 90 84 93 100 73 66 92 98 79 22 -37 -45 -19 -11 -12 -7 3 20 29 22 8 5 12 40 62 94 92 89 53 42 49 35
48 58 69 48 40 41 49 57 60 60 72 88 93 106 121 108 81 75 75 85 48 -17 -41 -35 -15 -3 0 14 26 27 13 12 20 24 44 57 73 75 76 76 34 21 27
71 60 45 44 46 51 55 61 57 69 81 89 98 121 127 123 92 96 96 92 79 18 -26 -34 -25 -14 -10 14 24 29 27 19 19 27 40 55 56 76 55 58 40 42 14
67 58 52 54 57 57 56 62 75 77 86 96 99 123 126 132 117 113 122 102 84 65 29 -20 -25 -19 -13 2 13 18 23 25 27 29 32 44 52 61 34 34 33 33 26
59 60 61 58 58 55 58 62 64 80 96 95 113 115 139 136 136 136 129 106 100 85 64 25 -19 -16 -20 -12 0 9 16 19 19 19 27 37 40 35 25 31 41 34 26
73 66 72 66 59 55 59 60 58 64 85 95 98 110 126 135 144 132 123 110 111 93 94 54 6 -5 -17 -12 -3 -4 4 7 7 10 18 23 33 26 24 26 43 38 26
90 89 89 76 66 53 48 45 50 59 72 91 93 106 121 134 133 124 132 125 110 104 93 74 41 17 -12 8 8 3 11 22 20 12 16 13 15 24 28 19 21 26 22
120 102 94 86 77 64 62 46 38 46 64 80 87 95 104 119 119 124 141 142 123 108 90 86 61 41 23 36 8 15 10 15 26 31 23 4 4 10 15 12 22 17 27

GFSGL_con_3kmhel_036.txt.gz
Helicity
229 197 165 146 112 124 123 121 116 86 74 67 48 104 119 121 108 104 84 66 85 123 151 158 146 123 91 73 49 73 69 100 102 58 32 -0 8 32 53 39 8 6 -10
121 142 100 102 137 197 114 130 165 146 102 63 89 106 134 146 164 127 124 136 133 139 129 110 92 88 72 60 61 49 81 106 126 92 56 35 16 12 -6 -3 33 39 16
131 104 113 125 160 175 149 200 192 169 121 84 76 98 116 160 178 154 137 126 114 102 79 64 52 48 55 67 77 90 100 105 140 125 72 30 -13 -14 -30 -19 8 28 60
104 118 141 136 165 217 198 225 205 177 181 148 110 128 178 178 182 168 143 112 70 45 31 35 45 56 73 86 96 113 111 103 103 93 62 31 24 1 -6 -0 -6 7 32
132 145 145 160 169 186 164 170 167 188 308 206 129 203 184 193 192 153 104 65 40 36 51 56 55 64 74 103 148 133 130 118 102 85 60 40 30 24 19 25 28 25 39
189 188 179 176 182 186 152 167 115 295 205 133 202 167 184 187 155 101 69 58 57 68 86 92 92 73 79 80 81 111 118 112 94 82 56 35 19 12 4 15 33 47 21
128 141 143 144 90 67 90 129 190 99 23 181 156 191 174 129 90 70 65 85 95 99 107 105 96 100 92 87 85 76 78 75 90 81 52 36 11 29 32 21 43 53 59
135 101 86 60 42 54 83 138 118 109 62 120 176 181 161 119 91 75 78 98 109 121 107 95 96 87 80 77 87 88 98 90 81 85 64 37 31 33 29 22 38 60 62
138 110 80 62 60 123 150 106 111 64 56 150 150 168 130 86 76 109 108 105 109 105 89 94 82 80 57 41 67 52 37 43 46 27 32 32 19 5 7 11 19 43 47
117 82 48 41 65 111 96 72 29 108 171 153 144 112 75 69 97 115 111 78 89 86 92 75 42 29 5 4 33 61 58 27 29 24 12 -2 -6 -15 2 15 38 38 67
124 80 33 48 57 89 114 60 162 194 151 132 94 64 55 84 87 103 89 82 103 101 96 85 77 36 29 34 32 38 -17 8 12 15 32 27 16 7 8 11 34 57 65
137 97 80 60 89 112 106 137 148 145 118 73 73 57 59 85 104 82 71 64 69 108 108 87 101 38 31 27 42 50 49 14 -7 23 38 52 54 48 33 27 22 13 15
158 127 73 74 91 98 124 155 136 101 68 56 68 72 71 83 77 64 40 48 51 93 96 48 55 38 34 45 19 32 24 11 -4 -6 4 10 23 39 50 40 28 34 -17
169 114 59 77 86 155 126 109 81 65 64 60 71 79 84 90 77 63 62 68 46 53 44 44 46 45 49 -1 -13 22 31 35 6 11 18 21 21 9 19 35 19 36 8
138 105 80 88 90 97 100 52 41 40 53 69 79 99 109 93 74 45 49 71 70 55 19 31 38 26 -29 -33 -14 21 28 27 17 43 37 26 21 35 40 62 19 14 -7
118 114 96 100 107 92 55 60 57 48 49 55 63 119 100 90 48 27 63 79 56 60 19 10 12 -2 -29 -28 -15 5 11 18 12 25 32 37 48 75 65 54 14 4 8
96 111 87 90 76 56 48 49 49 67 59 51 66 71 94 88 51 41 64 77 69 50 11 -8 -5 -12 -25 -24 -14 5 17 16 11 24 30 61 95 104 70 46 31 22 31
89 79 76 68 55 42 45 47 51 57 40 49 55 76 99 85 50 63 73 79 67 48 -5 -29 -17 -18 -17 -12 -7 3 18 21 10 21 38 51 78 95 83 71 62 38 38
87 75 72 68 47 42 44 47 50 51 47 56 67 78 88 81 62 87 97 85 74 60 26 -40 -32 -21 -14 -8 -0 10 13 18 13 20 31 38 53 80 90 72 61 56 30
81 76 78 58 50 46 49 51 53 53 48 64 65 79 108 114 101 100 92 94 87 70 57 -10 -39 -25 -25 -9 -1 11 14 19 17 21 31 34 47 47 58 60 43 36 23
96 73 62 61 62 58 59 53 55 55 60 58 72 89 117 134 110 119 111 103 91 81 68 45 -23 -29 -33 -19 -8 4 13 22 26 20 19 29 34 45 52 36 28 25 17
91 66 66 68 64 64 64 61 60 58 59 69 69 77 103 134 119 114 122 110 88 87 85 70 26 -11 -27 -24 -13 -6 2 17 18 23 28 24 23 31 34 28 33 18 21
90 82 63 71 73 69 63 57 58 61 59 71 75 74 98 114 119 110 118 113 100 90 87 87 60 23 -6 -14 -16 -17 -7 1 10 9 14 19 22 25 22 17 19 10 25
102 93 83 80 84 76 69 53 57 53 54 62 69 77 83 96 111 109 105 109 114 98 93 88 73 55 17 7 3 -7 -11 -7 -1 9 16 15 18 21 17 14 20 16 27
122 128 121 98 92 79 78 66 61 58 53 62 71 82 73 79 102 104 93 109 118 124 101 83 75 61 50 45 23 7 3 7 6 7 16 16 20 21 18 12 10 9 17
140 151 147 118 103 96 82 89 79 67 63 67 72 85 92 93 96 94 96 115 118 118 110 99 79 65 72 65 35 22 17 15 19 23 19 12 18 21 17 11 21 13 15

GFSGL_con_3kmhel_039.txt.gz
Helicity
153 163 154 127 123 122 136 97 135 131 117 99 93 134 136 116 129 117 124 164 212 210 177 173 145 132 124 109 95 105 84 122 108 84 110 82 75 61 52 51 49 66 59
147 146 118 107 88 97 141 142 187 179 173 156 128 161 151 181 151 120 167 169 172 166 143 119 98 93 90 92 104 109 120 124 138 110 98 120 101 71 36 34 29 49 75
131 125 138 138 136 138 169 161 175 175 156 138 191 174 153 154 139 144 139 155 157 121 104 98 87 85 89 94 100 113 120 118 134 126 106 111 97 76 57 43 29 24 43
131 142 155 153 161 160 141 147 148 141 148 120 169 180 129 119 138 149 170 146 110 101 92 90 93 93 95 97 102 115 117 122 126 128 111 104 101 79 86 46 36 26 26
133 145 135 130 120 133 135 124 119 145 145 299 189 62 76 155 169 161 157 115 106 102 97 99 102 102 83 108 125 108 104 105 103 95 88 93 116 105 77 55 37 23 23
138 155 112 115 128 132 120 106 170 241 234 174 168 165 112 130 149 148 109 107 104 103 103 105 118 108 119 113 99 86 96 108 96 94 82 86 86 108 83 55 36 30 9
136 141 143 135 122 96 90 152 174 141 137 81 64 134 96 116 125 100 105 126 122 119 114 116 128 143 123 129 99 82 93 82 93 87 67 68 74 97 88 63 49 50 49
118 120 119 113 102 81 95 128 134 118 106 75 127 137 132 127 119 128 163 142 120 109 112 122 127 127 114 88 86 78 69 64 66 83 85 68 61 61 79 62 50 37 33
125 125 127 118 90 85 74 93 94 73 96 144 131 132 131 109 112 124 128 100 92 89 79 101 104 102 55 31 62 92 88 73 45 25 26 4 15 20 23 53 49 34 33
141 141 131 107 106 82 53 90 105 95 161 154 147 138 112 106 106 117 110 96 87 71 93 94 87 61 34 40 73 56 56 44 39 33 -27 -23 -10 2 7 7 27 36 40
154 167 156 125 115 99 98 132 159 172 160 166 131 94 107 110 98 112 97 90 82 83 97 109 108 42 44 35 37 61 46 23 2 -13 -1 5 9 7 3 1 15 38 38
151 174 168 133 101 101 117 129 132 136 133 106 88 81 96 102 104 97 85 72 68 98 96 105 80 32 29 35 43 25 22 24 -17 -15 -6 6 10 19 27 26 15 17 29
144 172 167 121 82 99 155 155 142 120 91 68 76 87 89 101 108 77 64 58 58 83 87 72 46 35 36 52 34 29 35 16 -7 -15 -6 -5 4 6 17 17 21 11 3
133 130 146 117 110 116 110 103 108 72 62 59 72 78 91 111 104 97 91 66 52 72 70 69 43 47 53 56 69 49 26 11 -1 12 17 16 11 11 23 20 22 41 21
118 104 136 123 110 131 116 93 69 62 69 69 75 90 112 104 101 72 71 78 65 68 77 67 24 29 32 20 1 -1 -12 -13 -2 22 20 28 33 42 53 50 18 16 3
109 105 132 120 127 109 81 65 60 53 43 53 51 86 95 100 76 60 77 79 65 62 74 70 16 3 9 -8 -25 -24 -16 -6 5 13 21 37 52 62 50 36 16 9 12
106 102 128 126 101 78 63 58 59 63 60 59 51 65 85 102 87 73 82 80 72 76 73 67 25 -15 -11 -17 -22 -23 -12 12 4 6 11 28 48 57 50 38 44 27 28
109 97 109 109 101 88 59 54 58 64 68 60 55 71 82 86 83 83 103 104 87 74 72 69 45 -26 -30 -16 -15 -15 -11 -2 5 -0 3 12 33 48 59 45 38 29 30
115 111 100 107 96 75 62 60 62 60 69 64 69 65 75 70 81 89 123 131 112 89 80 71 66 1 -37 -29 -17 -15 -12 -3 -2 -0 3 5 20 26 47 52 45 37 21
120 115 102 99 90 81 75 68 64 68 65 65 57 75 84 111 106 107 118 136 130 102 84 75 64 56 -24 -37 -27 -17 -16 -8 1 6 11 12 19 15 17 33 31 29 22
115 105 90 101 92 76 78 78 75 76 67 64 68 80 86 108 103 116 112 121 129 115 90 84 71 69 46 -21 -31 -23 -15 -11 -8 5 15 10 13 22 26 21 15 13 19
124 120 108 90 81 80 82 83 82 71 62 71 65 74 83 109 115 112 113 112 122 126 117 104 84 83 75 43 -13 -27 -23 -14 -13 -8 4 15 19 12 13 14 21 12 23
129 118 104 97 97 84 83 86 87 77 63 62 65 63 76 92 106 108 111 105 113 116 115 125 95 73 73 69 51 10 -15 -16 -12 -12 -7 4 12 18 16 10 13 15 25
136 137 126 119 115 108 100 102 94 81 75 66 62 68 75 85 93 99 103 102 107 103 116 125 116 87 72 69 67 47 15 -9 -9 -9 -5 1 12 18 14 12 17 19 22
173 142 143 145 149 147 126 117 110 97 100 96 77 75 76 90 87 90 90 102 104 112 106 114 115 103 79 65 74 56 24 7 -1 -4 -1 -1 7 20 19 12 11 9 13
140 149 151 155 153 158 147 133 121 112 112 110 100 91 83 78 86 93 101 99 96 98 94 102 105 100 96 87 71 59 41 23 10 7 9 12 15 19 18 11 15 8 11

GFSGL_con_3kmhel_042.txt.gz
Helicity
171 165 151 152 147 115 91 98 124 160 185 185 163 143 137 139 164 172 154 133 141 142 145 141 131 122 121 129 122 128 135 160 162 96 116 79 63 63 86 96 70 52 64
159 157 143 136 146 133 145 170 193 191 196 168 154 165 154 161 182 142 137 148 138 123 130 120 105 108 111 118 132 131 140 151 175 127 88 88 77 88 98 93 69 60 57
164 166 152 144 150 147 166 190 187 185 182 159 181 201 186 226 140 152 136 130 125 122 109 97 97 107 109 118 122 130 134 129 139 139 117 115 99 100 101 96 80 62 52
146 125 112 118 120 126 136 140 142 144 170 180 214 211 201 126 124 136 126 134 126 113 98 101 113 120 120 127 129 140 130 129 118 119 120 100 88 73 98 90 81 74 63
107 104 103 100 113 132 131 116 114 140 161 185 164 154 196 169 187 135 96 113 113 96 102 112 119 113 85 111 153 161 144 131 117 115 108 92 83 79 84 84 75 69 59
91 92 95 127 137 128 120 115 130 131 124 135 125 87 77 112 125 102 100 112 102 103 108 110 115 102 119 117 116 99 100 114 107 113 107 100 77 71 75 80 70 60 52
101 103 127 135 126 119 115 118 127 122 119 105 86 98 144 152 117 106 135 124 116 109 110 108 110 136 121 130 97 60 56 46 63 81 89 89 73 63 52 57 65 62 67
120 121 118 130 134 127 131 115 101 94 95 73 94 137 148 126 119 125 125 118 108 97 96 97 111 117 114 90 79 98 103 88 77 80 83 93 96 66 47 46 55 81 62
123 120 134 149 156 145 141 123 110 109 112 96 120 141 141 114 111 129 126 110 97 81 73 86 96 118 88 48 75 75 61 63 45 15 20 28 37 -6 3 35 6 78 73
126 121 141 170 183 152 142 117 123 135 152 170 138 142 109 110 104 113 116 116 102 88 82 85 83 101 65 45 71 68 66 48 25 19 24 38 33 25 21 -10 -9 -9 24
119 121 137 177 180 147 129 127 131 136 145 142 124 100 92 103 100 110 102 120 108 97 93 96 106 65 37 35 42 61 50 35 26 9 -13 -14 14 39 47 26 29 26 23
122 134 155 167 161 153 122 123 146 123 133 129 97 72 80 92 98 102 92 84 82 114 101 98 104 47 32 35 45 27 34 41 45 7 -22 -35 -17 -6 -1 10 38 54 61
136 129 124 133 136 134 140 144 133 125 115 70 71 71 72 87 102 87 87 75 87 103 93 73 66 50 38 51 38 44 46 43 24 -6 -11 -9 -2 12 22 13 20 10 55
124 116 128 132 128 127 133 118 112 101 77 68 67 70 70 85 97 108 116 101 85 90 81 82 80 55 33 47 45 49 45 29 18 7 7 18 18 22 31 29 21 30 30
120 107 117 120 136 145 143 119 99 80 83 78 76 84 87 80 98 107 97 122 103 93 90 86 80 64 14 21 14 15 36 24 -3 9 5 28 40 47 53 47 33 27 17
106 112 109 119 134 125 114 87 65 66 52 50 46 85 75 83 86 78 90 113 97 93 91 85 79 71 18 -2 -2 -10 -7 -8 3 6 -2 8 40 53 47 40 27 13 15
113 111 122 124 130 117 114 96 78 59 60 49 53 50 55 79 87 80 97 111 111 119 105 90 90 72 53 -18 -11 -13 -17 -15 -4 -13 -17 -8 14 28 35 18 17 15 17
120 109 120 120 131 131 117 91 81 91 68 62 68 71 57 69 81 80 93 125 118 121 123 106 92 78 66 4 -23 -17 -15 -17 -21 -19 -21 -18 -7 -1 17 21 18 12 20
132 134 129 121 118 115 109 101 95 93 84 76 73 73 65 55 64 79 109 139 128 121 121 114 100 89 74 56 -17 -32 -24 -18 -15 -11 -14 -20 -12 -15 -3 13 25 34 19
120 127 142 136 128 120 115 113 96 96 89 80 71 76 77 87 90 99 115 133 132 123 123 120 99 93 88 66 42 -28 -33 -26 -18 -14 -4 -2 -5 -7 -5 3 15 31 39
132 137 137 125 122 120 122 111 107 108 102 92 74 85 89 91 83 105 107 122 122 121 121 125 115 100 92 87 60 36 -27 -32 -24 -13 -6 2 13 9 9 8 11 17 29
147 148 150 139 129 121 114 113 105 106 108 102 75 67 70 89 89 94 106 110 116 123 129 134 123 121 102 96 80 62 19 -24 -25 -21 -10 -3 4 19 22 11 15 15 30
186 181 159 160 149 133 124 125 122 110 105 107 100 83 82 85 91 95 101 101 111 110 121 137 121 102 99 92 91 85 55 5 -16 -16 -17 -5 5 12 22 29 33 23 27
121 139 168 175 153 154 156 147 146 138 129 130 112 105 102 95 92 95 103 99 102 101 118 131 124 109 95 95 83 80 69 45 25 -3 -11 -8 2 10 15 22 29 27 30
126 119 133 143 162 170 172 172 171 164 149 142 135 130 120 110 99 92 100 106 106 105 101 115 113 102 92 87 85 79 62 35 28 14 5 -7 -4 7 8 10 20 24 26
108 113 122 135 139 160 159 159 160 157 162 159 147 140 133 120 110 96 109 130 137 123 100 103 102 95 92 86 84 89 67 43 34 22 21 12 3 10 11 12 17 11 19

GFSGL_con_3kmhel_045.txt.gz
Helicity
132 156 136 138 126 130 143 151 164 163 161 162 158 157 162 156 136 151 168 133 118 105 116 118 110 125 113 110 116 119 129 136 135 98 97 79 64 47 50 57 55 53 58
183 182 168 144 148 158 182 182 161 142 137 137 150 166 171 162 142 192 164 163 140 113 108 104 107 110 93 101 112 108 117 113 127 107 93 79 78 77 61 65 73 73 70
175 136 132 146 165 165 149 129 124 128 121 120 132 146 156 139 157 169 151 172 133 115 102 118 94 89 86 101 105 108 106 111 112 115 94 93 82 74 68 79 76 71 70
128 124 123 129 120 118 118 119 117 112 118 134 141 140 139 135 169 155 123 154 142 113 105 94 92 93 99 100 99 96 112 116 111 105 91 78 80 78 74 65 66 75 73
102 90 97 101 105 114 128 114 110 123 133 121 115 113 104 95 84 105 135 125 112 101 83 89 90 93 81 99 127 115 117 124 107 84 74 69 69 65 64 74 74 70 70
87 91 92 103 111 126 139 116 114 131 134 138 120 99 82 92 133 133 111 110 88 89 89 81 82 80 92 93 90 76 73 71 72 81 82 74 49 49 49 56 65 59 51
104 95 106 125 135 137 134 117 130 136 123 114 99 102 99 121 145 140 115 89 93 95 90 87 84 95 77 92 77 60 56 55 72 75 69 60 46 40 36 40 48 52 39
117 123 123 126 137 141 149 139 143 149 121 111 120 124 124 129 133 94 89 87 86 88 87 80 74 76 73 77 69 60 64 51 50 57 49 50 43 44 33 30 26 31 34
128 121 109 109 124 150 153 144 139 128 108 117 140 138 117 105 88 86 78 82 85 78 75 69 64 73 77 59 64 51 52 47 50 34 15 9 -2 11 36 17 37 27 26
122 109 107 121 147 156 138 139 128 115 124 139 152 123 108 79 81 86 81 88 81 78 67 61 63 70 52 56 59 60 57 46 35 27 25 5 4 4 41 40 12 5 16
111 115 131 148 148 142 138 124 110 134 155 137 126 110 66 62 69 74 80 91 87 80 77 73 74 49 39 42 37 57 53 40 34 39 27 4 -21 -25 -5 9 50 39 23
124 131 139 125 106 115 114 118 110 106 126 133 114 64 60 59 62 69 73 85 77 89 84 83 73 41 42 37 33 27 35 36 37 38 27 9 -24 -25 -9 7 29 41 65
132 132 119 95 93 111 110 109 107 116 110 101 79 60 49 54 57 67 72 76 78 96 96 75 64 52 49 46 21 23 33 40 28 31 22 9 3 8 26 19 27 34 47
142 125 103 89 94 101 102 112 109 104 95 87 72 56 49 48 50 70 89 86 93 93 93 85 84 71 72 55 22 26 30 33 34 24 24 16 13 17 23 30 30 34 60
124 108 94 95 95 99 103 106 100 91 85 83 69 58 48 40 43 71 77 82 88 103 97 91 83 77 67 61 33 11 11 9 14 30 27 -0 29 40 35 39 48 45 32
110 109 114 95 102 98 102 95 83 60 65 70 57 57 50 50 46 59 58 74 93 104 96 93 84 78 66 53 45 5 -0 -6 -5 5 19 -7 6 32 39 36 38 40 40
116 104 107 99 97 100 107 102 77 70 66 74 52 51 43 39 50 55 60 72 100 110 90 93 93 83 74 61 52 17 -13 -6 -8 -19 -14 -10 -0 8 20 21 17 14 13
121 115 106 97 94 102 88 93 103 76 54 57 74 80 59 50 48 55 62 79 87 103 97 91 95 89 79 69 53 43 -19 -16 -12 -13 -17 -15 -12 -7 4 19 15 13 7
120 114 113 112 112 107 102 98 98 84 75 68 66 77 78 64 51 48 59 77 73 75 87 91 94 95 84 77 69 49 29 -26 -18 -13 -7 -10 -13 -11 -10 -1 18 28 34
127 107 107 118 113 104 94 95 98 93 80 75 73 76 85 89 67 68 79 93 94 86 85 89 89 95 92 83 75 64 31 8 -25 -22 -15 -9 -4 -11 -11 -3 -0 24 30
148 116 109 127 125 109 108 91 91 93 88 88 78 83 95 83 58 63 73 87 94 86 89 92 91 92 91 88 81 68 53 13 -2 -22 -19 -12 -5 4 6 -0 4 9 14
139 127 110 113 118 122 124 123 104 98 98 99 89 79 107 110 85 74 75 75 84 88 94 98 95 91 88 80 80 73 59 35 5 -5 -17 -13 -8 -0 8 21 20 20 27
129 120 101 87 85 105 125 113 106 108 108 105 108 105 97 103 98 89 82 81 87 91 103 111 103 96 92 87 79 77 66 49 27 13 -6 -12 -9 -1 4 13 24 45 45
113 101 90 86 88 89 87 104 139 131 130 129 128 128 124 116 102 92 88 82 90 95 106 126 114 96 89 91 79 75 69 63 47 26 11 -6 -9 -1 -1 7 17 28 35
86 92 98 94 86 77 75 80 91 91 108 130 131 128 136 124 109 106 90 91 95 108 113 140 122 100 84 84 77 69 69 70 54 40 23 7 -4 -5 -5 1 14 18 26
83 79 87 88 80 73 67 62 64 70 79 86 95 109 120 139 119 103 112 115 110 109 123 143 122 106 95 81 75 74 78 70 58 55 36 22 12 10 7 5 11 14 22

GFSGL_con_3kmhel_048.txt.gz
Helicity
215 94 116 155 150 133 139 158 164 137 121 108 101 98 102 106 75 81 92 96 91 94 118 98 93 91 97 118 97 102 107 110 118 112 100 84 80 81 73 97 99 62 56
35 129 150 132 121 137 154 155 138 110 100 94 99 106 108 111 102 147 97 101 109 110 110 114 104 111 110 96 104 106 111 102 112 97 92 100 97 89 80 87 81 72 65
144 134 118 121 130 146 142 118 112 101 91 90 110 115 127 123 119 97 109 135 126 72 128 121 102 95 89 97 100 104 108 110 111 125 110 105 97 82 74 76 64 54 59
146 118 121 116 116 117 116 106 98 99 94 106 114 145 161 126 99 92 77 80 73 89 96 92 83 86 90 105 98 88 98 111 126 128 110 82 71 63 68 62 62 64 63
131 110 102 98 98 106 97 101 108 110 114 121 143 130 129 114 113 83 90 85 85 83 76 84 85 115 97 81 102 90 99 112 110 90 79 76 73 67 66 62 64 59 57
109 86 90 98 89 88 105 113 118 114 114 125 128 132 117 123 189 136 101 89 70 62 75 80 86 96 109 79 52 72 70 76 69 73 76 77 55 55 55 51 57 53 59
84 84 98 97 91 102 116 124 115 118 117 131 130 135 124 141 165 131 98 56 57 68 77 86 87 92 76 77 86 56 56 52 76 73 64 64 54 41 37 32 34 37 41
84 93 101 112 106 109 120 119 123 125 135 124 133 133 139 176 142 106 63 33 55 69 82 82 80 76 93 95 65 58 47 40 50 61 62 54 38 17 1 -3 6 12 17
87 94 109 110 101 112 117 125 110 126 105 127 134 114 130 127 119 71 29 45 58 60 70 73 85 66 97 57 61 59 37 42 49 50 37 29 23 11 29 16 19 18 6
93 99 98 99 110 120 120 103 117 104 110 134 144 132 134 91 104 53 39 51 60 60 55 65 97 110 74 42 60 56 39 42 40 25 24 26 23 2 8 7 20 12 -2
93 89 98 119 130 120 106 93 100 114 138 140 133 103 92 64 55 64 49 49 56 60 59 66 72 96 56 41 42 48 41 24 30 33 31 29 16 -16 -41 -53 -18 -3 24
88 98 116 124 131 122 95 88 110 126 115 129 125 90 65 63 54 54 46 51 60 57 58 68 68 51 46 42 47 38 10 28 41 36 30 24 5 -23 -33 -21 2 25 30
101 117 123 121 117 107 102 105 109 106 110 94 93 72 68 64 47 68 46 49 50 61 61 61 51 51 50 55 70 38 11 29 33 30 23 20 2 7 24 25 23 37 36
107 133 126 118 113 103 114 108 97 98 95 90 83 77 70 60 50 53 54 57 62 54 64 62 65 74 66 75 70 66 27 24 24 26 25 23 5 -4 15 6 28 37 83
118 125 105 104 106 112 106 99 104 88 89 77 71 76 72 62 66 69 53 53 54 67 65 58 64 69 68 74 76 72 42 12 5 20 21 19 5 29 32 34 44 64 57
108 111 116 110 112 118 100 100 110 105 84 77 59 64 61 59 48 50 47 34 48 64 52 47 58 67 68 68 70 63 55 17 3 -5 8 11 14 10 38 46 43 63 52
90 93 104 107 116 103 103 99 102 85 107 87 76 72 56 54 52 51 39 41 47 72 54 46 55 63 69 68 72 68 52 38 -9 -9 -10 -4 -13 3 16 32 40 46 47
87 97 95 104 102 110 110 110 97 83 79 62 83 90 72 70 66 51 50 59 51 79 67 54 51 61 65 70 72 72 64 37 5 -15 -18 -8 -10 -6 2 11 19 19 22
96 101 118 119 113 97 114 117 107 89 78 68 60 85 94 80 81 63 59 66 48 48 56 60 61 61 66 70 78 75 68 53 22 -18 -19 -17 -7 -8 -2 1 17 26 37
112 130 130 110 114 110 85 97 108 99 90 80 75 63 69 126 96 81 88 75 64 55 55 57 63 63 67 68 73 77 70 62 37 6 -15 -20 -13 -10 -4 3 11 22 29
112 115 123 125 132 131 122 120 104 101 97 91 87 82 78 69 68 77 71 83 83 62 63 67 65 74 71 68 64 69 70 65 56 16 -3 -19 -16 -16 -4 4 8 16 21
127 130 137 140 136 126 110 108 109 99 87 92 90 87 86 102 79 69 75 81 92 88 72 73 77 76 75 69 66 65 66 67 61 45 7 -5 -18 -16 -10 -1 11 21 28
120 145 135 123 112 93 99 89 88 95 97 107 99 100 105 125 125 108 97 87 94 101 95 88 80 81 97 87 71 65 61 63 67 57 34 4 -8 -5 -10 -3 5 15 33
111 125 99 97 102 87 88 92 83 63 60 73 87 100 124 135 141 140 142 132 122 117 114 112 97 86 105 102 78 68 64 68 69 60 48 28 3 -0 -3 -1 5 10 16
114 117 101 88 85 83 78 74 66 60 63 63 65 73 78 89 108 131 145 145 153 136 108 117 111 99 112 114 89 69 76 85 64 63 50 41 27 9 2 -0 6 5 15
112 94 91 85 75 66 64 59 52 57 57 56 66 75 77 78 76 92 126 141 150 145 113 123 114 108 117 99 91 98 94 83 72 58 47 42 42 35 21 14 12 9 12

GFSGL_con_3kmhel_051.txt.gz
Helicity
293 245 118 107 151 122 130 135 127 138 125 124 112 108 104 105 93 117 122 96 124 126 122 111 118 102 111 128 118 107 113 107 118 109 99 74 62 78 82 90 95 105 87
317 51 95 119 121 112 120 129 144 135 125 115 109 112 103 89 100 139 130 119 109 94 133 123 132 128 138 97 103 104 114 94 96 111 107 109 92 88 109 108 100 73 85
43 106 130 148 120 119 134 140 133 131 125 115 115 110 108 155 174 144 114 105 89 102 101 113 114 84 89 108 118 133 139 127 127 129 126 145 132 105 91 76 73 72 62
120 172 163 145 126 128 134 124 125 126 119 112 113 127 143 115 112 129 115 113 91 83 86 77 67 84 102 150 128 111 114 116 114 131 135 127 112 80 78 72 74 68 66
167 153 140 131 113 107 109 119 120 119 104 104 134 123 160 141 104 110 97 97 97 89 75 76 78 128 111 125 107 87 90 98 107 117 115 94 79 74 72 73 73 63 36
156 138 126 119 100 99 105 107 105 111 112 131 179 137 144 148 285 220 148 118 102 82 72 75 75 86 151 132 78 78 95 76 79 89 84 79 59 69 51 34 30 37 58
155 113 98 95 98 99 94 103 113 118 127 186 152 147 132 86 268 219 159 94 70 60 61 69 78 97 113 125 125 92 70 70 88 76 64 65 57 60 63 52 35 22 14
133 92 76 96 94 88 90 101 102 140 168 151 116 129 112 155 257 190 119 64 43 49 65 62 72 90 137 122 92 65 60 55 50 57 64 58 54 38 36 26 3 18 32
138 92 84 87 85 85 86 111 135 134 169 130 104 128 96 193 192 153 91 42 44 59 51 57 92 80 145 108 77 65 53 48 38 50 46 22 16 25 34 26 26 42 30
100 82 79 82 84 94 126 130 124 128 128 204 146 149 196 173 167 118 58 46 64 48 45 52 141 143 137 87 83 71 59 40 32 23 32 26 24 23 19 7 -4 -20 -8
88 73 74 83 80 107 118 136 95 110 192 167 136 115 111 142 130 93 76 53 46 52 50 52 70 132 79 62 66 68 69 44 30 41 40 39 33 23 9 -35 -59 -43 -37
84 80 83 85 96 108 105 122 109 154 158 162 150 115 98 101 100 117 86 56 49 56 46 52 58 48 38 49 55 59 46 39 49 35 34 34 33 12 -3 -11 1 15 19
79 68 98 108 124 114 122 144 161 169 146 142 125 105 104 108 92 114 99 63 42 55 48 50 43 38 47 57 67 55 55 50 39 30 27 32 32 7 0 -3 -24 -10 -16
68 74 109 118 112 100 114 141 152 141 120 116 98 98 96 85 92 87 100 61 36 49 42 54 54 62 71 81 70 70 86 71 53 27 21 33 30 13 -13 -16 0 9 52
75 85 101 127 128 127 118 123 142 113 145 136 111 105 101 92 87 126 111 87 81 90 81 56 47 56 57 59 68 75 73 77 54 31 6 16 27 20 -5 -17 32 53 50
105 112 126 158 158 144 129 126 117 114 95 124 109 102 99 80 61 85 76 70 62 64 68 56 49 62 61 59 62 67 70 75 68 39 5 -3 11 16 10 -5 37 50 65
115 124 134 147 142 142 138 134 128 115 116 116 103 88 78 75 60 57 74 65 52 75 73 48 53 58 62 58 61 67 69 84 73 50 9 -7 -2 7 25 7 33 34 36
139 144 153 160 154 136 130 135 134 140 125 109 96 89 84 75 70 64 73 77 71 86 61 48 53 61 59 54 60 68 73 72 68 57 25 -6 -10 -10 -10 -8 0 14 24
156 155 173 172 176 153 140 138 134 138 127 113 102 92 95 87 76 71 78 97 76 69 68 58 65 68 67 60 68 80 73 65 66 62 32 3 -13 -14 -14 -7 -11 10 30
159 156 168 177 178 151 148 149 146 137 134 124 105 103 90 102 97 104 108 102 95 79 80 67 71 78 75 71 78 83 69 64 62 63 54 13 -9 -20 -17 -10 -3 -1 11
182 172 174 136 135 131 136 132 129 140 147 136 125 115 109 94 90 87 90 95 97 114 101 86 79 88 84 85 82 76 69 58 58 61 53 42 7 -25 -20 -13 -3 7 8
241 219 171 155 145 133 136 116 104 95 95 107 118 106 111 135 118 106 94 87 83 82 108 114 89 90 93 89 81 92 77 63 59 58 52 49 30 -10 -14 -19 -3 6 21
291 262 177 137 115 125 136 117 106 102 92 88 83 90 94 120 132 123 124 122 123 107 116 123 124 105 115 124 118 104 82 62 62 70 57 47 37 22 -5 -14 -6 2 13
177 106 131 137 109 113 111 112 96 82 81 82 74 63 60 70 82 104 134 133 143 146 146 163 162 133 125 146 143 112 89 80 81 72 60 50 41 35 19 -4 -7 0 6
217 149 122 90 106 99 98 95 83 77 80 76 57 48 47 58 64 68 71 89 132 148 156 170 158 151 135 135 148 122 89 110 83 74 65 50 45 42 31 18 12 -3 8
109 140 130 121 123 128 121 110 97 85 91 69 50 55 54 53 53 59 67 67 81 120 149 180 147 133 120 130 124 120 127 162 109 89 60 49 47 44 44 35 33 16 16

GFSGL_con_3kmhel_054.txt.gz
Helicity
511 334 308 263 166 161 182 181 190 183 177 186 171 156 144 151 144 149 185 197 217 218 183 161 168 197 206 207 163 112 127 143 149 148 158 137 126 118 131 107 64 54 46
309 214 153 77 107 144 138 168 190 207 197 190 170 150 150 173 226 183 215 212 205 187 139 161 154 179 162 129 132 146 159 170 181 163 146 119 108 124 129 102 80 68 64
208 105 125 120 192 168 176 189 206 197 202 183 153 145 157 208 138 132 166 154 165 142 135 140 147 112 125 158 145 132 118 126 149 160 134 112 125 135 121 92 75 80 68
162 212 190 222 234 210 174 161 152 166 178 163 127 149 227 255 157 145 164 123 99 91 102 108 103 122 163 110 101 112 126 138 124 130 119 118 116 94 97 76 79 82 75
262 197 229 264 237 193 143 119 143 163 149 119 129 244 211 169 162 203 151 155 132 135 120 120 145 131 80 149 118 107 136 131 118 102 110 108 96 85 70 76 82 59 38
212 239 240 224 182 148 107 112 115 132 149 145 235 252 186 157 238 244 228 182 169 150 132 135 113 82 136 102 145 178 118 127 126 128 123 107 83 82 88 77 68 54 38
292 239 253 174 141 111 97 102 117 129 130 171 264 208 144 142 230 220 197 205 161 110 113 102 90 88 145 151 142 122 94 74 99 109 100 102 82 81 69 52 39 57 57
300 254 229 119 98 93 91 107 112 132 172 199 235 165 164 175 233 200 138 131 124 103 107 104 89 97 152 137 112 95 90 90 91 92 81 70 77 59 53 74 70 56 32
475 210 154 112 93 86 101 125 147 143 143 172 211 222 152 223 196 175 151 141 106 92 94 69 79 96 165 146 99 89 92 82 64 43 28 20 21 17 33 76 92 76 49
244 207 91 73 85 101 102 122 156 131 96 223 232 181 178 200 177 155 145 124 92 88 60 63 117 148 138 98 89 111 107 88 76 60 60 61 60 57 25 40 37 8 -14
112 120 73 103 95 100 102 128 115 141 172 230 200 136 135 138 182 144 123 119 100 91 84 73 100 106 76 63 80 114 112 97 73 86 79 54 53 49 38 26 17 12 -3
72 75 88 92 115 122 132 151 145 193 286 252 179 151 126 110 114 148 125 113 104 108 85 77 70 74 43 50 68 69 61 86 107 96 65 59 35 39 30 23 33 36 43
61 71 82 101 150 125 126 124 153 204 218 174 153 136 132 123 116 108 146 131 110 107 86 59 50 44 32 61 57 75 88 115 99 95 84 61 40 54 37 -4 -22 -15 -2
69 79 88 106 131 181 180 149 133 154 187 186 164 142 134 130 116 114 160 144 106 94 65 59 76 71 69 82 62 68 117 133 126 116 95 54 33 50 39 13 -20 -39 -37
81 98 118 139 158 215 187 172 159 130 119 134 155 169 156 133 124 145 143 168 167 136 122 101 75 67 73 78 74 80 94 94 105 113 86 72 25 5 22 30 5 -21 0
151 147 148 162 178 208 183 182 154 116 108 92 96 136 149 126 95 91 97 90 98 100 122 101 80 65 67 83 77 74 87 90 122 98 99 77 41 0 6 49 34 -14 33
160 171 192 194 214 220 195 200 174 144 102 106 119 118 123 119 90 77 64 79 101 103 134 129 88 60 72 78 80 77 90 108 115 98 95 78 52 3 -10 17 26 5 21
222 213 229 232 249 232 222 207 191 182 167 154 140 130 114 93 87 77 58 61 107 122 139 139 103 67 73 87 81 80 121 127 94 91 81 83 65 31 -15 -8 -1 -3 -4
220 242 263 244 250 241 251 229 205 180 184 189 140 129 136 108 100 88 80 122 121 121 127 144 116 84 86 101 89 105 123 106 91 92 79 79 67 38 -17 -15 -13 -11 4
223 239 261 269 284 271 244 200 181 171 176 220 198 162 141 173 160 137 146 140 132 117 100 91 114 108 118 116 114 120 116 106 82 76 80 75 68 61 -5 -24 -16 -10 -3
192 201 205 258 362 331 174 142 151 144 133 121 110 120 119 174 152 125 136 156 155 141 127 121 122 127 136 145 147 137 119 113 103 81 80 64 68 52 51 -22 -25 -17 -6
181 170 207 269 346 161 102 113 135 106 105 107 97 92 77 129 155 154 144 133 123 111 100 94 139 158 154 179 176 145 125 129 113 97 76 71 60 47 36 7 -20 -20 -15
158 160 179 206 159 128 94 122 110 91 96 92 89 91 95 80 92 141 162 151 138 150 142 125 112 152 169 198 191 176 171 152 131 112 99 89 50 39 45 19 0 -12 -14
123 116 141 176 170 133 109 85 83 76 84 74 85 85 87 81 70 63 63 70 107 159 177 186 164 158 173 184 209 208 193 162 166 177 139 95 53 37 46 31 16 10 -7
131 119 128 100 135 147 131 107 93 78 75 78 92 97 94 91 85 60 59 67 70 61 70 152 186 186 175 159 183 220 202 166 175 168 132 89 55 54 51 34 28 18 16
155 161 179 147 116 126 112 94 92 97 94 86 90 89 81 103 66 57 86 77 64 67 53 79 143 192 175 136 152 203 197 183 187 170 144 93 69 55 47 46 48 36 24

GFSGL_con_3kmhel_057.txt.gz
Helicity
571 516 406 306 254 240 147 174 200 220 221 210 188 172 152 185 202 190 178 165 187 218 223 224 209 191 212 201 201 201 202 200 148 87 81 70 80 97 108 116 107 83 47
489 427 286 274 237 125 144 200 232 239 221 205 190 169 151 212 187 174 164 145 158 166 173 179 189 163 159 179 187 152 120 92 92 82 78 73 70 89 109 99 76 67 69
351 229 233 195 227 265 235 233 214 189 176 185 168 135 160 210 202 170 130 125 145 131 137 145 136 141 153 129 113 95 59 68 79 119 123 115 92 102 101 101 92 92 79
254 292 287 377 263 213 220 186 165 154 139 138 133 157 219 190 166 127 137 145 163 137 108 117 129 160 120 112 83 73 89 98 109 122 117 99 89 87 108 98 65 67 47
356 418 441 321 271 255 304 176 139 129 108 129 154 246 234 193 153 142 156 194 214 209 165 159 189 130 116 85 116 107 109 97 104 104 115 105 87 89 97 85 70 53 24
463 438 375 296 310 267 256 233 125 93 117 151 205 241 203 164 167 162 193 225 242 172 171 179 180 158 123 152 143 118 111 89 80 122 119 116 95 90 78 42 55 33 12
419 395 323 304 242 264 148 87 79 114 152 179 184 198 163 153 164 188 190 180 172 136 129 152 153 140 130 126 122 108 84 74 101 125 114 105 90 74 72 69 59 82 88
447 430 386 355 123 80 63 74 120 144 132 125 136 183 213 170 152 160 165 166 130 120 143 130 112 104 111 111 98 79 67 77 95 111 129 98 89 80 94 92 81 102 117
578 505 269 105 83 44 66 79 111 136 123 131 167 215 210 162 126 137 174 165 132 125 103 88 97 130 110 107 82 57 59 78 78 77 55 46 37 33 40 75 87 48 3
507 162 73 44 45 78 83 81 120 139 144 170 197 198 167 143 103 125 162 160 139 121 82 82 112 102 96 88 65 63 77 77 90 93 94 76 73 72 40 77 63 24 8
105 129 63 58 78 107 136 107 124 156 169 254 255 195 149 140 136 128 126 160 146 130 103 96 102 90 81 50 43 92 105 89 97 103 96 112 68 64 66 73 54 38 12
79 46 52 67 88 137 122 117 131 145 199 224 200 171 142 131 107 105 107 127 134 157 130 109 80 82 59 44 57 62 50 80 118 114 118 98 83 52 50 73 39 16 27
70 60 69 80 96 121 158 182 163 140 173 184 210 188 165 133 120 89 101 108 116 163 150 102 53 42 39 48 37 41 57 105 122 123 125 110 96 65 17 27 34 18 8
72 71 76 95 108 142 206 201 183 173 174 178 181 168 161 161 145 138 133 134 114 153 133 99 84 72 68 71 64 53 83 94 119 127 128 105 90 69 27 28 43 25 -8
91 101 136 138 141 170 186 211 215 195 172 172 183 168 161 159 153 148 150 147 135 136 173 182 134 108 78 59 80 77 74 87 99 129 111 91 79 70 31 20 51 44 -16
150 166 176 191 204 213 220 213 178 171 170 122 92 124 160 142 119 137 131 113 100 109 169 185 148 116 94 65 66 68 67 77 113 115 96 95 78 73 37 3 24 37 10
191 214 242 247 257 266 280 288 228 194 139 112 96 85 92 102 118 100 100 91 90 80 160 170 154 129 101 86 70 89 81 85 122 110 100 79 74 76 56 -1 -0 15 22
159 191 252 285 307 315 306 278 286 272 211 177 145 123 116 87 77 90 91 72 112 109 119 141 154 134 122 92 67 85 85 143 124 106 87 73 66 83 68 1 -15 -1 5
171 194 220 243 258 269 288 257 317 303 227 188 156 139 173 117 86 83 89 121 147 143 140 134 149 136 117 99 98 92 122 130 111 100 89 71 62 84 62 33 -22 -17 -10
151 160 166 179 188 200 231 239 257 210 191 128 140 124 116 133 130 142 167 163 162 159 151 150 149 144 116 95 118 122 140 135 106 93 85 78 68 82 63 44 -9 -23 -14
171 184 175 175 152 159 192 299 212 145 114 128 171 140 111 119 103 98 194 189 163 159 158 152 137 129 131 143 137 160 167 144 120 96 116 101 87 64 50 48 26 -14 -16
135 157 164 154 139 128 165 141 96 68 106 145 103 99 105 106 95 88 111 151 175 181 173 155 141 133 136 146 156 172 173 147 131 124 122 107 89 57 49 46 26 17 -16
158 161 153 147 137 138 144 150 105 118 120 140 135 86 59 80 105 81 67 66 99 162 188 161 148 146 138 147 172 174 184 154 136 135 133 126 105 69 60 42 37 24 4
198 190 161 154 140 152 115 124 97 102 96 93 69 53 70 83 101 130 127 134 71 62 62 92 165 178 181 174 173 170 164 167 161 135 151 148 113 80 60 54 43 35 16
120 129 140 168 171 147 66 43 60 79 115 96 84 88 84 79 75 65 88 102 98 83 55 75 54 70 137 215 200 168 157 182 197 182 175 145 108 96 79 58 51 39 33
94 99 114 122 129 120 104 101 110 98 84 83 94 96 90 51 54 53 62 96 113 114 110 108 44 26 77 155 241 141 148 199 203 174 160 128 104 84 69 55 54 49 43

GFSGL_con_3kmhel_060.txt.gz
Helicity
371 358 355 364 451 254 213 136 192 241 219 182 174 171 153 146 130 145 148 175 168 141 119 148 160 192 196 223 220 191 142 134 116 77 67 19 4 25 60 88 101 101 96
569 535 500 521 529 168 231 315 165 201 195 223 189 153 146 140 152 162 173 161 147 126 123 148 129 146 164 173 166 139 121 96 79 49 16 26 47 56 67 79 87 98 113
606 600 546 247 283 298 326 310 167 231 186 155 166 167 121 138 162 168 150 146 131 112 138 160 147 149 139 146 135 119 105 75 56 55 58 82 93 73 57 87 105 113 96
454 411 375 346 325 356 254 213 245 216 222 166 106 109 146 183 176 153 144 130 132 154 151 172 169 142 138 137 146 133 86 61 57 70 76 85 96 72 81 87 81 89 61
477 459 404 394 427 343 302 244 387 247 124 62 106 154 187 207 183 162 156 135 168 205 226 247 221 177 143 163 176 96 72 65 62 62 72 85 71 58 59 67 57 31 31
459 417 411 410 351 368 421 269 173 80 67 123 126 128 162 180 160 146 170 169 194 198 175 164 147 138 168 184 136 89 80 67 61 78 99 91 71 57 84 64 69 61 51
485 463 455 476 482 391 180 135 103 79 102 111 117 112 145 172 162 170 163 179 175 157 150 130 134 175 155 138 107 98 81 60 68 93 101 102 81 84 80 72 79 93 76
558 571 509 400 384 193 164 108 68 87 102 109 106 104 146 176 158 147 146 176 177 152 148 142 135 124 114 119 101 85 67 62 62 88 112 113 112 105 100 80 68 74 76
550 478 472 413 203 181 145 95 80 93 110 115 128 155 178 181 147 124 155 156 158 145 144 129 115 112 101 99 89 68 50 51 59 66 72 77 73 65 74 89 71 59 36
459 411 186 194 138 112 102 107 102 109 109 121 144 195 201 184 143 120 147 201 177 155 131 112 99 111 102 84 83 62 54 55 65 70 91 97 97 96 61 96 98 69 36
277 193 175 116 100 71 106 111 119 128 133 137 167 195 202 188 169 124 114 209 174 147 137 122 124 97 94 77 61 82 79 60 58 73 92 104 116 108 98 90 90 100 35
187 160 122 81 75 90 110 123 139 159 161 154 160 185 207 180 159 145 118 122 141 176 145 131 130 95 77 69 58 54 34 61 96 97 103 100 109 99 94 74 55 67 74
132 130 98 88 91 101 128 147 191 190 192 184 193 194 190 170 155 124 116 110 111 173 165 141 105 92 82 64 37 33 44 81 91 103 92 111 116 102 76 54 45 49 50
131 123 109 106 114 140 165 198 232 240 248 241 222 208 199 188 167 159 174 155 118 120 148 132 136 129 118 98 85 59 73 87 94 97 103 102 102 90 81 73 50 34 37
111 113 121 152 182 199 228 263 274 296 288 268 245 215 200 166 166 161 163 169 152 141 127 119 123 143 127 111 97 86 77 75 88 103 119 107 96 87 79 81 63 29 30
105 113 137 167 193 230 266 265 257 230 234 221 161 192 181 151 98 103 109 98 121 106 149 170 150 143 135 109 100 81 79 73 76 108 116 107 91 78 78 75 62 35 18
123 133 160 181 204 221 247 280 273 235 198 180 147 128 112 119 90 99 100 99 118 99 153 171 155 152 142 122 113 97 70 71 89 126 115 100 82 70 68 73 58 30 9
143 148 169 181 189 193 206 217 230 241 234 201 187 180 116 99 82 84 103 93 141 141 149 167 158 156 141 115 106 97 82 77 110 131 113 98 87 74 66 67 55 36 2
113 127 151 163 179 187 201 201 184 173 168 163 189 118 151 66 89 72 89 127 141 172 178 167 161 149 148 122 104 103 100 100 129 140 108 101 87 85 66 60 52 29 -8
117 123 140 156 175 184 176 164 149 148 146 153 134 133 186 146 136 73 123 126 104 120 180 171 157 150 149 131 109 94 96 111 120 125 108 96 85 88 68 54 45 45 21
125 141 161 162 161 160 177 162 133 123 145 111 86 121 106 115 87 74 76 126 104 88 139 150 148 156 140 125 108 102 109 99 122 119 115 91 104 90 58 53 43 36 33
145 156 162 169 174 192 202 150 121 96 62 156 195 198 173 121 92 72 90 107 81 95 118 160 156 151 142 141 127 113 111 110 121 120 112 111 107 85 71 59 46 37 33
141 146 143 137 147 148 149 124 89 74 99 81 73 57 62 95 96 94 88 83 122 112 98 76 102 142 189 146 145 139 137 129 116 141 126 129 113 100 84 66 51 43 32
141 139 128 119 126 135 129 93 77 -66 -100 14 66 82 84 119 116 99 93 101 99 92 88 102 103 72 78 120 174 190 155 124 131 130 135 135 122 109 100 81 64 49 35
140 135 122 115 122 122 125 129 112 93 53 37 73 94 91 59 57 73 101 92 86 96 115 120 113 112 107 49 75 151 221 157 138 138 143 135 127 112 104 92 76 59 47
148 136 127 130 134 131 122 106 93 81 64 52 58 57 48 49 42 35 43 60 69 84 97 105 136 129 131 39 28 95 238 151 134 154 164 146 137 114 106 90 79 68 60

GFSGL_con_3kmhel_063.txt.gz
Helicity
314 353 396 394 482 534 635 430 222 162 127 194 252 216 235 166 148 115 95 103 128 124 117 114 103 136 142 148 160 174 161 173 172 138 102 65 47 40 54 67 69 98 115
362 465 547 650 611 651 416 164 264 200 208 196 170 165 176 154 92 98 114 144 141 142 128 134 128 158 156 173 176 157 156 145 145 124 83 42 53 57 48 57 80 107 122
553 577 642 508 482 329 276 232 247 262 224 251 206 162 140 90 100 124 137 140 154 160 143 152 150 167 179 199 185 161 153 164 138 120 76 61 54 48 46 72 86 91 82
550 550 477 412 266 291 289 334 326 276 218 182 152 147 104 89 129 147 150 158 175 165 160 183 189 190 185 185 195 163 174 160 117 95 82 68 60 54 71 73 62 74 59
545 416 392 379 383 365 407 368 292 254 212 154 146 96 87 111 131 134 155 176 181 179 199 215 211 208 184 180 199 179 177 139 111 92 80 78 77 68 69 85 85 70 61
475 448 443 426 427 411 367 343 297 220 158 175 134 100 88 102 105 127 173 199 196 203 209 203 195 158 120 127 164 158 151 137 108 95 88 86 89 91 110 95 72 48 24
477 469 477 447 396 370 353 341 236 195 181 122 98 92 86 97 103 126 158 215 216 205 199 202 184 175 164 164 168 165 144 96 82 96 103 101 105 102 94 85 72 68 56
506 471 411 381 387 373 310 205 218 190 124 102 92 92 109 122 108 131 157 213 209 182 182 186 182 165 149 153 179 172 128 97 76 80 98 87 92 94 121 122 92 81 87
439 412 414 369 280 212 177 213 155 138 127 113 106 107 125 155 152 165 180 221 202 164 164 187 181 155 115 105 167 147 114 83 64 51 56 54 56 59 79 127 99 73 55
393 378 278 231 171 176 170 141 144 134 128 119 117 127 129 160 154 168 190 254 212 196 174 175 130 140 113 103 162 146 117 78 69 71 77 71 78 84 76 117 136 98 69
313 237 150 161 165 139 132 132 142 138 144 142 157 164 155 153 167 161 165 224 220 216 192 163 148 122 111 98 100 149 120 90 71 76 81 89 91 100 104 112 121 146 106
147 151 152 144 133 130 150 140 142 156 171 180 205 206 209 167 141 139 127 151 179 233 209 173 160 115 104 94 99 90 56 81 98 93 98 88 95 99 99 99 90 103 112
127 137 145 129 120 136 147 149 177 190 228 224 246 251 232 234 206 109 102 106 128 190 222 169 119 100 106 110 91 80 77 98 101 106 90 96 115 102 87 85 71 77 75
152 149 139 141 133 134 169 205 242 268 286 295 292 283 279 278 244 185 158 160 136 170 176 160 151 150 144 170 135 107 121 114 106 96 98 99 97 96 99 87 80 66 66
156 138 128 116 113 116 136 173 202 231 272 292 317 314 281 277 254 201 158 165 168 161 185 197 187 141 120 128 145 121 116 114 117 115 106 102 102 94 98 84 84 71 75
117 102 96 99 109 125 141 141 153 160 172 201 215 234 230 200 136 212 135 133 113 109 190 197 185 147 142 139 122 117 124 95 99 101 97 104 100 93 93 78 81 86 79
112 107 107 115 127 143 163 188 198 179 170 145 121 122 123 162 130 159 96 114 86 118 195 206 209 183 165 144 127 124 113 104 105 106 104 114 102 92 93 77 70 74 78
97 104 113 125 142 159 169 180 203 212 200 164 110 100 88 121 92 87 82 112 116 143 199 188 213 215 198 184 150 125 115 100 107 97 111 119 115 105 93 74 64 70 73
87 92 115 124 133 147 169 189 181 164 164 160 143 125 119 83 68 63 70 109 121 116 126 137 166 180 202 179 157 134 118 111 103 115 121 129 120 112 86 70 58 52 56
103 119 130 127 146 172 184 187 180 153 131 157 165 114 121 132 97 96 91 100 96 76 93 119 133 129 148 171 158 142 122 112 107 109 116 128 118 106 86 72 61 53 49
122 127 137 145 167 177 159 149 131 114 140 161 141 87 161 221 225 189 127 140 125 114 110 81 129 147 164 160 146 135 118 107 110 108 115 125 123 99 78 81 56 48 42
133 135 140 155 163 168 165 153 140 127 116 100 70 64 73 56 74 69 80 74 92 116 112 79 70 48 115 164 164 128 120 116 115 123 125 126 120 88 99 87 65 56 45
151 160 164 172 168 158 160 143 133 130 118 104 42 -4 -88 -100 -45 20 54 80 85 102 114 122 106 90 73 77 142 164 150 123 123 135 142 145 134 112 108 91 75 63 50
175 178 181 172 165 159 163 147 135 119 105 91 82 72 37 20 63 103 93 81 118 147 126 108 109 112 112 78 84 69 150 166 166 142 149 163 153 132 117 104 85 70 57
177 186 179 168 183 173 158 139 130 115 103 94 83 81 69 61 55 45 32 43 58 76 93 105 97 107 113 133 98 118 84 133 201 172 168 160 157 141 121 114 100 88 74
165 173 160 175 177 165 145 126 118 104 93 84 83 78 68 54 44 36 25 32 39 58 56 58 71 97 117 98 83 114 108 52 200 209 180 174 170 145 129 115 99 92 85

GFSGL_con_3kmhel_066.txt.gz
Helicity
137 194 228 245 371 536 516 538 488 467 306 122 140 137 211 166 189 181 157 125 114 109 122 142 120 120 125 157 194 225 242 223 218 183 153 144 131 85 70 65 57 58 68
265 344 410 474 544 568 605 489 204 243 115 119 114 158 171 177 175 165 145 123 113 129 130 150 130 159 153 167 211 216 236 248 256 197 162 143 100 75 66 54 51 58 75
466 502 408 568 528 396 494 178 229 147 105 182 177 195 190 177 163 127 116 123 136 144 150 161 150 169 174 194 221 234 242 233 220 211 169 134 81 76 62 54 53 68 87
494 493 544 452 324 270 246 212 182 221 252 243 228 197 181 150 115 105 127 139 147 163 171 167 162 180 201 206 230 220 240 229 229 213 165 117 88 72 70 57 53 72 83
523 588 457 277 332 334 302 216 341 297 260 258 188 194 170 123 124 126 133 145 161 172 173 174 184 185 169 192 231 207 215 231 222 190 156 121 98 83 66 70 70 73 80
575 549 292 356 361 348 270 414 238 297 280 144 190 178 148 139 109 96 117 150 164 182 188 195 200 173 167 153 133 151 202 217 206 204 157 116 94 86 83 72 70 69 68
391 366 347 353 349 311 345 316 319 200 165 172 166 163 152 128 99 88 94 176 203 206 216 215 206 199 177 187 161 163 170 160 194 182 140 115 111 89 76 66 64 71 94
383 382 362 334 363 346 399 203 149 181 174 157 151 138 132 119 96 99 113 191 221 225 217 204 201 174 181 184 175 167 174 181 159 147 127 106 95 73 81 74 72 88 124
374 337 341 394 255 261 136 126 162 168 161 167 146 143 140 127 104 105 150 210 236 237 218 210 200 195 151 136 180 155 152 143 122 85 60 57 46 45 62 99 82 77 82
325 309 273 174 156 117 132 143 140 148 166 175 164 152 137 147 134 133 173 243 231 234 216 194 146 193 156 137 170 175 167 121 137 114 101 74 60 70 60 91 100 99 96
257 267 177 101 149 144 125 132 147 156 168 168 177 178 186 188 177 132 123 219 234 232 229 203 196 150 159 116 132 200 180 136 121 112 100 90 82 85 93 92 100 119 118
199 183 181 154 130 124 131 133 144 156 182 195 218 219 258 245 195 166 136 162 190 220 189 189 178 140 150 148 151 157 114 133 135 121 111 96 94 92 87 88 84 92 111
189 222 181 143 136 130 125 124 139 148 176 191 212 227 227 236 288 204 162 176 167 212 185 123 119 110 119 183 135 163 150 182 156 134 115 106 105 95 78 84 75 72 70
208 171 150 135 124 114 110 113 129 144 158 171 187 199 206 222 239 249 244 233 168 223 216 140 118 117 156 167 156 135 170 209 183 149 124 109 99 99 101 90 83 71 75
150 129 113 92 82 74 74 82 102 120 144 169 190 213 230 237 211 174 197 212 199 159 253 249 159 135 154 181 178 153 152 170 180 162 137 112 108 101 92 90 84 78 79
127 103 84 67 61 63 71 78 88 97 111 132 141 153 177 142 97 86 88 82 114 141 209 169 160 154 154 136 154 151 146 130 142 148 134 114 101 100 93 88 82 87 72
103 93 75 78 78 84 95 95 95 104 112 108 109 124 154 164 132 81 48 40 92 117 124 154 160 163 152 150 153 167 159 148 124 135 126 104 107 96 105 82 75 82 67
86 95 90 84 86 86 89 98 103 114 116 119 140 194 197 199 165 96 48 46 62 66 79 86 125 182 162 169 171 183 168 145 132 128 128 101 119 113 106 84 73 85 62
96 94 90 73 85 101 112 123 130 146 159 160 145 120 156 149 149 180 187 113 97 96 111 108 96 103 129 146 150 159 168 145 136 135 125 107 121 133 100 81 70 73 60
103 115 96 93 104 115 117 137 153 162 161 153 138 128 101 83 77 59 57 127 158 143 100 95 99 74 86 117 160 158 144 135 132 129 120 120 131 140 101 85 76 71 51
95 103 118 116 128 131 139 145 174 167 165 143 121 108 107 92 69 55 84 36 35 71 82 75 94 90 59 71 102 169 161 141 111 122 120 121 141 126 95 84 71 66 46
119 118 112 123 127 139 158 166 185 170 167 149 125 101 93 79 78 49 21 -36 -20 9 47 56 60 87 82 61 63 61 106 161 117 113 125 135 144 128 113 92 76 68 48
127 133 136 142 146 158 178 183 178 177 155 137 124 108 97 88 77 73 70 61 64 73 88 94 91 79 90 102 80 82 64 48 174 150 127 153 159 155 150 109 89 74 54
140 141 147 146 151 168 174 183 181 165 140 125 119 101 89 85 82 71 70 50 44 47 52 63 89 115 114 119 93 80 97 42 55 114 187 156 169 179 170 132 102 76 66
142 144 142 143 155 175 178 173 167 149 135 124 111 93 76 74 67 65 66 48 45 40 48 52 50 51 66 103 103 98 118 108 73 69 181 163 176 195 174 137 124 94 81
132 137 138 145 164 167 165 155 144 134 124 109 100 85 72 73 68 63 66 47 41 41 40 48 52 58 75 55 48 92 111 137 78 83 163 194 193 207 182 138 114 101 91

GFSGL_con_3kmhel_072.txt.gz
Helicity
98 109 120 100 126 136 169 169 191 218 258 236 289 246 97 127 132 126 89 129 156 141 129 119 102 102 121 120 117 129 139 146 153 145 164 130 244 214 152 133 113 96 74
98 111 118 201 257 268 220 228 261 245 160 219 182 94 96 137 99 86 111 137 141 125 108 108 112 119 109 115 122 127 148 149 164 169 130 128 196 203 181 139 107 99 72
136 195 238 238 199 166 283 282 298 276 108 106 110 103 173 76 99 90 125 130 115 108 98 104 109 117 125 139 153 163 166 171 176 210 195 143 182 204 168 116 99 88 72
186 195 241 288 432 420 419 293 302 184 80 200 104 62 115 101 102 124 121 112 101 102 102 112 123 132 141 154 167 164 161 180 187 236 200 191 149 134 148 129 98 92 71
224 308 374 367 374 384 352 304 220 174 240 85 19 105 104 105 132 113 112 106 101 106 115 129 136 143 170 198 209 187 164 213 251 229 228 178 137 136 124 103 125 80 65
230 235 306 373 374 349 270 191 165 250 42 87 70 78 111 106 189 133 116 105 108 120 131 131 140 173 223 224 201 192 174 188 185 167 167 164 111 120 120 134 106 82 66
290 307 316 312 282 201 158 186 158 79 75 71 86 116 103 80 154 105 113 122 131 140 144 157 177 187 229 221 177 198 197 158 152 115 121 128 124 116 109 102 90 78 64
321 318 291 278 268 248 213 170 143 47 96 90 107 105 93 85 135 107 109 126 144 154 165 179 191 198 190 174 169 164 160 149 169 144 117 83 103 103 115 98 85 73 61
288 270 252 243 245 207 182 84 47 103 111 116 109 97 90 86 118 120 133 155 181 184 190 198 215 221 189 203 210 174 130 136 152 157 118 108 150 156 126 101 99 74 57
239 237 213 211 206 81 85 119 112 122 139 119 101 105 112 101 117 155 166 196 206 232 223 220 223 245 210 164 186 163 164 126 89 113 148 109 92 93 107 91 79 76 58
278 273 225 171 147 147 139 136 144 140 126 138 147 128 127 139 150 186 167 196 210 227 236 238 239 211 258 183 119 129 133 93 91 95 116 129 125 95 99 126 64 64 64
263 237 218 183 170 159 144 153 142 147 146 156 143 134 150 156 163 161 157 140 138 175 173 187 185 179 153 133 160 89 79 120 112 100 158 159 161 181 113 109 75 63 72
248 233 208 199 180 171 193 177 166 159 163 158 150 148 155 138 127 144 148 126 98 152 164 144 90 88 91 106 184 98 95 113 98 140 187 173 154 141 109 109 99 66 68
252 239 227 224 203 194 166 163 171 178 172 163 165 159 140 124 162 156 131 129 123 153 157 140 115 108 86 79 132 117 120 70 59 76 114 103 108 138 164 128 107 70 66
245 233 227 219 194 180 178 180 172 189 175 162 168 150 155 145 152 125 132 145 158 160 148 140 109 72 75 69 97 105 80 79 87 70 84 89 88 135 152 116 105 74 62
251 247 211 184 169 163 154 133 142 158 167 171 168 171 148 150 143 150 155 162 165 166 165 181 136 78 45 47 74 79 87 87 102 90 97 94 83 106 109 113 98 80 50
238 200 168 152 152 156 145 149 149 122 110 122 156 150 167 161 148 156 172 173 183 185 192 177 149 115 75 91 43 37 60 72 69 73 100 117 108 81 107 101 90 64 48
186 166 145 146 147 143 147 144 138 149 135 127 144 151 153 164 154 165 179 166 196 191 188 161 136 102 88 96 108 118 75 51 55 63 70 89 103 105 93 90 69 53 44
141 139 135 137 145 143 133 132 134 135 136 137 141 140 163 156 127 148 160 193 183 161 142 133 120 95 91 109 88 61 41 88 47 41 61 64 88 104 85 74 64 47 51
130 145 133 136 134 131 133 140 152 150 146 151 148 161 158 143 150 167 171 171 159 141 119 94 83 83 73 89 88 53 44 88 65 57 36 52 68 101 78 67 60 46 46
125 128 132 125 138 145 148 148 152 151 152 153 153 171 168 135 147 161 163 153 134 115 101 81 62 60 61 65 48 33 33 49 72 69 75 50 52 76 76 55 54 45 36
129 132 137 149 147 152 161 156 160 160 157 159 160 162 155 145 166 166 155 140 110 89 76 65 59 53 47 47 59 78 48 52 55 71 68 70 82 50 68 57 57 66 44
138 146 151 159 156 150 147 161 165 176 181 176 171 165 165 172 174 165 153 116 91 82 68 64 56 51 48 44 44 40 53 53 61 47 57 54 54 75 43 66 70 71 49
153 164 173 163 157 150 163 171 184 182 188 186 181 179 176 170 154 138 123 105 87 69 65 60 59 44 43 41 37 36 39 52 61 60 57 39 68 27 46 46 78 75 66
158 157 153 155 159 167 170 182 199 202 198 190 186 176 163 147 129 118 106 89 76 64 57 56 57 48 40 27 28 18 14 38 53 88 72 48 55 60 45 43 66 100 87
149 154 154 156 162 170 187 199 203 199 193 186 170 154 137 122 110 101 88 72 65 62 49 56 51 40 38 33 25 27 24 30 43 66 76 77 73 55 34 42 53 112 103

GFSGL_con_3kmhel_078.txt.gz
Helicity
150 207 244 274 268 203 252 333 365 361 369 475 705 577 538 399 324 235 170 74 113 119 133 147 161 155 175 160 163 166 178 213 254 262 256 243 252 230 206 244 264 302 254
142 208 386 375 324 311 411 441 413 378 429 586 651 527 414 280 207 124 142 184 140 128 167 158 160 148 157 168 206 211 221 214 248 250 290 321 302 249 257 273 311 300 284
132 402 571 411 413 382 353 361 426 452 490 482 432 473 503 368 175 137 134 75 119 141 156 165 159 144 148 150 161 186 208 213 259 303 299 310 301 289 358 322 239 226 177
306 493 593 445 473 485 470 439 428 402 434 395 400 411 238 310 148 83 85 121 170 195 181 164 146 132 134 141 153 175 193 243 285 313 343 356 343 302 272 238 147 150 162
554 547 528 554 535 471 435 417 425 424 378 427 314 248 205 139 115 85 183 276 294 235 171 147 127 121 122 141 179 207 226 243 277 308 313 307 302 232 195 170 138 160 177
579 582 488 437 454 395 402 514 458 402 350 308 194 159 119 108 254 252 266 259 211 159 146 127 128 122 117 116 130 147 201 274 305 368 356 383 324 256 207 170 134 133 124
479 432 401 394 399 446 534 453 399 315 249 231 103 120 169 221 224 230 218 211 165 147 143 135 133 129 127 136 149 188 209 231 296 313 327 326 300 241 199 198 171 153 165
338 344 328 340 379 411 427 375 292 240 170 119 137 227 228 212 234 216 191 155 142 134 135 143 159 161 162 194 180 174 182 198 252 303 289 233 214 186 191 228 189 153 149
263 257 247 287 351 330 298 265 233 197 193 225 245 223 239 320 329 283 193 203 216 205 160 154 170 172 162 158 171 165 164 174 169 161 172 157 120 145 221 237 215 155 136
205 195 211 237 283 281 264 214 186 210 226 239 307 377 330 269 276 242 203 195 195 180 184 174 149 146 146 158 180 187 180 167 188 188 191 175 109 73 148 229 177 144 161
223 259 265 243 226 226 229 254 262 279 344 355 327 295 266 263 268 266 237 215 210 188 169 158 156 135 134 131 116 151 165 164 167 186 172 138 82 107 123 186 171 172 181
254 242 276 293 260 274 311 290 274 268 303 285 252 238 229 237 260 263 258 216 194 176 169 153 145 124 118 114 122 114 126 171 191 178 160 134 104 95 145 149 142 185 212
325 331 368 332 297 273 275 284 295 303 288 254 216 200 215 210 200 319 275 223 199 179 170 152 129 124 139 171 140 136 152 198 192 187 141 123 96 86 115 124 141 173 156
352 392 353 342 343 328 338 335 339 338 295 247 192 193 219 228 276 242 206 180 188 175 167 155 151 146 139 157 150 153 162 144 175 145 114 104 105 83 70 98 136 147 170
459 426 439 408 403 423 413 391 296 277 242 242 260 242 226 228 247 223 188 172 170 158 152 151 166 184 152 149 150 169 144 130 167 83 117 104 87 91 95 107 121 145 170
550 648 493 422 402 312 283 299 258 158 150 158 176 194 210 220 211 197 180 155 146 149 165 178 192 194 171 155 157 152 143 124 75 54 97 98 107 103 97 113 159 140 166
582 559 531 499 381 369 351 298 220 146 101 79 85 114 144 162 146 162 168 152 140 149 172 193 213 207 188 164 164 159 141 106 91 30 -38 -20 64 86 103 111 143 133 162
682 685 489 364 366 341 248 214 219 227 176 122 74 74 56 117 159 152 146 139 186 236 228 234 232 214 191 177 158 147 121 98 78 66 45 65 117 121 74 113 133 128 132
478 372 275 203 180 209 225 205 165 170 181 178 186 156 186 273 230 204 199 184 204 198 209 220 205 191 172 153 137 120 102 85 62 57 59 74 71 93 192 75 77 128 141
228 250 253 235 205 178 174 182 172 183 193 191 205 245 278 245 188 159 203 236 232 223 217 198 180 168 155 139 118 99 89 76 60 65 53 62 39 82 127 137 117 124 142
219 232 209 181 186 186 173 176 199 195 203 221 225 233 227 204 176 176 209 230 229 230 195 173 168 149 132 116 100 94 78 63 57 59 41 27 13 56 96 99 106 53 118
183 172 167 173 176 194 198 176 175 203 211 241 257 263 266 222 210 214 212 209 200 179 165 160 155 130 116 107 88 78 66 55 56 44 23 13 45 42 77 68 66 204 69
151 159 167 172 172 183 185 199 224 224 234 241 231 225 221 220 221 221 215 179 161 157 136 117 124 113 93 79 75 71 60 48 38 32 16 16 42 81 61 86 45 85 194
146 158 169 174 182 172 163 209 202 181 212 227 239 228 225 222 209 196 181 175 155 134 114 106 110 97 82 79 69 57 49 54 55 41 34 21 12 90 93 71 91 67 97
160 162 174 182 190 187 186 196 226 238 242 233 220 217 202 181 173 168 151 139 127 108 104 99 79 81 64 48 41 51 56 43 32 30 37 26 37 71 117 90 109 90 88
164 176 171 167 182 205 218 219 217 213 208 199 187 166 153 151 141 131 122 108 108 98 74 76 66 50 48 63 62 42 34 40 58 67 63 50 43 54 89 111 98 64 17

GFSGL_con_3kmhel_081.txt.gz
Helicity
144 233 270 285 305 389 396 358 287 302 311 365 451 520 633 783 403 493 457 379 227 194 138 141 121 156 169 163 169 166 176 204 228 228 218 204 237 221 214 227 241 269 265
294 361 291 366 347 389 332 326 367 369 353 399 382 459 523 508 453 465 421 288 202 202 185 133 170 166 157 150 160 157 179 183 238 204 254 269 241 222 261 291 306 297 240
352 296 351 468 472 429 418 409 436 429 380 366 377 436 442 453 467 356 284 296 219 188 150 168 170 181 177 162 160 164 168 177 214 264 256 250 246 266 286 285 281 222 215
267 339 494 563 623 380 474 568 452 402 409 389 422 476 412 388 382 351 252 171 177 163 181 205 201 169 139 134 140 146 157 197 215 246 249 245 260 275 326 298 276 228 209
504 476 502 575 563 474 525 481 410 357 405 482 434 434 342 355 400 218 217 244 258 271 278 263 212 166 146 139 162 161 188 211 219 233 237 301 347 364 359 318 300 247 224
498 476 503 509 469 417 444 440 497 545 459 475 425 370 392 273 307 145 262 287 265 259 235 193 157 142 129 146 210 256 208 211 210 235 243 277 281 362 358 336 345 317 269
514 476 496 477 451 441 441 439 448 446 460 422 368 421 439 251 244 252 273 264 244 214 186 161 156 170 190 186 180 164 153 147 161 195 205 235 256 304 326 308 284 234 236
475 378 329 307 308 335 340 378 454 430 396 393 337 292 187 275 314 316 295 256 232 222 206 195 187 182 175 182 163 153 141 132 148 179 218 225 233 232 246 251 235 202 237
281 251 234 265 308 332 340 373 395 382 348 320 217 276 396 397 395 365 289 241 226 210 191 191 186 175 173 200 189 173 162 148 142 149 152 153 155 162 187 214 229 276 273
220 231 241 243 269 289 296 304 276 273 277 369 438 416 419 402 383 311 245 210 216 180 170 154 159 174 195 206 193 181 167 158 179 166 159 163 160 141 131 178 160 201 156
221 217 214 229 291 307 316 295 305 401 457 444 463 390 323 333 300 265 223 187 163 166 155 150 153 160 169 169 177 187 188 179 174 179 176 167 147 140 129 115 137 144 132
206 247 273 281 278 297 322 377 425 454 441 416 411 365 341 312 258 271 243 203 171 150 145 137 135 145 155 172 203 202 242 206 194 181 170 162 155 145 131 127 130 149 129
280 308 350 402 402 390 448 480 460 389 388 360 320 360 356 302 289 277 242 212 184 152 143 143 145 158 177 199 202 210 205 202 189 198 202 190 178 124 125 117 105 143 124
484 531 541 577 615 649 600 524 495 450 415 365 341 355 385 311 252 212 180 144 155 152 152 165 175 181 171 176 152 152 183 197 195 195 168 176 138 125 102 88 105 93 111
663 679 680 652 615 633 600 508 482 472 354 332 380 316 296 277 231 189 168 145 130 136 152 168 185 207 194 166 145 146 160 172 177 173 182 141 114 104 111 109 97 119 102
823 777 713 650 573 561 549 544 425 316 310 316 265 224 232 206 181 169 163 152 160 188 191 195 214 207 203 189 164 157 151 162 160 158 146 139 103 58 69 52 100 121 99
831 705 642 635 623 597 517 407 342 210 197 178 193 158 112 119 143 139 135 151 178 229 229 230 223 225 188 183 172 160 153 145 139 136 118 117 100 -10 -7 69 68 105 95
692 732 628 520 368 273 253 241 251 236 209 160 91 97 98 151 151 148 161 146 155 188 208 213 218 214 197 189 178 172 151 139 124 106 99 91 99 34 -21 82 147 67 141
398 325 254 228 235 253 258 243 232 221 189 194 191 151 211 205 207 186 160 174 215 229 234 238 217 209 196 182 179 161 144 142 123 99 89 83 55 45 62 118 75 190 197
256 266 235 200 183 192 195 185 191 207 224 219 218 216 222 203 177 162 167 223 256 256 255 229 208 196 195 179 160 138 122 108 92 78 80 57 30 26 46 82 116 149 170
143 144 161 173 173 157 181 190 192 203 220 239 262 222 213 207 189 191 198 220 213 204 195 189 192 182 166 139 123 120 101 87 84 70 51 33 28 30 54 67 71 131 127
154 151 149 160 172 176 189 195 214 231 237 237 234 239 260 226 239 239 242 221 193 175 159 158 159 135 117 129 117 95 86 91 64 48 46 48 42 29 40 75 87 107 113
151 171 178 180 181 189 199 214 224 237 232 245 255 255 240 253 246 238 226 204 200 188 149 139 118 110 112 105 93 100 86 63 54 64 50 24 29 45 36 91 78 105 124
166 183 193 200 208 215 217 230 244 261 271 264 248 234 226 210 200 187 179 167 149 132 119 105 102 91 79 81 82 66 55 66 67 49 28 33 42 59 50 74 96 96 114
174 181 197 207 217 225 231 238 241 239 229 221 204 188 175 161 156 158 137 119 110 97 92 84 70 62 69 54 54 64 70 48 44 27 28 27 37 74 74 60 114 85 111
177 192 198 201 212 235 245 248 231 224 220 204 180 155 138 140 133 116 101 98 100 79 51 35 40 55 67 63 57 51 48 41 27 20 14 21 44 74 66 54 109 103 110

GFSGL_con_3kmhel_084.txt.gz
Helicity
204 198 185 175 209 241 312 292 332 335 314 306 304 329 420 422 421 530 617 424 442 415 354 255 212 206 166 148 164 168 183 225 247 202 180 168 177 156 146 171 186 214 236
202 209 225 246 249 233 266 323 392 342 312 297 330 308 308 362 410 469 480 413 412 377 287 256 208 186 159 149 174 170 190 171 211 195 184 185 168 143 175 189 224 265 267
262 236 268 324 370 381 385 533 485 190 247 309 294 265 279 314 408 435 466 415 429 320 258 250 188 207 183 207 217 214 193 181 193 227 211 211 196 217 223 244 278 272 292
330 295 266 341 402 460 592 516 204 431 445 369 282 275 343 391 398 482 529 343 324 186 262 184 215 212 223 225 219 189 185 203 207 222 226 219 211 202 240 247 253 289 299
336 362 297 343 418 484 572 376 366 346 433 357 392 395 445 464 454 533 323 373 429 337 177 254 267 263 247 245 223 216 221 221 218 223 223 219 212 210 218 225 283 284 309
375 427 382 432 481 488 449 426 424 425 455 480 416 448 507 455 485 213 314 367 251 260 303 292 274 295 307 267 257 230 207 213 213 217 223 221 202 209 223 238 246 287 271
426 400 406 452 439 393 349 338 384 396 430 437 458 419 467 507 352 374 320 256 328 337 335 292 279 277 256 234 222 201 190 180 180 209 221 235 214 225 227 208 214 229 247
441 403 380 345 333 320 313 328 347 403 459 486 490 493 542 320 414 516 284 360 370 355 317 277 242 219 200 188 175 172 167 173 175 187 207 209 215 204 225 205 202 218 208
336 302 256 229 239 260 292 321 333 362 418 493 497 356 451 380 479 308 374 370 365 340 283 243 205 202 194 212 174 162 157 152 157 143 142 141 133 132 150 202 214 211 222
207 202 209 210 240 273 296 307 314 373 444 462 522 445 421 499 335 363 367 314 349 300 255 213 222 199 194 185 169 155 147 152 169 171 170 165 152 170 147 179 191 213 199
187 197 202 209 236 252 274 300 392 445 444 440 485 467 350 387 384 394 327 279 285 273 240 212 173 182 179 167 181 174 172 184 174 170 167 155 150 171 188 193 170 188 179
194 202 202 221 248 296 367 408 425 455 487 435 423 505 522 433 444 375 311 293 274 264 256 184 143 140 146 161 192 230 246 205 186 188 187 202 208 210 194 171 164 150 157
270 292 323 384 419 438 421 410 420 429 455 459 487 496 428 378 396 348 331 325 280 234 167 133 113 114 132 171 227 240 209 201 215 221 218 197 194 180 163 154 148 121 100
445 469 495 525 572 578 531 498 500 489 520 505 421 407 395 398 333 293 322 254 242 203 159 145 136 145 166 202 197 202 206 206 215 219 203 196 176 183 179 155 158 110 121
514 514 551 576 596 664 712 670 632 627 470 477 504 446 399 366 286 243 258 255 196 176 160 147 163 193 215 204 195 205 185 181 193 198 216 198 191 190 169 141 120 77 87
527 535 561 617 647 672 739 708 677 574 482 328 254 251 303 286 264 305 294 251 199 164 137 151 180 191 191 183 176 177 167 168 182 191 195 192 192 182 154 127 104 69 93
624 602 592 560 455 362 315 295 289 257 270 261 240 221 241 258 287 249 234 223 167 147 160 179 177 179 173 181 187 183 171 174 172 181 175 175 174 161 151 132 82 -16 29
426 371 302 286 287 293 285 258 227 214 204 204 160 153 162 176 193 206 205 171 153 152 175 199 215 217 204 203 204 199 194 186 183 180 177 171 161 143 120 103 67 52 -31
291 271 251 233 215 202 192 197 201 201 205 208 208 239 235 252 249 233 206 158 152 183 225 252 235 229 215 201 196 193 191 182 162 158 155 157 130 100 89 78 61 68 135
246 240 202 182 183 191 190 201 212 208 219 232 241 247 244 252 231 208 188 186 205 210 213 235 231 223 216 206 191 174 171 166 153 137 125 106 101 79 69 60 55 64 60
171 181 186 172 186 189 190 199 206 223 241 245 233 225 248 235 245 242 247 248 250 238 217 211 204 189 182 172 164 162 152 134 125 109 89 97 85 69 53 51 59 69 72
172 180 184 184 182 207 210 215 234 242 242 252 263 281 303 265 283 266 258 256 237 222 220 209 190 176 160 152 142 127 120 119 106 97 89 74 50 51 58 55 51 59 73
169 178 189 194 192 207 218 230 243 260 274 290 299 290 283 271 253 241 222 202 196 196 183 169 156 149 138 126 109 101 102 93 82 84 66 47 45 59 65 50 47 73 92
171 183 191 196 213 223 231 240 248 263 256 246 234 230 226 204 181 170 165 161 161 156 144 138 127 106 89 86 88 95 91 92 80 62 45 31 38 48 54 49 55 79 100
163 169 177 179 186 208 234 251 269 278 284 266 246 223 195 171 161 151 143 132 122 118 106 90 74 69 71 78 79 79 77 59 54 46 32 18 24 45 60 61 66 65 102
167 168 167 182 211 215 219 230 235 232 240 240 228 201 168 154 146 124 97 87 72 63 48 55 65 69 74 68 61 55 47 37 28 19 5 9 26 47 58 64 71 61 120

GFSGL_con_3kmhel_087.txt.gz
Helicity
128 110 78 65 60 52 50 53 72 114 178 236 233 250 289 281 232 311 392 409 455 485 524 346 325 294 242 230 256 262 252 269 311 254 208 194 173 140 123 129 127 144 158
168 202 180 146 122 128 144 169 198 278 342 335 319 264 235 281 363 370 415 379 425 452 416 372 340 320 254 258 277 232 241 245 289 257 207 185 158 137 133 137 131 142 159
345 191 147 184 214 233 251 292 384 404 427 438 212 277 243 268 322 325 336 351 391 412 444 353 344 310 246 334 252 244 250 235 245 265 215 177 147 143 155 163 164 167 183
429 374 274 263 339 313 285 344 398 467 414 264 107 178 184 248 260 285 340 363 420 451 492 322 313 380 308 247 252 266 254 247 252 249 222 193 170 169 170 177 189 194 209
317 314 322 271 313 337 371 396 427 421 353 312 288 237 255 294 288 286 353 392 418 560 363 407 315 374 252 294 313 284 273 284 273 254 231 207 199 182 174 174 205 188 218
283 282 354 385 388 372 367 367 381 370 366 304 248 298 363 331 334 357 437 548 507 356 298 520 388 321 361 411 349 288 260 263 248 235 218 204 190 177 180 188 205 209 208
361 357 358 379 391 392 358 311 315 307 276 275 308 397 396 491 393 377 591 512 505 399 462 332 308 379 398 339 327 302 250 202 175 182 190 179 180 170 180 193 216 227 227
344 333 322 280 244 253 264 259 248 289 293 307 364 447 544 342 417 472 585 516 325 383 348 363 398 391 355 314 324 294 236 189 174 177 163 164 166 168 185 191 192 191 201
275 272 245 236 241 235 230 249 282 334 350 394 458 501 524 561 463 545 411 478 500 492 407 417 368 394 341 305 283 260 227 172 150 156 163 142 132 138 140 185 200 218 218
221 222 212 211 208 206 206 236 266 320 367 404 494 516 505 468 386 458 553 420 453 406 388 383 440 351 282 259 240 230 251 210 152 130 134 136 137 152 148 189 217 244 241
195 184 181 178 179 195 230 268 313 367 439 486 515 504 512 478 555 505 571 364 317 295 380 397 419 310 261 245 229 230 229 184 158 121 101 104 122 156 194 214 196 220 249
217 224 224 237 239 255 304 326 364 418 460 457 464 482 538 562 542 462 398 405 448 485 430 387 349 316 276 297 278 317 277 189 130 112 105 129 136 151 178 193 198 200 193
348 340 332 352 362 365 369 386 422 436 441 477 527 552 508 409 390 377 454 542 484 343 274 296 340 312 289 275 300 287 215 147 131 127 139 138 145 155 161 176 189 195 170
304 313 308 333 371 399 394 408 429 455 473 524 519 471 381 350 395 467 444 280 257 270 266 248 249 295 313 295 239 208 178 164 160 154 144 154 149 167 186 194 187 180 182
270 288 320 358 389 422 488 475 533 598 540 509 501 458 432 343 241 226 250 240 218 233 239 250 251 233 243 236 225 200 176 167 167 157 172 175 179 182 190 187 186 179 182
338 342 341 356 332 323 313 319 330 274 249 232 237 218 256 233 208 205 215 236 229 217 181 180 181 195 212 198 178 172 165 168 169 170 175 179 186 186 184 179 177 172 160
426 359 298 264 233 228 236 216 207 206 218 222 224 197 163 147 187 241 264 248 240 222 169 173 182 185 170 172 194 183 176 178 180 175 175 185 187 182 188 174 161 151 140
332 313 250 237 237 238 238 241 241 241 230 204 180 164 138 197 255 281 257 207 183 160 157 190 196 191 190 189 191 193 194 193 188 174 172 175 176 181 157 148 141 128 111
278 254 253 262 265 255 233 227 222 216 217 210 197 238 334 340 300 280 245 188 184 189 189 190 184 186 194 187 181 169 169 162 159 168 162 158 150 155 132 122 107 92 79
280 290 253 227 221 217 206 194 193 190 193 202 222 246 247 261 263 261 247 229 224 223 203 200 211 213 198 189 183 170 177 169 160 154 142 140 136 121 106 91 76 62 61
184 199 205 188 182 170 176 192 192 200 206 209 232 268 308 267 268 270 256 245 229 221 221 215 211 197 184 174 175 167 152 137 133 128 129 116 105 96 88 72 67 60 44
164 167 169 168 165 177 175 174 182 195 215 226 224 229 249 215 224 212 205 202 187 187 183 188 187 180 172 160 139 121 110 110 112 111 101 95 88 83 88 64 59 54 46
138 143 150 154 152 169 181 186 193 198 203 218 221 231 228 216 198 198 189 169 176 176 171 162 148 133 121 110 104 101 100 97 94 92 89 87 73 68 78 61 48 42 43
112 123 124 125 129 140 160 179 190 213 210 215 205 198 201 191 182 173 162 143 135 123 102 99 90 76 75 80 87 94 91 90 90 77 66 52 43 45 54 49 42 42 55
86 81 96 121 131 143 153 163 174 178 185 184 186 187 182 159 152 133 103 94 83 78 73 70 71 66 64 66 67 67 69 58 53 49 44 35 37 40 28 30 39 52 63
95 108 100 96 115 120 125 130 132 134 140 131 126 113 98 83 73 68 65 64 66 64 58 69 74 66 62 62 56 45 42 36 32 24 21 26 27 14 13 27 54 62 77

GFSGL_con_3kmhel_090.txt.gz
Helicity
151 125 104 81 58 25 -9 -9 -2 -11 -14 -38 -38 6 54 138 201 233 219 232 115 186 277 340 397 395 393 350 333 337 289 297 307 262 239 232 211 185 171 170 147 149 148
220 168 157 190 169 149 127 95 78 53 40 54 90 128 183 200 189 166 163 189 211 213 315 337 359 408 349 377 413 369 289 320 358 341 261 252 213 203 193 174 151 150 153
274 194 150 186 193 131 108 97 112 141 149 188 191 248 241 226 373 262 162 165 337 350 387 354 361 426 386 494 316 338 400 407 400 346 292 278 239 215 217 185 166 154 155
325 277 184 187 243 213 188 187 212 262 213 221 206 185 195 312 256 215 132 190 311 345 328 308 371 405 456 403 374 313 424 405 331 327 346 305 259 224 216 202 183 151 150
216 211 213 224 237 225 228 234 254 220 232 235 239 294 298 218 215 228 271 300 300 313 379 427 480 361 442 423 389 390 391 297 272 362 361 336 321 279 246 193 192 158 146
234 207 155 158 184 229 263 280 285 252 261 264 298 280 293 223 200 239 284 321 362 420 498 524 513 562 589 332 497 302 241 260 349 359 334 354 316 248 201 203 193 193 189
247 238 255 222 208 228 266 270 245 260 284 270 257 248 187 171 201 273 346 465 463 558 552 544 694 646 431 483 348 328 385 406 337 307 333 288 287 227 208 205 187 186 190
305 293 264 253 238 224 212 195 224 233 221 214 238 277 316 294 365 426 480 496 548 437 531 629 446 410 400 381 363 334 364 344 314 317 271 215 206 184 150 149 148 150 146
238 199 164 165 180 203 197 199 198 220 254 300 316 318 325 336 381 391 439 479 445 492 588 429 512 499 394 329 404 399 405 411 338 293 244 188 168 177 156 183 183 169 167
191 165 170 182 208 213 216 236 241 244 262 287 364 385 439 450 482 497 468 437 519 511 604 583 560 457 456 361 416 463 501 395 364 384 322 279 239 255 227 232 219 190 159
213 237 249 247 257 244 245 236 233 266 318 380 467 495 521 484 453 496 502 493 471 482 528 513 509 373 332 387 387 458 473 392 365 288 290 270 261 219 192 202 195 187 188
249 243 236 219 185 186 212 220 253 284 342 377 416 443 445 428 423 442 489 503 512 473 476 331 304 314 339 349 389 361 315 292 277 304 302 250 221 189 176 153 153 162 185
208 192 186 212 224 217 206 205 230 246 272 305 360 401 409 404 427 488 455 427 357 284 220 226 263 287 276 252 237 255 299 299 272 233 223 192 165 146 129 141 141 147 148
216 234 235 249 274 296 303 304 313 291 302 331 349 350 340 358 341 277 213 128 115 122 146 176 182 156 150 199 218 252 243 225 200 187 175 160 144 145 138 141 155 187 182
242 232 249 277 296 333 368 338 320 353 291 270 253 215 202 188 150 138 137 138 136 149 138 134 139 148 181 196 209 214 205 196 177 171 160 158 151 145 155 168 191 195 205
264 267 257 262 260 244 223 230 281 249 241 227 209 164 168 148 154 189 218 207 190 132 100 111 126 137 158 180 192 198 186 177 169 157 149 143 165 175 187 175 175 193 187
277 241 229 227 213 200 190 166 147 176 217 226 179 131 115 134 209 224 223 215 228 200 160 155 164 175 178 190 209 190 188 161 159 155 167 177 175 175 175 171 165 161 153
271 271 217 194 172 166 172 177 173 173 166 161 252 330 333 292 288 284 262 214 196 216 211 205 197 191 192 198 193 184 168 179 174 171 162 156 155 150 158 152 144 131 119
239 205 186 171 169 160 148 152 150 164 176 187 200 239 266 307 315 331 316 221 220 230 226 223 198 197 197 195 189 182 169 168 157 154 140 136 136 133 129 121 111 104 86
237 224 175 146 148 154 149 151 160 163 174 189 213 236 230 221 228 209 192 176 197 199 198 208 216 216 200 182 169 168 158 148 136 127 121 118 117 108 106 97 89 70 60
151 149 156 138 137 138 144 150 148 160 158 154 150 165 189 151 167 171 179 188 187 184 180 175 169 166 158 158 155 136 124 111 104 100 97 92 88 81 82 72 59 51 37
105 104 110 110 107 115 114 118 124 128 143 149 146 157 182 168 176 176 177 172 148 131 124 123 117 106 99 96 88 86 83 87 89 79 74 74 68 66 71 62 57 51 30
94 99 105 101 93 100 110 111 111 107 122 140 139 146 142 133 120 120 113 97 89 89 74 69 60 56 53 55 58 59 61 62 62 62 64 60 49 55 64 52 43 34 24
97 85 71 67 68 70 59 74 90 114 102 87 82 71 80 71 71 65 56 50 49 48 47 49 48 44 47 50 59 63 58 62 58 50 41 33 36 46 53 44 34 24 27
52 55 62 40 29 44 74 64 47 27 31 50 51 49 46 44 41 46 44 46 49 51 51 59 65 53 49 49 49 45 50 34 35 27 34 37 44 22 10 10 16 20 37
41 24 22 39 57 39 19 18 28 42 42 33 33 30 29 35 45 51 51 54 60 62 66 73 75 69 55 56 51 38 33 34 39 38 46 41 30 12 -2 9 21 28 60

GFSGL_con_3kmhel_093.txt.gz
Helicity
62 61 55 52 48 57 47 23 16 -14 -28 -43 -39 -34 -32 -7 31 67 68 48 89 138 195 204 168 152 296 290 392 390 287 352 273 307 278 306 354 308 307 241 227 208 201
118 98 72 75 94 108 103 101 91 79 74 66 53 42 55 79 141 77 94 202 250 173 235 264 212 294 181 242 307 337 309 358 432 337 302 343 348 359 291 240 248 231 228
146 137 118 132 172 115 136 110 118 94 79 77 79 87 99 134 152 196 208 219 254 280 270 223 159 299 122 332 363 355 418 469 540 431 421 432 412 372 255 283 259 234 244
152 143 143 123 149 117 126 113 139 109 84 79 89 91 116 134 169 207 149 195 254 256 223 220 209 296 350 416 330 419 550 515 415 453 487 458 384 324 274 298 328 256 242
134 148 144 109 109 137 154 142 127 115 114 107 114 112 118 112 138 168 198 232 197 188 213 224 258 286 308 340 459 526 576 487 507 469 484 553 389 309 325 336 348 298 255
109 128 103 115 117 109 112 115 111 98 77 96 137 156 150 187 181 217 232 194 143 184 239 413 467 501 492 444 477 452 443 530 605 455 544 454 355 387 318 363 414 374 379
91 87 95 95 89 101 105 97 83 88 106 141 146 177 187 192 175 123 138 187 261 347 404 439 411 513 443 366 545 599 866 622 518 432 377 327 334 332 379 374 295 297 365
93 116 121 114 122 129 142 153 180 209 227 231 226 200 201 204 186 208 302 323 389 417 383 434 461 523 518 516 516 600 514 398 387 335 314 324 325 335 314 291 300 320 281
159 175 167 143 176 224 241 234 233 258 256 255 251 251 251 261 312 316 336 396 459 505 503 508 529 498 492 471 477 478 495 507 382 400 390 349 322 303 311 314 240 272 255
238 232 222 218 249 265 273 281 299 297 310 306 313 311 326 301 339 340 328 345 431 440 492 545 539 463 495 510 510 516 474 375 295 251 243 246 253 273 318 320 312 274 252
215 227 228 217 218 220 235 235 236 258 287 312 348 361 376 369 380 434 436 404 375 389 384 380 393 393 354 342 256 186 162 150 162 197 238 260 294 307 279 270 277 250 224
267 304 309 303 269 244 264 261 274 294 334 344 367 380 383 381 404 422 423 355 310 280 299 306 269 207 141 75 50 58 120 165 199 219 230 238 235 221 231 209 192 196 181
292 302 327 326 301 282 275 277 275 270 280 297 287 288 304 316 339 394 356 306 233 144 120 130 101 76 61 63 116 175 176 206 220 220 215 203 197 205 179 168 155 149 139
260 309 275 275 297 322 312 307 315 304 272 267 261 255 233 217 191 156 131 112 110 99 94 100 105 97 113 163 155 191 199 205 205 196 199 186 177 166 168 158 161 159 164
282 257 249 255 275 309 351 310 307 337 257 226 216 192 175 175 154 149 159 145 144 137 110 118 127 134 133 139 149 173 193 197 200 201 193 190 171 168 168 166 171 190 224
267 235 211 210 217 209 208 243 323 282 262 250 238 188 185 235 269 253 236 233 215 166 105 118 126 136 150 175 193 213 224 222 226 216 210 226 237 225 223 212 212 216 218
228 205 209 211 190 178 159 132 121 185 309 377 339 325 321 300 289 267 234 211 264 213 210 215 210 211 217 229 241 267 266 267 228 224 214 208 198 194 187 193 190 187 184
251 243 193 181 172 158 147 142 135 135 150 169 280 281 290 294 290 285 270 225 214 229 209 203 217 227 237 249 262 272 259 240 224 210 199 187 171 164 164 165 167 160 153
219 203 194 189 174 154 138 140 135 139 144 156 169 213 228 243 248 265 250 198 202 220 221 236 234 232 226 222 220 202 194 176 167 154 143 136 125 119 121 118 111 99 93
225 213 166 130 119 121 112 113 115 123 134 144 153 154 145 162 192 191 178 166 178 169 160 161 158 153 146 139 131 127 119 115 109 102 99 87 86 85 81 77 72 66 63
141 129 125 109 108 101 102 103 97 102 110 120 131 143 159 151 155 148 143 139 129 118 106 93 84 72 64 62 62 65 64 61 61 61 59 57 57 56 54 50 44 42 35
93 95 101 97 83 86 86 92 100 110 120 121 117 120 133 109 112 100 87 72 56 54 53 53 44 46 48 52 55 55 52 52 51 52 49 46 43 42 42 40 35 28 23
82 80 74 66 68 81 99 104 109 106 96 92 86 83 83 74 59 49 42 38 36 40 51 50 50 52 55 58 62 63 59 53 49 46 39 36 35 34 31 24 18 11 15
58 62 76 89 93 100 97 84 68 78 76 73 71 61 53 45 44 46 43 40 40 50 55 60 58 52 55 56 58 57 55 52 47 39 25 29 30 24 21 9 6 14 21
88 94 96 83 73 59 48 60 70 78 74 65 56 51 48 47 45 47 45 46 48 48 47 49 54 40 33 21 26 27 35 31 37 32 45 46 46 38 27 15 14 17 31
78 75 56 38 38 42 61 78 77 64 60 55 54 52 49 45 42 42 42 42 51 53 49 53 43 27 18 28 25 22 22 28 37 40 53 59 50 33 20 21 33 33 51

GFSGL_con_3kmhel_096.txt.gz
Helicity
55 36 34 43 30 16 23 16 22 21 30 26 35 20 15 40 40 33 18 13 31 34 48 113 112 126 189 268 275 335 344 316 366 286 262 231 269 302 320 294 312 306 344
62 59 44 30 35 33 29 26 32 38 34 41 50 64 73 79 82 102 108 141 125 125 207 223 167 306 236 388 285 313 309 498 321 252 302 441 377 454 521 367 386 379 316
62 66 68 63 57 60 47 33 43 48 43 48 52 51 57 72 84 95 160 162 186 215 201 159 184 253 268 357 389 442 454 366 299 275 312 582 617 714 675 491 417 424 401
87 85 83 85 82 63 65 59 59 74 63 66 66 67 70 74 73 77 80 72 81 115 141 189 171 217 234 263 322 356 371 419 397 562 610 668 765 779 666 535 572 460 338
69 55 49 64 68 68 71 69 41 45 78 93 71 63 67 83 109 109 136 159 153 165 181 172 138 188 225 275 272 277 320 382 517 576 549 627 566 788 723 624 505 503 357
21 18 16 28 36 43 39 61 66 79 84 88 93 91 97 134 157 166 175 196 192 182 175 252 280 262 285 343 403 471 467 395 511 542 432 477 690 673 503 502 426 399 455
44 34 41 50 56 66 65 65 75 95 100 100 125 174 277 327 289 218 181 212 250 265 266 261 283 308 358 379 493 556 620 620 571 450 473 528 572 508 435 400 462 506 429
84 84 90 99 103 107 111 125 194 272 316 327 345 339 309 292 287 262 287 259 283 302 318 332 365 406 408 425 401 462 514 519 490 473 524 545 493 548 549 435 289 222 198
226 195 197 194 235 300 336 326 323 364 392 379 366 354 331 337 355 285 222 253 299 334 349 362 350 359 403 400 358 386 390 272 331 305 287 315 287 273 256 209 149 146 174
298 319 319 302 346 384 366 367 388 396 393 376 411 397 371 306 336 307 256 232 260 237 281 315 369 323 329 343 306 281 257 262 215 185 151 126 116 121 199 210 244 255 262
399 406 403 421 410 359 358 346 335 339 350 366 388 391 392 350 332 358 338 264 220 222 238 251 259 288 270 230 154 125 165 150 134 133 151 159 157 182 207 213 240 264 256
386 434 433 384 328 311 328 318 299 284 309 303 291 305 314 319 316 322 320 297 258 227 211 180 168 158 126 76 36 109 119 98 120 135 147 166 199 226 235 273 250 217 209
394 368 416 404 372 375 357 317 301 292 284 294 296 300 296 269 239 277 272 262 240 175 153 137 121 103 83 35 122 141 106 149 175 183 208 230 239 254 231 202 201 187 173
352 362 337 318 371 371 353 350 351 334 303 296 285 271 238 241 231 197 164 139 137 131 102 116 97 89 95 130 84 99 177 218 233 234 270 264 239 221 218 186 193 188 196
352 287 260 288 309 356 413 358 361 423 335 270 269 256 205 193 185 183 182 152 140 127 105 138 171 181 190 187 187 186 199 227 229 271 269 268 262 254 251 226 221 229 248
265 193 194 171 195 223 267 364 447 373 370 377 334 201 204 253 236 214 204 223 220 198 156 177 196 210 229 250 280 308 317 326 330 301 278 281 272 259 248 220 186 193 213
207 133 152 187 183 159 160 170 182 217 291 292 268 271 276 255 256 243 206 147 224 221 207 220 234 244 238 237 237 256 261 267 245 233 220 206 194 181 167 158 145 152 150
197 219 193 172 150 153 165 152 125 118 122 129 216 219 228 235 247 256 247 202 216 206 198 181 155 133 133 144 147 148 133 130 125 134 124 119 117 115 112 112 119 129 119
198 176 142 156 176 159 138 136 134 139 145 141 132 150 163 183 215 250 257 196 166 142 120 127 127 132 119 100 90 74 70 68 71 65 68 67 72 68 69 75 74 64 59
198 189 170 160 145 139 137 136 138 142 142 145 158 164 150 140 138 120 105 95 89 101 109 105 93 78 67 63 61 58 57 59 61 60 61 59 58 59 54 49 45 43 42
164 170 161 135 140 142 139 139 130 124 128 136 144 145 132 105 99 92 93 96 111 99 84 68 61 61 61 60 59 57 54 54 56 59 59 61 61 55 51 46 40 34 28
124 122 128 132 121 122 118 116 121 132 134 124 103 94 81 90 98 98 107 99 77 62 55 58 58 65 65 64 59 54 52 51 50 51 52 52 50 46 42 37 31 25 19
117 118 117 115 107 108 117 124 125 116 100 91 91 98 101 110 105 95 84 72 64 59 60 57 55 50 53 53 50 44 40 38 38 39 39 40 41 38 34 30 24 16 10
103 103 105 104 102 109 109 101 90 98 98 102 99 108 108 92 80 74 68 67 58 55 53 51 43 37 46 42 39 36 35 37 37 33 27 40 41 35 35 28 23 19 18
100 101 100 95 92 87 84 92 100 99 90 103 107 98 79 66 65 73 71 62 55 46 35 36 41 34 28 25 25 24 30 27 31 27 48 47 44 36 43 36 27 20 34
90 92 93 92 95 95 96 88 90 96 105 97 82 65 60 70 74 68 61 50 51 38 33 43 35 27 22 37 36 39 30 26 31 26 46 54 51 43 36 29 32 30 54

GFSGL_con_3kmhel_099.txt.gz
Helicity
62 39 26 16 13 21 26 34 34 43 64 81 106 146 145 138 116 69 25 40 50 59 92 121 120 140 205 244 324 369 417 490 551 492 481 413 436 472 537 342 319 307 439
74 70 40 20 14 15 6 7 27 44 53 65 89 93 86 89 75 64 67 84 99 99 92 122 167 217 304 408 391 312 327 358 453 411 420 431 534 576 454 381 391 352 411
84 78 70 50 34 28 32 29 38 30 38 36 46 65 68 69 75 77 91 91 106 121 138 153 214 274 256 282 276 258 237 266 354 401 343 319 398 528 485 629 615 824 706
94 86 82 67 49 41 38 47 49 66 59 51 56 59 71 66 68 79 84 112 129 145 185 188 179 232 223 232 256 243 236 260 327 345 344 377 458 499 609 659 800 907 863
108 95 95 79 65 55 59 62 63 74 68 51 62 65 73 97 113 103 138 159 171 182 186 318 362 256 384 332 244 225 216 244 285 342 467 451 471 479 463 545 605 722 670
70 73 72 72 63 69 75 72 67 63 64 60 67 86 107 258 278 244 225 211 266 303 297 288 283 299 282 342 376 412 394 284 299 329 339 352 388 381 411 481 497 474 509
53 40 42 54 59 65 64 64 64 74 111 289 377 371 374 341 325 336 341 322 316 322 324 318 280 304 258 213 253 295 344 401 411 340 382 378 367 397 375 373 439 493 506
99 82 83 78 85 92 142 325 405 403 412 383 413 420 424 399 362 334 338 326 356 369 304 300 265 256 212 165 153 178 208 228 251 239 263 276 278 236 269 291 280 258 237
173 156 166 180 370 472 498 504 505 534 548 516 498 478 456 433 418 397 335 326 347 331 337 276 268 238 273 240 191 208 193 182 195 225 223 206 210 207 222 219 232 246 246
571 564 540 537 491 510 505 508 513 537 514 490 522 535 503 452 445 370 286 250 274 241 248 247 279 203 225 232 181 175 178 177 175 156 114 76 67 120 145 179 240 284 302
540 587 519 526 524 481 477 475 487 482 487 507 498 471 453 417 429 447 341 221 158 169 183 161 156 199 210 201 181 183 186 171 178 176 170 163 160 166 183 194 221 303 304
651 634 551 549 533 484 480 466 443 425 428 399 379 372 344 324 305 279 261 228 176 174 189 167 160 163 138 137 123 147 143 111 159 167 166 174 214 253 282 280 258 236 214
668 620 562 535 484 450 411 379 365 347 339 325 302 262 247 223 174 205 240 250 210 152 109 81 115 132 152 59 91 68 74 159 194 191 188 230 283 242 214 185 181 162 157
744 589 438 444 427 459 464 405 353 301 275 234 228 245 252 275 268 222 179 149 150 130 83 89 101 89 60 88 138 173 187 199 163 169 234 256 226 226 227 223 227 196 196
539 426 400 453 494 522 590 411 390 414 303 287 313 276 242 238 195 170 167 138 115 99 67 119 163 172 184 191 205 226 240 281 270 264 228 191 186 187 189 174 192 189 180
335 332 306 284 332 294 268 319 417 394 432 448 354 232 211 227 189 149 127 167 181 156 134 147 158 156 165 181 199 202 197 208 190 158 146 143 124 110 107 103 104 116 125
291 294 295 217 117 71 143 172 212 305 339 295 258 235 221 198 201 179 132 84 163 155 139 164 170 172 166 171 165 146 142 108 88 89 91 89 81 75 69 68 64 68 78
332 233 148 128 155 175 160 144 126 136 138 118 164 142 160 169 205 237 206 152 144 155 180 194 179 150 119 103 100 104 96 92 91 92 78 74 66 65 61 53 53 58 57
206 214 232 250 235 195 162 139 121 125 120 104 89 98 100 120 155 188 216 185 181 168 142 121 104 97 88 84 99 88 87 89 86 80 73 72 70 61 57 56 52 41 44
231 230 218 205 186 159 130 111 100 102 116 129 137 137 120 114 133 152 154 145 128 111 95 94 95 90 82 88 88 92 91 89 87 83 81 71 67 62 56 52 53 52 44
201 208 200 163 141 127 126 125 124 127 123 118 129 123 140 131 132 122 107 93 86 83 87 82 80 80 87 87 91 86 81 80 79 72 64 60 57 49 43 44 45 41 37
171 156 143 138 126 138 140 138 137 141 135 125 118 110 116 121 107 95 97 91 76 80 81 79 80 79 80 83 74 73 68 66 63 61 56 51 43 39 39 38 39 41 35
134 133 139 140 136 139 146 145 136 125 129 133 127 114 104 97 95 97 87 83 86 86 78 69 73 71 64 71 63 54 55 56 56 55 50 48 45 42 42 46 43 37 34
143 154 154 140 133 131 125 117 121 142 131 115 101 91 91 87 84 81 85 95 87 76 67 66 63 53 60 53 56 57 51 55 60 57 41 52 52 41 46 42 46 40 43
141 135 133 127 118 112 117 130 128 117 105 91 87 87 86 82 79 87 90 83 79 81 72 63 60 51 38 33 30 27 44 67 55 47 61 50 45 36 56 60 49 43 36
126 124 116 112 119 121 119 115 105 89 87 83 83 85 81 91 93 91 84 82 85 70 60 63 47 33 23 31 25 33 26 37 63 68 94 88 74 57 47 29 24 27 47

GFSGL_con_3kmhel_102.txt.gz
Helicity
73 57 78 45 29 45 40 42 56 50 36 57 98 114 73 86 85 70 84 68 32 82 155 197 172 182 196 221 248 283 351 462 384 332 354 273 303 353 395 474 416 464 477
114 88 57 31 50 47 35 41 26 41 53 81 85 101 128 126 96 87 96 117 120 130 128 146 170 174 177 193 248 321 395 415 408 291 290 285 271 257 338 359 418 388 412
132 130 96 62 45 58 40 40 55 49 58 53 84 71 61 79 101 136 147 137 133 122 132 142 152 159 171 221 295 324 414 323 349 230 230 212 267 352 363 347 422 442 481
150 148 137 120 82 67 65 57 63 60 50 41 41 64 72 84 90 96 106 113 110 119 151 255 289 312 306 294 294 340 284 183 205 222 198 193 271 256 293 282 289 302 362
154 160 142 135 92 94 104 98 89 93 80 70 66 61 70 78 134 135 131 161 260 300 324 356 377 406 427 308 260 157 182 223 186 151 233 204 223 228 249 243 254 277 271
137 155 141 152 135 104 104 108 124 116 104 94 118 245 351 293 280 230 280 298 342 331 341 366 312 232 215 235 167 241 236 151 204 165 180 215 249 245 221 245 264 282 283
92 113 108 121 117 117 115 112 118 201 343 376 368 378 383 377 383 387 423 418 421 447 416 380 325 296 283 324 272 207 294 173 178 159 172 220 231 260 240 228 238 253 269
76 85 109 106 94 94 208 431 462 479 476 469 492 503 530 511 465 458 441 387 390 422 451 351 387 350 372 238 282 165 160 212 225 188 183 189 192 212 232 230 225 228 233
95 129 110 164 452 532 540 548 552 623 605 573 546 555 553 517 452 422 388 383 410 413 351 346 305 270 409 277 140 171 168 201 135 151 145 162 185 188 204 226 280 292 272
518 624 739 707 654 629 612 616 627 658 676 627 631 601 579 544 495 426 339 307 296 169 193 255 336 240 253 261 225 202 200 189 182 195 190 185 157 189 179 192 255 279 281
630 694 784 811 747 641 663 618 618 654 686 675 639 592 554 502 476 402 293 195 176 197 230 231 196 239 220 205 181 130 143 135 177 160 169 195 258 304 277 259 230 212 227
789 809 821 782 676 663 626 580 571 537 573 548 497 474 397 321 340 344 325 264 200 176 161 139 131 133 111 155 114 141 151 149 143 135 152 222 246 237 228 206 217 204 198
847 816 829 776 673 759 734 542 521 463 408 385 360 344 335 252 227 287 277 241 190 120 97 129 161 148 134 116 172 228 181 138 130 144 173 182 176 161 164 172 170 168 163
867 896 926 977 890 799 766 617 499 402 326 285 277 251 252 262 267 227 210 186 189 161 98 131 152 175 195 189 177 189 153 146 128 124 119 120 121 129 119 118 109 97 102
843 819 733 655 609 624 730 537 474 417 373 336 287 224 182 197 176 182 175 141 117 134 120 147 136 138 152 153 152 158 145 133 120 115 118 115 108 100 99 85 93 90 83
593 533 534 505 604 451 422 517 578 508 363 291 261 209 193 199 131 126 173 193 180 190 127 116 104 102 114 113 110 114 117 113 104 100 92 104 100 91 85 77 76 72 71
446 419 374 359 341 334 336 286 237 264 269 253 233 227 234 190 169 120 83 150 182 159 124 106 83 90 98 107 107 105 99 82 76 67 73 77 83 86 88 87 82 76 71
442 389 324 252 170 108 66 57 85 118 132 145 181 150 171 181 203 218 190 150 133 173 123 108 106 109 119 116 95 75 57 49 60 64 73 79 79 80 76 71 67 68 67
338 258 225 215 208 192 183 173 145 137 115 86 68 87 101 155 172 198 211 162 126 129 136 131 114 107 95 76 50 41 49 59 68 79 79 76 71 63 58 57 58 52 53
270 244 208 187 172 167 156 144 131 139 139 136 136 139 109 98 108 110 123 131 133 117 112 112 106 92 68 54 56 60 72 81 80 75 73 67 59 55 57 52 55 51 46
174 161 174 182 171 160 152 152 127 102 108 118 116 138 146 124 125 125 112 108 107 110 101 94 81 66 59 60 75 80 78 70 70 69 70 68 63 57 49 51 48 46 51
161 177 186 195 180 184 173 152 140 127 105 82 79 119 152 128 116 110 111 108 89 78 74 73 65 67 69 79 79 72 64 60 60 64 66 67 65 57 50 47 52 57 45
157 171 178 180 169 164 155 133 117 117 124 125 119 113 104 109 111 114 100 73 64 61 59 64 67 70 69 66 57 62 55 52 54 63 71 79 75 63 58 62 51 53 65
170 161 149 131 116 118 113 115 128 138 123 113 109 113 115 108 98 87 69 61 62 59 61 67 70 73 68 62 61 59 59 67 84 67 72 85 88 74 64 61 74 87 95
130 122 123 123 120 117 120 125 127 122 128 130 125 113 94 88 86 72 66 66 76 67 63 72 75 66 59 55 58 45 67 30 58 95 127 137 154 146 135 108 86 52 37
119 119 125 130 133 125 129 140 147 134 122 106 99 91 81 84 84 64 67 88 67 71 71 74 67 50 44 47 44 33 45 50 56 53 80 125 149 157 136 93 77 83 83

GFSGL_con_3kmhel_105.txt.gz
Helicity
24 57 94 86 79 103 78 68 90 90 90 87 130 127 61 57 29 36 26 57 68 87 107 118 124 161 174 202 209 200 232 274 264 237 286 315 323 316 260 214 204 236 240
41 18 54 70 92 80 72 85 102 84 71 62 80 70 49 24 18 59 96 95 74 67 104 130 132 175 163 153 187 194 231 250 283 260 249 360 347 180 182 234 229 211 234
79 63 64 47 64 64 60 60 75 79 82 94 100 93 77 76 68 82 110 93 97 101 113 130 153 196 186 226 241 253 269 294 289 209 248 169 281 161 221 218 255 204 229
110 107 84 70 65 68 53 41 42 55 62 71 77 79 74 79 88 89 87 97 98 183 205 232 262 263 245 248 269 296 254 264 302 240 149 168 272 194 221 225 256 240 233
140 145 106 100 94 98 95 84 60 68 68 61 97 70 77 110 141 138 159 184 241 273 295 327 352 382 447 450 343 400 307 310 183 298 271 266 236 247 256 247 212 234 226
189 170 131 107 100 123 100 97 115 109 99 179 273 283 289 255 239 242 293 335 356 386 451 461 397 361 397 445 453 394 420 268 221 257 240 278 296 202 246 250 235 237 217
211 180 159 131 100 90 93 86 90 246 319 364 381 377 382 336 345 386 407 414 414 412 408 439 490 487 484 396 351 184 358 244 260 267 235 217 191 251 236 252 254 237 216
234 215 169 150 121 122 239 351 383 416 428 442 466 468 492 482 447 466 483 509 602 618 572 521 499 500 385 322 128 208 187 312 256 178 164 200 202 203 201 197 171 187 203
163 196 180 191 424 484 500 493 482 548 566 565 546 540 508 534 471 487 526 592 628 548 507 478 388 335 254 283 262 240 267 273 256 242 221 247 317 391 366 266 292 249 213
367 442 541 557 601 628 662 648 636 648 642 653 707 664 628 596 552 538 479 406 394 362 359 258 218 279 322 326 260 234 271 236 220 244 271 303 333 347 360 264 220 209 199
517 523 594 627 680 659 705 698 732 761 759 750 761 735 737 637 574 503 416 343 291 282 215 142 197 265 258 279 274 231 220 188 210 207 210 230 243 244 231 227 223 210 225
653 731 760 813 800 806 782 644 686 758 878 811 769 728 626 578 533 482 407 249 152 146 147 130 145 221 247 238 203 248 238 169 149 153 161 169 167 162 152 144 139 128 121
696 778 874 937 991 1009 956 902 872 884 804 744 666 526 524 491 375 304 258 179 130 139 187 260 311 276 263 217 247 229 155 110 102 110 121 120 109 93 94 107 111 112 109
784 849 929 996 1039 1038 963 880 840 781 725 623 495 525 414 335 264 219 187 181 193 218 251 230 218 199 196 167 153 144 100 84 73 62 61 60 66 90 97 105 109 118 124
795 880 961 1065 1054 1092 1058 826 811 768 473 416 415 287 225 267 223 181 187 198 187 163 168 197 207 167 150 138 128 118 103 85 86 66 68 73 77 81 99 94 108 121 119
700 768 825 877 924 933 1078 1290 814 522 437 343 225 184 150 140 200 218 218 220 190 169 154 146 151 128 113 96 82 80 83 78 74 70 71 77 90 85 90 91 95 102 107
841 832 837 841 829 717 614 510 328 289 260 241 240 207 170 134 132 184 212 210 196 164 134 119 114 88 57 78 73 75 76 71 64 62 65 63 71 77 92 94 96 92 83
569 551 487 484 292 172 160 145 133 148 174 179 214 209 231 239 239 178 133 146 150 151 110 83 81 79 84 94 90 89 72 59 48 49 54 64 78 83 96 95 83 73 66
238 213 171 119 106 115 123 155 163 165 168 171 167 181 167 181 168 190 202 161 137 121 107 107 100 101 101 96 76 66 53 59 49 59 67 73 81 86 86 77 64 54 48
306 248 215 184 164 184 170 176 181 184 184 169 141 95 91 106 153 162 149 131 137 126 105 106 105 104 91 83 70 63 68 63 55 55 55 58 72 74 73 65 55 51 52
232 210 210 209 179 159 154 145 128 136 135 152 156 141 130 106 98 114 126 114 93 92 89 103 105 98 89 79 71 75 54 49 45 43 44 59 66 68 59 53 53 58 54
218 226 217 193 167 153 120 97 96 105 125 149 152 146 149 119 110 103 98 92 79 86 84 98 107 99 82 74 67 57 58 61 56 45 49 53 53 56 62 61 56 58 62
207 208 203 191 179 171 164 156 153 143 133 126 128 133 117 104 91 75 75 84 98 107 100 109 104 86 64 55 50 61 73 63 53 59 49 58 78 94 98 80 75 72 70
192 171 158 161 162 173 168 152 140 146 135 132 127 111 97 90 75 72 91 104 111 107 96 92 72 62 66 59 63 61 54 57 59 64 67 77 112 119 117 110 95 85 88
150 152 154 141 142 144 147 148 147 141 142 133 125 102 105 104 108 112 115 107 95 98 78 65 69 68 65 54 53 47 50 35 41 53 73 78 91 101 122 126 107 96 98
155 165 158 142 136 135 141 144 134 126 120 111 115 120 98 95 116 124 100 82 77 66 63 70 65 61 55 60 57 46 45 49 35 45 73 87 103 120 134 135 118 118 122

GFSGL_con_3kmhel_108.txt.gz
Helicity
99 78 56 44 92 87 73 75 83 164 227 278 392 408 395 412 211 207 175 123 89 36 43 31 -20 44 78 101 166 180 171 207 178 102 139 147 193 227 214 238 264 182 159
83 66 34 60 46 83 50 58 79 72 82 117 152 169 118 66 112 87 60 60 37 26 15 53 82 92 95 130 177 142 149 155 181 164 148 180 257 335 315 298 190 162 262
98 55 31 43 67 50 65 44 62 81 70 62 81 62 53 71 101 60 45 34 81 74 94 91 115 127 128 184 173 196 222 247 287 271 320 335 320 339 238 215 270 276 251
83 65 57 37 42 45 52 56 61 56 60 49 37 32 39 56 44 39 35 51 91 169 180 195 190 192 190 202 224 232 228 246 291 242 301 178 283 218 226 271 224 282 279
90 67 68 67 57 41 46 49 44 47 38 40 34 18 19 24 25 32 59 87 217 261 286 284 272 291 365 375 315 346 348 359 334 273 281 245 211 238 251 232 255 282 292
127 108 97 125 92 82 45 48 64 73 78 136 157 190 201 168 116 164 267 303 333 358 371 360 337 354 400 497 554 515 387 390 290 324 189 287 242 188 286 241 244 216 220
151 132 141 143 120 97 88 79 132 240 261 295 306 323 316 301 304 360 402 392 417 432 439 461 501 520 426 347 346 366 532 352 370 172 281 217 77 239 225 268 241 222 194
133 158 140 123 134 131 190 278 311 352 360 354 340 323 349 360 417 471 519 496 542 574 644 562 483 489 399 315 291 339 251 267 290 248 265 311 312 311 254 186 169 154 162
116 126 136 122 238 337 363 380 382 438 426 424 402 395 400 406 433 507 590 637 656 604 522 558 585 546 514 360 259 183 200 308 315 332 355 366 350 343 297 206 240 207 182
297 292 294 357 392 426 450 462 481 512 530 518 535 496 498 535 506 530 627 640 661 655 614 580 583 391 298 213 162 248 281 262 244 259 272 276 279 274 293 200 172 185 188
375 457 453 473 468 466 506 539 569 620 676 691 749 719 675 618 627 667 623 625 502 484 464 391 244 235 172 235 283 247 213 207 231 208 204 207 204 211 190 181 170 146 155
384 553 564 573 598 645 683 670 729 742 760 743 790 837 814 889 807 747 692 542 309 318 282 268 168 217 294 234 196 240 232 180 166 174 173 183 179 174 155 151 153 145 145
470 574 656 708 724 639 736 767 804 768 856 881 930 1000 1099 975 819 682 447 433 449 384 222 184 225 149 152 191 240 251 204 161 156 162 152 133 113 107 109 112 121 128 127
493 606 709 831 927 1036 1116 1110 1177 1217 1204 1236 1156 1152 1021 960 794 463 289 270 214 218 195 135 142 174 191 168 147 145 132 125 109 102 104 89 86 100 109 97 97 107 117
599 673 784 871 958 1088 1177 1218 1242 1184 1035 979 1023 683 476 515 209 144 136 145 114 80 119 152 179 180 172 150 135 132 115 112 108 94 83 83 78 70 81 77 78 95 92
672 752 826 910 945 1083 1109 1084 973 920 804 457 431 333 195 136 156 139 134 108 117 187 240 213 201 163 144 127 124 123 121 107 84 77 61 58 83 76 80 74 84 100 97
589 673 769 883 1012 1070 1151 1230 1358 856 585 417 245 196 204 130 126 145 159 210 222 235 211 170 154 130 122 127 126 115 96 81 70 61 64 66 66 58 70 78 92 90 93
503 539 577 597 596 612 543 425 330 269 281 247 220 173 137 134 127 161 190 211 213 209 163 135 127 124 133 126 101 100 91 75 75 60 56 36 41 47 57 69 82 86 75
328 334 415 432 377 269 231 212 173 145 158 175 189 215 175 195 204 204 211 182 137 121 111 125 117 114 104 109 106 99 94 79 56 52 41 43 47 49 43 56 61 52 48
317 292 269 225 210 209 192 193 174 155 142 124 131 126 123 178 230 204 156 132 134 130 125 123 111 114 115 110 109 94 79 71 68 69 58 54 52 49 39 50 53 49 58
246 232 201 200 202 198 198 197 180 174 149 150 146 128 142 138 116 125 137 147 124 104 102 117 120 121 99 89 86 79 92 91 81 69 71 74 66 76 64 62 70 70 70
188 171 179 187 168 173 168 169 167 157 133 136 116 116 129 126 124 121 110 104 106 109 104 110 104 81 75 83 83 92 97 90 71 79 89 79 79 74 84 89 82 81 81
195 196 193 188 187 187 174 141 117 96 94 93 88 93 91 87 81 86 100 107 108 113 111 116 94 84 86 85 81 81 83 72 75 84 78 73 72 75 93 95 81 80 73
189 193 201 171 143 135 127 121 110 101 84 88 85 79 72 71 90 104 115 113 106 107 115 120 107 107 98 93 92 76 53 57 58 49 61 82 73 80 94 99 94 84 87
188 178 157 120 108 113 110 102 102 102 100 97 95 93 95 117 127 121 109 94 99 106 102 102 102 96 102 97 78 62 61 62 48 38 63 76 86 88 103 116 110 96 81
155 138 123 112 116 114 109 108 107 102 104 94 86 91 110 113 102 100 82 83 89 99 106 103 101 100 89 78 72 71 57 42 34 39 57 71 77 88 103 107 86 93 85

GFSGL_con_3kmhel_111.txt.gz
Helicity
98 75 85 113 62 71 71 72 113 182 212 336 338 317 471 449 478 360 330 298 322 190 181 156 128 126 97 78 100 86 111 164 156 50 96 81 130 181 269 259 295 291 266
104 81 37 65 80 34 54 72 109 119 142 206 265 360 370 459 416 413 418 305 213 168 138 117 46 75 57 80 91 94 120 128 122 91 108 224 298 311 300 300 276 314 339
122 90 48 40 53 43 32 31 65 94 108 134 198 277 387 380 397 266 133 169 139 107 126 93 85 99 108 115 123 123 128 141 193 228 283 329 299 286 258 232 250 225 217
123 79 59 41 57 52 56 38 29 54 79 82 103 145 120 177 163 151 120 137 169 164 169 160 156 132 121 125 137 135 156 220 277 301 301 274 301 276 206 215 200 227 294
86 77 41 50 65 71 59 51 31 28 34 50 53 44 45 49 65 91 119 164 200 213 218 217 187 200 276 261 214 253 267 258 279 231 259 303 240 185 225 165 219 173 115
60 44 37 74 88 93 82 67 75 56 45 63 89 90 103 93 79 97 183 231 247 271 290 293 296 322 373 400 437 476 388 312 341 321 299 254 317 171 100 213 159 95 107
101 79 70 78 99 108 109 104 112 154 165 177 181 182 163 122 151 267 323 317 355 375 413 432 425 375 379 425 443 471 512 417 370 250 182 245 215 130 149 196 171 127 105
122 125 116 106 110 123 167 222 238 244 251 246 240 237 262 264 287 379 446 437 482 517 503 503 505 488 461 514 470 438 431 394 312 253 194 201 191 190 178 144 139 106 92
49 55 119 149 193 243 289 296 287 311 310 299 269 264 275 305 350 429 509 528 593 634 614 581 612 594 526 361 357 330 416 344 216 249 266 283 278 276 230 139 193 154 91
90 114 133 227 293 289 304 330 354 364 364 356 365 341 350 398 445 513 568 604 703 741 768 723 681 552 480 400 362 324 281 256 149 182 186 211 242 237 252 158 124 104 88
291 354 301 302 322 341 359 345 375 425 458 449 449 418 435 445 523 625 722 827 827 828 829 816 690 517 465 466 386 312 163 148 160 174 213 200 175 153 123 114 109 85 93
334 379 456 368 350 396 464 478 522 559 609 601 658 660 619 615 617 658 708 707 694 740 733 563 476 335 298 277 244 220 211 181 170 162 138 145 126 125 131 113 109 94 90
312 356 421 404 426 409 518 542 614 646 722 730 742 770 814 882 866 823 794 669 742 767 475 273 274 208 196 226 240 247 211 185 145 107 105 99 101 85 91 89 86 88 92
384 465 560 633 691 707 746 735 721 657 704 843 858 930 967 1006 960 853 720 574 549 359 239 157 157 159 181 178 198 224 144 92 94 80 75 62 48 44 44 42 48 87 99
464 508 597 689 761 839 900 903 1009 976 1022 1206 1153 895 781 768 516 430 344 148 145 154 183 162 142 151 174 162 102 82 96 88 88 75 66 57 50 39 42 39 37 48 66
407 457 506 589 675 778 882 1000 858 708 835 860 690 380 415 220 258 209 185 160 146 157 173 145 160 138 110 82 92 91 94 94 80 65 35 29 29 23 25 12 19 49 61
399 446 532 604 665 727 777 857 969 817 824 694 539 362 220 167 166 152 159 174 165 174 191 168 153 114 85 91 93 91 93 74 46 34 24 31 35 10 19 22 25 34 42
369 436 464 479 488 529 568 530 524 506 416 434 304 249 188 190 192 164 168 185 181 196 159 127 111 107 109 115 114 94 65 47 34 52 57 36 39 31 34 21 21 30 54
331 355 389 423 419 440 455 472 381 321 289 268 256 286 195 183 171 160 154 177 156 149 134 133 128 133 130 111 80 72 61 65 68 61 53 58 55 46 41 35 32 38 42
348 347 359 360 367 363 305 275 244 236 240 230 214 184 149 161 175 187 178 154 140 124 121 133 130 120 104 96 90 71 84 90 78 63 76 75 54 58 55 43 49 56 59
175 216 235 237 222 193 199 216 198 192 191 167 147 123 125 149 140 139 142 145 133 123 128 118 103 96 91 85 77 94 99 74 61 75 84 70 60 77 63 55 60 53 54
157 172 189 199 181 181 183 187 183 168 147 138 133 132 136 141 144 147 135 133 133 120 91 91 104 93 82 89 98 95 83 65 62 79 75 76 79 71 70 70 68 64 63
157 161 175 181 177 187 184 170 159 137 133 119 104 107 118 138 139 129 121 114 108 105 92 95 102 109 100 92 80 74 71 62 60 67 80 95 78 67 74 69 67 64 66
184 189 183 165 156 168 164 157 147 143 125 121 127 134 123 112 110 109 104 94 107 112 115 122 114 102 88 85 85 77 71 70 73 63 65 84 71 57 64 67 74 69 68
174 182 171 149 148 147 150 139 137 131 129 123 115 111 107 109 104 92 76 79 96 110 109 95 86 80 87 89 81 81 80 76 61 52 65 61 60 48 63 70 76 72 57
206 194 169 156 155 145 141 131 120 108 99 97 93 83 78 87 76 71 82 99 102 98 91 89 91 92 82 74 80 85 67 60 58 52 58 58 57 54 57 65 64 70 45

GFSGL_con_3kmhel_114.txt.gz
Helicity
162 170 117 85 83 69 21 26 -18 10 76 101 161 304 344 561 400 378 375 360 435 391 326 271 325 322 275 171 180 128 100 86 80 72 70 152 160 213 263 284 306 324 262
124 124 88 84 89 77 43 61 40 32 114 140 151 176 237 470 419 430 401 475 355 345 289 275 322 105 115 177 128 93 79 93 93 74 186 201 238 225 256 277 302 257 217
129 117 88 72 84 62 38 52 55 35 73 104 173 242 192 186 332 458 399 346 293 258 300 291 164 137 161 161 142 138 139 144 175 189 239 215 238 299 248 220 234 292 252
113 94 99 70 74 58 39 41 49 44 39 82 132 200 236 316 284 393 295 279 463 405 360 276 254 176 159 149 152 163 181 209 212 229 245 293 268 234 176 134 158 255 220
111 78 88 75 78 79 54 37 41 49 39 41 68 76 160 251 355 342 295 323 269 319 320 309 248 232 266 249 197 202 216 236 248 257 277 273 264 254 261 228 209 215 165
111 96 111 85 88 71 63 57 48 43 65 72 65 74 103 108 83 131 161 258 292 312 329 319 269 254 311 360 393 465 354 287 282 273 310 321 355 290 271 274 191 150 148
106 90 104 94 91 91 91 88 82 128 136 145 153 138 116 80 106 189 241 282 297 268 259 284 311 313 330 360 427 482 544 523 440 311 298 255 260 282 260 228 178 104 53
107 93 93 89 87 105 132 189 198 214 211 193 191 189 190 187 213 309 365 356 396 392 395 391 394 382 361 369 462 488 483 474 416 387 322 312 253 202 144 75 78 79 38
103 116 105 92 123 197 215 221 220 242 274 284 243 239 246 259 311 388 462 458 499 496 465 445 442 423 455 454 445 469 492 445 373 292 314 247 221 220 158 101 157 119 68
92 55 82 142 149 176 220 259 281 304 312 306 329 325 320 326 331 360 448 506 565 589 604 648 639 593 581 555 462 474 444 408 252 261 222 167 144 161 173 116 59 37 2
190 257 198 159 201 229 258 280 309 322 350 371 398 378 364 323 350 439 499 576 656 729 727 706 693 711 652 681 681 560 387 187 144 90 80 87 115 126 82 43 37 29 29
260 279 306 300 319 329 382 361 387 412 444 435 449 440 410 385 377 483 656 786 801 843 790 729 686 666 662 629 497 262 181 146 118 124 127 135 104 86 85 75 43 -1 -23
284 338 309 353 429 384 446 479 484 516 564 518 520 560 571 564 551 602 624 596 649 656 520 490 522 362 285 209 200 210 153 127 111 119 93 75 82 80 53 8 -4 10 7
375 427 450 416 448 426 412 445 511 453 596 621 594 662 679 622 607 606 651 625 691 523 534 354 248 242 243 206 188 197 190 167 128 112 95 67 31 12 7 10 4 29 37
302 409 455 523 550 541 433 417 520 566 640 660 696 597 691 654 605 556 627 405 347 308 227 217 234 209 192 171 177 174 144 126 115 87 73 47 26 15 16 -3 -12 -10 -13
288 305 372 475 528 584 647 691 605 409 458 529 448 582 489 357 450 368 264 275 196 184 187 155 154 146 152 147 141 133 122 123 101 73 51 44 46 41 23 -8 -17 -6 36
297 323 361 388 450 515 557 603 729 601 649 664 615 494 410 277 294 301 257 224 176 151 170 143 143 152 151 131 119 118 111 88 71 59 64 63 30 10 7 -3 6 31 60
271 340 364 386 418 455 490 517 532 599 659 729 555 389 328 253 214 200 179 175 155 152 157 156 152 121 106 107 103 92 74 64 70 74 58 37 31 17 26 33 36 35 44
277 300 348 380 403 429 467 497 534 529 498 458 372 300 213 210 176 165 140 165 158 160 150 135 123 126 121 113 93 78 70 75 62 47 40 36 40 43 43 35 29 27 33
324 340 365 389 402 412 412 421 387 360 328 297 267 224 192 177 186 186 181 177 167 149 138 136 122 124 112 87 68 72 79 58 49 54 55 53 55 45 44 37 35 34 40
274 310 286 290 286 266 254 245 204 191 199 220 222 178 151 154 156 162 164 164 145 133 125 121 115 98 87 85 91 71 60 62 67 63 61 61 58 62 53 43 37 32 39
138 162 187 206 197 206 198 196 205 212 191 183 167 155 164 171 160 158 150 138 128 118 101 94 95 101 96 77 66 75 83 74 63 68 71 67 57 63 61 48 43 47 38
134 148 159 161 180 212 223 195 192 174 153 141 124 127 135 143 137 128 119 113 105 97 89 97 95 85 81 85 80 73 73 70 70 77 80 82 70 65 66 50 44 47 44
159 175 189 188 186 184 174 169 159 151 138 138 134 129 124 124 124 113 94 85 91 92 88 90 86 90 91 85 74 65 74 85 83 72 67 70 71 59 59 49 41 49 53
173 171 181 181 172 162 165 154 145 135 128 117 117 112 103 101 100 89 77 76 83 96 96 91 87 81 78 81 86 90 88 77 69 62 68 69 71 57 57 50 47 45 45
174 175 165 150 148 134 128 120 114 106 99 86 82 81 76 78 74 72 80 92 97 96 92 87 84 90 87 77 80 75 67 63 60 57 71 71 73 63 54 48 33 42 37

GFSGL_con_3kmhel_117.txt.gz
Helicity
144 125 122 114 123 136 77 35 7 3 1 -4 4 92 185 234 149 223 249 249 279 364 396 443 517 373 331 289 258 305 263 249 191 172 105 115 206 200 283 327 307 242 242
131 113 120 100 121 100 52 23 23 37 -2 -40 11 63 158 200 336 342 280 311 295 403 447 496 490 383 188 197 290 210 276 189 186 65 139 175 203 254 315 347 299 299 218
164 106 122 78 109 58 28 28 34 48 53 18 45 40 126 203 233 341 333 374 390 385 356 399 374 260 185 288 219 166 193 198 175 134 172 197 258 291 299 266 283 284 267
147 87 80 80 101 48 37 25 19 32 70 63 56 45 120 224 286 260 449 486 317 301 280 359 159 236 308 209 214 248 215 196 187 235 247 262 254 299 278 265 257 234 209
100 96 76 84 101 61 46 19 29 23 26 60 75 95 71 117 197 172 301 575 484 579 526 486 483 397 401 372 290 257 215 212 220 260 298 310 310 299 246 223 219 226 195
102 98 83 114 104 63 52 36 33 37 34 60 83 89 106 167 319 393 520 362 416 533 616 467 372 397 411 423 469 499 379 280 311 315 333 373 356 265 266 279 243 185 186
107 96 98 117 110 85 71 61 55 89 89 91 100 117 135 132 173 300 500 419 386 280 322 367 351 360 407 459 550 586 584 561 473 342 364 312 306 327 275 293 273 199 194
118 116 124 129 112 106 111 153 160 163 152 132 149 142 167 185 271 325 319 315 393 362 348 354 350 333 325 381 477 546 542 515 472 394 346 320 338 341 337 258 184 158 12
158 122 123 126 130 177 217 210 204 243 258 245 214 211 225 242 271 333 356 380 412 406 425 383 352 349 322 343 428 419 442 500 470 513 478 483 521 453 194 58 103 84 27
156 110 120 118 167 205 252 282 298 327 339 330 325 287 255 286 311 356 412 398 438 452 473 477 416 403 397 424 369 354 393 360 402 416 398 327 235 184 142 80 42 31 21
373 271 211 206 215 234 291 310 352 364 377 381 381 341 314 280 319 382 427 477 505 554 556 541 489 513 547 530 530 555 525 387 326 260 209 157 116 97 82 80 59 27 13
236 346 331 269 259 291 313 311 356 398 419 409 424 405 375 374 387 485 599 678 729 798 747 711 654 669 715 613 532 400 305 190 146 162 168 145 112 107 90 53 28 -0 -27
147 321 382 344 350 344 349 366 405 445 462 441 452 451 428 429 412 426 484 599 658 705 646 610 626 598 532 449 324 268 215 197 173 159 143 126 116 79 49 25 15 36 12
207 294 324 396 342 382 427 577 483 497 537 488 472 471 467 441 492 560 609 692 701 685 639 576 407 324 326 298 270 231 168 139 142 137 126 99 71 72 68 57 56 56 35
212 320 325 408 475 505 525 442 489 437 427 501 517 470 499 419 344 372 408 417 408 393 430 352 345 323 248 222 205 177 158 158 153 127 116 101 78 60 55 38 22 3 6
177 246 353 557 320 298 381 399 290 245 331 347 344 283 360 340 341 348 347 265 271 270 295 246 245 209 189 159 165 169 161 152 139 117 102 84 77 68 42 21 7 14 31
179 231 305 340 439 398 489 467 588 503 424 402 401 379 500 308 379 363 323 342 281 234 271 212 191 162 153 153 151 139 137 131 114 100 88 87 70 53 37 34 32 31 33
249 260 282 298 347 372 419 471 560 629 608 624 560 455 466 370 359 325 239 245 238 250 196 174 166 142 144 140 125 121 118 104 103 101 98 89 75 59 47 37 24 34 38
243 299 329 349 368 431 468 526 536 572 529 500 475 430 346 305 253 210 187 210 177 161 132 139 141 136 129 126 117 111 106 109 102 92 89 86 71 50 38 21 15 23 26
279 318 330 388 449 493 502 524 532 474 449 413 395 313 245 207 212 201 184 163 136 129 124 136 130 127 119 115 109 96 96 98 103 99 88 68 58 37 31 34 43 36 40
272 283 307 319 328 352 361 374 365 338 314 319 258 179 154 169 179 169 143 122 115 115 114 121 120 122 114 100 91 97 106 108 97 80 67 59 47 43 43 40 31 28 33
159 199 220 244 242 268 266 246 241 234 216 197 177 182 179 160 136 123 120 122 123 123 111 110 113 107 101 99 100 106 103 92 77 73 69 56 49 53 51 51 49 41 30
79 101 127 145 162 179 197 203 195 185 173 169 151 126 106 117 117 119 120 117 119 120 115 113 115 111 104 102 97 91 82 81 85 79 71 62 58 62 59 63 58 49 39
100 123 140 156 169 186 185 171 147 139 126 113 95 98 114 113 116 128 117 106 106 108 104 98 98 101 99 92 82 75 80 79 75 72 71 69 63 63 70 67 61 45 31
87 107 133 139 152 174 173 151 131 112 97 91 102 104 107 110 108 107 104 94 87 86 90 88 85 88 87 84 82 78 88 83 72 72 69 67 65 56 68 64 56 43 30
114 128 137 124 112 97 97 97 91 85 92 93 93 92 93 97 93 84 76 76 79 82 82 79 81 80 75 75 79 78 72 73 69 71 68 67 70 70 66 61 48 43 30

GFSGL_con_3kmhel_120.txt.gz
Helicity
70 102 66 104 87 94 131 126 112 122 73 70 128 124 173 177 164 178 149 148 117 142 162 169 207 273 380 371 371 356 303 305 338 311 367 382 198 126 256 230 192 207 243
89 104 87 112 85 87 111 128 106 91 47 30 43 65 158 197 201 195 222 232 112 111 171 210 251 336 389 410 393 478 450 301 300 166 351 369 281 306 255 241 257 221 268
110 114 121 111 93 74 98 113 98 100 67 53 44 40 47 118 172 230 198 197 226 186 211 242 337 396 455 433 444 469 413 277 131 193 328 317 358 197 287 303 310 292 259
167 130 141 101 87 67 85 120 97 94 60 59 62 44 46 98 100 222 297 235 261 351 362 392 448 514 334 397 365 272 231 235 301 384 329 412 354 333 310 291 331 285 233
219 149 132 107 91 74 93 131 112 85 53 65 79 74 89 118 116 204 289 308 289 480 670 649 566 542 437 376 261 311 337 423 399 352 322 334 324 335 343 313 285 235 265
146 156 108 103 86 73 106 131 108 84 66 74 84 123 148 96 198 256 403 478 555 720 811 809 712 671 637 619 631 657 463 312 325 319 320 385 373 320 308 266 280 205 191
194 170 111 79 87 71 107 126 125 118 108 120 131 133 172 181 382 410 380 469 619 532 524 570 526 471 522 577 597 585 566 500 407 323 385 351 335 301 277 290 291 247 253
225 157 116 100 100 67 104 160 204 188 157 153 159 156 181 182 331 432 514 443 482 472 485 498 461 372 341 423 530 575 530 527 506 507 504 474 391 345 340 300 314 204 172
213 166 152 114 116 115 208 230 219 255 224 196 176 186 202 192 241 392 447 443 411 401 347 340 394 362 319 345 444 489 524 535 562 564 474 465 467 451 287 286 251 202 190
220 252 179 134 164 196 247 287 296 306 287 258 263 235 233 252 268 327 367 377 416 403 385 395 408 396 392 361 386 408 476 406 353 399 411 409 346 328 304 247 201 192 130
148 251 169 204 276 265 287 308 336 364 376 358 364 318 303 287 310 344 366 397 401 435 451 449 422 409 436 455 419 352 335 375 354 355 373 346 296 249 192 143 119 105 77
38 137 351 328 329 322 350 358 376 419 448 440 452 439 404 374 353 390 469 523 511 587 567 560 533 543 597 656 551 484 477 406 324 280 266 235 195 155 122 93 75 57 38
52 247 418 459 382 359 388 412 442 430 453 455 484 479 454 413 413 435 549 651 689 746 690 688 649 625 636 575 440 309 271 252 247 262 222 170 136 117 99 69 60 54 38
72 206 192 434 573 437 477 469 460 441 466 484 494 505 497 426 397 421 523 624 682 708 691 620 546 494 462 389 357 345 306 242 207 189 171 140 132 124 120 99 83 73 33
165 111 282 262 356 536 562 534 578 545 544 590 536 519 502 488 405 411 489 520 487 440 475 444 420 378 358 337 299 261 227 210 215 183 163 144 131 118 116 97 82 65 65
126 193 178 282 381 385 484 554 497 351 468 379 379 373 453 306 319 337 375 408 413 418 456 414 344 283 267 241 227 218 200 196 170 146 143 137 136 126 98 81 71 70 65
131 181 279 336 433 468 486 519 624 458 474 294 322 302 365 335 337 310 351 430 385 371 345 310 287 215 201 198 194 180 172 158 148 143 144 138 115 97 82 88 81 77 72
207 208 251 266 314 267 473 404 394 508 572 558 506 493 371 308 305 281 298 312 318 303 260 220 188 164 175 168 152 144 140 136 142 139 131 117 103 100 97 92 87 83 71
195 271 311 354 452 432 506 505 458 528 646 662 645 537 426 386 305 287 254 251 224 212 195 189 158 157 161 144 138 137 138 142 127 123 123 120 108 99 103 91 81 78 54
211 259 272 320 388 442 472 544 624 605 587 508 394 359 306 293 301 268 233 206 192 188 161 153 147 146 140 136 136 125 124 123 121 121 119 113 107 99 98 85 79 66 58
127 189 260 293 339 377 408 435 415 408 412 418 421 326 236 209 200 185 178 176 169 147 133 137 143 144 146 137 122 125 128 124 118 111 113 113 106 94 84 73 62 54 54
121 163 190 209 218 257 290 299 293 277 258 257 243 243 216 190 198 189 167 151 144 139 134 139 150 151 136 122 116 118 116 112 111 117 117 100 90 89 75 65 64 65 58
35 64 98 132 156 183 202 197 192 189 184 189 183 183 167 166 154 136 134 140 139 141 147 149 142 131 119 118 114 110 115 127 125 114 103 93 86 82 72 73 71 70 75
53 69 85 95 106 131 146 157 162 168 166 173 175 166 139 117 120 129 129 135 131 132 131 127 116 118 115 107 109 116 124 117 110 104 92 86 81 80 77 72 66 73 63
76 89 103 111 117 133 152 168 176 180 173 161 140 118 109 111 114 127 119 111 114 116 115 104 102 105 117 125 127 128 126 109 99 97 81 77 75 71 67 70 74 69 61
88 101 109 116 129 132 140 148 146 131 121 105 100 105 106 110 110 109 109 105 104 98 98 100 107 117 104 104 109 110 98 95 90 93 81 75 76 75 77 75 68 66 57

GFSGL_con_3kmhel_123.txt.gz
Helicity
62 65 64 71 53 91 113 100 106 126 121 170 160 168 150 159 171 211 240 252 267 273 237 140 153 194 211 279 315 302 278 277 265 340 416 404 350 384 430 393 362 278 277
37 73 83 89 64 120 147 106 124 119 130 158 142 141 185 183 201 182 259 264 266 305 255 124 139 181 247 307 296 283 285 283 362 353 355 300 359 447 475 451 385 266 266
67 61 100 102 80 96 119 108 124 127 103 100 99 110 173 214 189 222 236 261 310 271 160 83 82 144 231 264 281 358 337 373 381 483 384 439 402 337 461 523 387 306 251
77 87 112 114 107 117 132 139 151 121 107 99 98 97 130 151 163 184 205 253 189 191 188 164 162 235 299 307 322 363 368 352 382 470 489 446 444 441 445 341 335 270 258
68 116 115 112 100 124 138 149 143 120 109 113 117 118 115 104 122 153 174 211 228 256 342 376 345 340 423 429 406 476 337 439 561 463 393 354 427 461 413 361 318 258 278
48 57 116 131 100 104 132 140 116 123 140 116 132 196 149 138 103 94 166 196 319 501 692 688 681 703 767 681 567 853 478 476 354 334 395 517 523 425 380 329 289 274 274
85 23 133 137 81 79 140 146 140 165 186 209 189 168 162 163 271 368 493 449 627 747 752 799 896 886 984 903 890 711 605 547 500 455 598 471 470 352 341 365 339 329 328
113 31 122 103 81 98 144 161 231 215 210 223 201 169 162 196 293 461 474 439 509 581 549 574 704 694 525 623 663 585 561 556 501 489 481 447 379 363 385 382 351 276 224
103 47 159 155 83 106 184 283 260 274 253 246 215 205 176 169 259 351 380 405 400 415 405 450 529 492 396 488 602 589 567 562 544 543 494 457 466 487 444 298 272 232 182
52 78 181 173 108 173 264 288 343 320 295 285 294 256 208 199 215 333 392 383 404 381 400 428 404 364 364 364 454 510 529 403 413 460 468 484 456 397 294 228 218 171 149
34 83 139 108 193 276 307 318 375 375 368 354 370 342 306 274 269 290 331 375 377 407 379 366 327 317 396 445 433 428 392 390 435 403 367 322 320 276 204 221 193 168 167
97 107 60 170 262 373 376 375 402 421 415 390 409 418 405 382 355 349 378 413 396 508 494 470 433 419 442 472 490 417 426 433 400 370 348 331 294 252 225 206 183 151 137
95 -11 109 293 423 393 366 419 483 458 461 414 422 438 426 400 405 427 518 564 591 634 530 465 492 554 589 600 473 421 443 419 373 316 288 272 233 197 159 138 138 122 104
70 76 85 128 412 533 509 477 470 478 478 463 470 483 473 467 477 488 535 615 653 716 741 681 625 603 555 507 479 396 295 254 256 257 246 217 176 153 149 129 119 113 89
85 132 106 158 224 555 699 635 568 525 428 499 479 517 543 526 480 515 578 644 624 560 562 549 552 504 473 396 343 302 273 253 245 219 199 179 158 137 131 116 109 97 103
81 131 155 151 203 191 512 495 392 422 527 609 632 647 660 625 557 500 477 406 428 460 549 517 480 435 380 297 270 243 214 207 195 181 166 153 147 132 132 127 123 116 111
145 172 212 293 293 296 263 283 526 482 345 324 305 332 323 383 382 322 401 465 413 402 432 374 329 304 264 234 217 223 221 190 168 166 159 156 136 127 123 128 126 124 123
170 234 212 254 338 387 418 393 320 398 578 548 373 318 330 361 373 428 398 427 418 340 323 293 232 223 212 209 203 194 175 161 151 144 145 140 136 131 128 126 129 115 101
164 197 232 266 324 343 399 471 490 568 595 562 558 520 402 462 502 478 395 380 345 270 243 248 217 217 193 178 177 159 147 144 136 138 141 134 132 125 131 119 113 107 95
170 217 249 286 312 322 369 409 489 593 588 560 546 517 497 514 500 412 358 321 285 251 219 208 196 166 155 145 144 134 128 131 132 133 132 132 128 123 120 117 122 119 116
99 168 225 265 336 391 403 396 417 432 471 508 502 381 312 352 347 321 277 260 219 204 193 158 155 153 137 128 127 137 140 140 134 132 132 128 116 123 116 117 120 111 103
78 84 130 201 231 282 324 316 352 414 353 335 354 337 309 309 286 250 204 193 180 153 130 133 136 130 131 133 126 126 127 126 124 130 125 112 109 116 122 120 116 110 99
19 61 98 125 171 193 211 217 224 232 241 250 252 242 242 251 241 205 179 158 133 137 133 137 147 147 142 137 123 118 120 132 134 120 117 120 121 133 123 121 112 103 108
21 34 49 66 81 103 125 149 171 177 170 174 178 183 189 183 165 156 134 117 124 133 134 133 131 133 128 122 125 133 143 132 111 115 119 126 124 129 130 115 103 100 92
60 67 79 85 95 110 125 141 156 167 173 176 175 165 146 129 119 107 106 118 125 122 124 121 119 134 160 185 168 167 132 132 134 116 110 111 117 115 103 104 98 97 87
96 101 105 107 115 126 137 147 153 158 165 163 158 145 120 102 94 105 114 110 113 116 122 123 125 116 99 104 123 120 117 122 124 123 112 109 111 111 109 110 101 100 95